ftp/pub/palmer/observations_modified/2019/July/AR190718_BASE.txt

Download

Sample DateTime	Unit Id	WS Avg 2min	WD Avg 2min	WGS 10min	WGD 10min	Air Temp	Rel Humidity	Dew Point	Pyranometer	Quantum	Air Pressure	Snow Level	Rainfall	PW Current	Visibility	CBase 1	CBase 2	CBase 3	Vert Vis
2019/07/18  00:00:00  BASE  1.24656  305  2.1462   313  -2.2  100   -2.2  0     0     988.7    NA       0.0000   -SN      BR    3300  230  
2019/07/18  00:01:00  BASE  1.72872  296  2.63424  310  -2.2  100   -2.2  0     0     988.7    NA       0.0000   -SN      BR    3900  0    
2019/07/18  00:02:00  BASE  2.24616  309  2.78124  323  -2.2  100   -2.2  0     0     988.7    NA       0.0000   -SN      BR    4300  0    
2019/07/18  00:03:00  BASE  2.49312  321  2.78124  323  -2.2  100   -2.2  0     0     988.7    NA       0.0000   -SN      BR    5000  0    
2019/07/18  00:04:00  BASE  2.352    319  2.78124  323  -2.1  100   -2.1  0     0     988.7    NA       0.0000   -SN      BR    8000  0    
2019/07/18  00:05:00  BASE  2.33436  320  2.78124  323  -2.1  100   -2.1  0     0     988.7    NA       0.0000   -SN      BR    7000  260  
2019/07/18  00:06:00  BASE  2.34612  324  2.78124  323  -2.1  100   -2.1  0     0     988.7    NA       0.0000   -SN      BR    7000  0    
2019/07/18  00:07:00  BASE  2.22264  325  2.78124  323  -2.1  100   -2.1  0     0     988.7    NA       0.0000   -SN      BR    5000  0    
2019/07/18  00:08:00  BASE  1.99332  323  2.78124  323  -2.1  100   -2.1  0     0     988.7    NA       0.0000   -SN      BR    4800  0    
2019/07/18  00:09:00  BASE  1.76988  319  2.78124  323  -2.1  100   -2.1  0     0     988.7    NA       0.0000   -SN      BR    3600  0    
2019/07/18  00:10:00  BASE  1.5876   318  2.78124  323  -2.1  100   -2.1  0     0     988.7    NA       0.0000   -SN      BR    3600  0    
2019/07/18  00:11:00  BASE  1.54056  316  2.78124  323  -2.1  100   -2.1  0     0     988.7    NA       0.0000   -SN      BR    3200  230  
2019/07/18  00:12:00  BASE  1.60524  319  2.59896  319  -2.1  100   -2.1  0     0     988.7    NA       0.0000   -SN      BR    2800  0    
2019/07/18  00:13:00  BASE  1.66992  326  2.59896  319  -2.1  100   -2.1  0     0     988.7    NA       0.0000   -SN      BR    2900  0    
2019/07/18  00:14:00  BASE  1.75812  322  2.59896  319  -2.1  100   -2.1  0     0     988.7    NA       0.0000   -SN      BR    2800  0    
2019/07/18  00:15:00  BASE  1.98744  322  2.48136  326  -2.1  100   -2.1  0     0     988.7    NA       0.0000   -SN      BR    3200  0    
2019/07/18  00:16:00  BASE  2.10504  329  2.48136  326  -2.1  100   -2.1  0     0     988.7    NA       0.0000   -SN      BR    3700  0    
2019/07/18  00:17:00  BASE  1.93452  330  2.48136  326  -2.1  100   -2.1  0     0     988.7    NA       0.0000   -SN      BR    3500  0    
2019/07/18  00:18:00  BASE  1.8522   328  2.48136  326  -2.1  100   -2.1  0     0     988.7    NA       0.0000   -SN      BR    3300  300  
2019/07/18  00:19:00  BASE  1.97568  324  2.48136  326  -2.1  100   -2.1  0     0     988.7    NA       0.0000   -SN      BR    3700  330  
2019/07/18  00:20:00  BASE  2.2344   320  2.48136  326  -2.1  100   -2.1  0     0     988.8    NA       0.0000   -SN      BR    3600  330  
2019/07/18  00:21:00  BASE  2.31672  318  2.48136  326  -2.1  100   -2.1  0     0     988.8    NA       0.0000   -SN      BR    5000  460  
2019/07/18  00:22:00  BASE  2.30496  317  2.48136  315  -2.1  100   -2.1  0     0     988.8    NA       0.0000   -SN      BR    9999  430  
2019/07/18  00:23:00  BASE  2.19324  316  2.48136  315  -2.1  100   -2.1  0     0     988.9    NA       0.0000   -SN      BR    9999  430  
2019/07/18  00:24:00  BASE  2.03448  315  2.48136  315  -2.1  100   -2.1  0     0     988.9    NA       0.0000   -SN      BR    9999  390  
2019/07/18  00:25:00  BASE  2.09916  314  2.48136  315  -2.1  100   -2.1  0     0     988.9    NA       0.0000   -SN      BR    9999  360  
2019/07/18  00:26:00  BASE  2.06976  316  2.48136  315  -2.1  100   -2.1  0     0     988.9    NA       0.0000   -SN      BR    9999  360  
2019/07/18  00:27:00  BASE  1.89924  317  2.48136  315  -2.1  100   -2.1  0     0     988.9    NA       0.0000   -SN      BR    9999  360  
2019/07/18  00:28:00  BASE  1.7052   313  2.48136  315  -2.1  100   -2.1  0     0     988.9    NA       0.0000   -SN      BR    9999  430  
2019/07/18  00:29:00  BASE  1.5288   309  2.48136  315  -2.1  100   -2.1  0     0     988.9    NA       0.0000   -SN      9999  390   0    
2019/07/18  00:30:00  BASE  1.51116  308  2.48136  315  -2.1  100   -2.1  0     0     988.9    NA       0.0000   -SN      9999  390   0    
2019/07/18  00:31:00  BASE  1.69932  311  2.48136  315  -2.1  100   -2.1  0     0     988.9    NA       0.0000   -SN      7000  360   0    
2019/07/18  00:32:00  BASE  1.95216  315  2.38728  311  -2.1  100   -2.1  0     0     988.9    NA       0.0000   -SN      6000  300   0    
2019/07/18  00:33:00  BASE  2.00508  319  2.38728  311  -2.1  100   -2.1  0     0     988.9    NA       0.0000   -SN      5000  230   0    
2019/07/18  00:34:00  BASE  2.09916  325  2.38728  330  -2.1  100   -2.1  0     0     989.0    NA       0.0000   -SN      BR    4900  0    
2019/07/18  00:35:00  BASE  1.91688  337  2.38728  330  -2.1  100   -2.1  0     0     989.0    NA       0.0000   -SN      BR    3100  0    
2019/07/18  00:36:00  BASE  1.48764  354  2.38728  330  -2.1  100   -2.1  0     0     989.0    NA       0.0000   -SN      BR    2100  0    
2019/07/18  00:37:00  BASE  1.11132  7    2.38728  330  -2.2  100   -2.2  0     0     989.0    NA       0.0000   -SN      BR    1700  0    
2019/07/18  00:38:00  BASE  0.62328  7    2.38728  330  -2.2  100   -2.2  0     0     989.0    NA       0.0000   -SN      BR    2600  0    
2019/07/18  00:39:00  BASE  0.18816  1    2.38728  330  -2.2  100   -2.2  0     0     989.0    NA       0.0000   -SN      BR    2200  0    
2019/07/18  00:40:00  BASE  0.05292  353  2.38728  330  -2.3  100   -2.3  0     0     989.0    NA       0.0000   -SN      BR    2200  0    
2019/07/18  00:41:00  BASE  0.39984  339  2.38728  330  -2.3  100   -2.3  0     0     989.0    NA       0.0000   -SN      BR    2400  0    
2019/07/18  00:42:00  BASE  0.83496  320  2.38728  330  -2.3  100   -2.3  0     0     989.0    NA       0.0000   -SN      BR    3000  0    
2019/07/18  00:43:00  BASE  0.8232   326  2.38728  330  -2.3  100   -2.3  0     0     989.0    NA       0.0000   -SN      BR    3500  0    
2019/07/18  00:44:00  BASE  0.69384  340  1.81692  343  -2.2  100   -2.2  0     0     989.0    NA       0.0000   -SN      BR    3300  0    
2019/07/18  00:45:00  BASE  0.78204  336  1.63464  6    -2.2  100   -2.2  0     0     989.1    NA       0.0000   -SN      BR    2900  0    
2019/07/18  00:46:00  BASE  1.08192  323  1.48176  323  -2.2  100   -2.2  0     0     989.1    NA       0.0000   -SN      BR    3100  0    
2019/07/18  00:47:00  BASE  1.27596  311  1.48176  323  -2.2  100   -2.2  0     0     989.1    NA       0.0000   -SN      BR    2400  0    
2019/07/18  00:48:00  BASE  1.30536  311  1.48176  312  -2.2  100   -2.2  0     0     989.1    NA       0.0000   -SN      BR    3300  260  
2019/07/18  00:49:00  BASE  1.4112   312  1.54056  315  -2.2  100   -2.2  0     0     989.1    NA       0.0000   -SN      BR    3800  0    
2019/07/18  00:50:00  BASE  1.3818   311  1.54056  315  -2.2  100   -2.2  0     0     989.1    NA       0.0000   -SN      BR    3300  0    
2019/07/18  00:51:00  BASE  1.2936   312  1.54056  309  -2.2  100   -2.2  0     0     989.1    NA       0.0000   -SN      BR    3300  0    
2019/07/18  00:52:00  BASE  1.21128  316  1.54056  309  -2.2  100   -2.2  0     0     989.1    NA       0.0000   -SN      BR    3300  0    
2019/07/18  00:53:00  BASE  1.24656  315  1.9992   300  -2.2  100   -2.2  0     0     989.1    NA       0.0000   -SN      BR    3500  0    
2019/07/18  00:54:00  BASE  1.71108  307  2.21088  308  -2.2  100   -2.2  0     0     989.1    NA       0.0000   -SN      BR    2900  0    
2019/07/18  00:55:00  BASE  2.03448  303  2.21088  308  -2.2  100   -2.2  0     0     989.2    NA       0.0000   -SN      BR    2500  0    
2019/07/18  00:56:00  BASE  1.97568  303  2.21088  308  -2.2  100   -2.2  0     0     989.1    NA       0.0000   -SN      BR    2400  0    
2019/07/18  00:57:00  BASE  2.0874   302  2.42256  297  -2.2  100   -2.2  0     0     989.2    NA       0.0000   -SN      BR    2200  0    
2019/07/18  00:58:00  BASE  2.2638   300  2.45196  297  -2.2  100   -2.2  0     0     989.2    NA       0.0000   -SN      BR    2100  0    
2019/07/18  00:59:00  BASE  2.2344   301  2.45196  297  -2.2  100   -2.2  0     0     989.2    NA       0.0000   -SN      BR    2200  0    
2019/07/18  01:00:00  BASE  2.1756   303  2.45196  297  -2.2  100   -2.2  0     0     989.3    NA       0.0000   -SN      BR    2500  0    
2019/07/18  01:01:00  BASE  2.10504  306  2.45196  297  -2.2  100   -2.2  0     0     989.2    NA       0.0000   -SN      BR    2900  0    
2019/07/18  01:02:00  BASE  2.00508  308  2.45196  297  -2.2  100   -2.2  0     0     989.3    NA       0.0000   -SN      BR    2900  0    
2019/07/18  01:03:00  BASE  1.8522   310  2.45196  297  -2.2  100   -2.2  0     0     989.3    NA       0.0000   -SN      BR    3100  0    
2019/07/18  01:04:00  BASE  1.91688  314  2.45196  297  -2.2  100   -2.2  0     0     989.3    NA       0.0000   -SN      BR    3100  0    
2019/07/18  01:05:00  BASE  2.07564  314  2.45196  297  -2.2  100   -2.2  0     0     989.3    NA       0.0000   -SN      BR    3300  0    
2019/07/18  01:06:00  BASE  1.92864  313  2.45196  297  -2.2  100   -2.2  0     0     989.3    NA       0.0000   -SN      BR    3500  0    
2019/07/18  01:07:00  BASE  1.74636  312  2.45196  297  -2.2  100   -2.2  0     0     989.3    NA       0.0000   -SN      BR    3300  0    
2019/07/18  01:08:00  BASE  1.84632  309  2.29908  304  -2.2  100   -2.2  0     0     989.4    NA       0.0000   -SN      BR    3300  0    
2019/07/18  01:09:00  BASE  1.83456  305  2.29908  304  -2.2  100   -2.2  0     0     989.4    NA       0.0000   -SN      BR    3200  0    
2019/07/18  01:10:00  BASE  1.60524  301  2.26968  314  -2.2  100   -2.2  0     0     989.4    NA       0.0000   -SN      BR    3100  0    
2019/07/18  01:11:00  BASE  1.62288  303  2.26968  314  -2.2  100   -2.2  0     0     989.4    NA       0.0000   -SN      BR    2900  0    
2019/07/18  01:12:00  BASE  1.65228  306  2.26968  314  -2.2  100   -2.2  0     0     989.4    NA       0.0000   -SN      BR    3400  0    
2019/07/18  01:13:00  BASE  1.59348  312  2.26968  314  -2.2  100   -2.2  0     0     989.4    NA       0.0000   -SN      BR    3100  0    
2019/07/18  01:14:00  BASE  1.77576  313  2.24028  312  -2.2  100   -2.2  0     0     989.4    NA       0.0000   -SN      BR    3200  0    
2019/07/18  01:15:00  BASE  1.95804  306  2.21088  302  -2.2  100   -2.2  0     0     989.4    NA       0.0000   -SN      BR    3700  0    
2019/07/18  01:16:00  BASE  2.05212  303  2.26968  301  -2.2  100   -2.2  0     0     989.4    NA       0.0000   -SN      BR    3400  0    
2019/07/18  01:17:00  BASE  2.05212  307  2.26968  301  -2.2  100   -2.2  0     0     989.5    NA       0.0000   -SN      BR    3400  0    
2019/07/18  01:18:00  BASE  1.74048  314  2.26968  301  -2.2  100   -2.2  0     0     989.5    NA       0.0000   -SN      BR    3600  0    
2019/07/18  01:19:00  BASE  1.84044  313  2.54016  303  -2.2  100   -2.2  0     0     989.5    NA       0.0000   -SN      BR    3500  0    
2019/07/18  01:20:00  BASE  2.28144  309  2.63424  311  -2.2  100   -2.2  0     0     989.5    NA       0.0000   -SN      BR    3300  230  
2019/07/18  01:21:00  BASE  2.28144  309  2.63424  311  -2.2  100   -2.2  0     0     989.5    NA       0.0000   -SN      BR    3800  230  
2019/07/18  01:22:00  BASE  2.18736  308  2.63424  311  -2.2  100   -2.2  0     0     989.6    NA       0.0000   -SN      BR    3500  230  
2019/07/18  01:23:00  BASE  2.41668  309  2.69304  312  -2.2  100   -2.2  0     0     989.5    NA       0.0000   -SN      BR    3800  260  
2019/07/18  01:24:00  BASE  2.57544  310  2.69304  312  -2.3  100   -2.3  0     0     989.5    NA       0.0000   -SN      BR    5000  260  
2019/07/18  01:25:00  BASE  2.54016  311  2.69304  312  -2.3  100   -2.3  0     0     989.6    NA       0.0000   -SN      BR    5000  0    
2019/07/18  01:26:00  BASE  2.40492  308  2.69304  312  -2.3  100   -2.3  0     0     989.6    NA       0.0000   -SN      BR    5000  0    
2019/07/18  01:27:00  BASE  2.26968  306  2.69304  312  -2.3  100   -2.3  0     0     989.6    NA       0.0000   -SN      BR    4000  260  
2019/07/18  01:28:00  BASE  2.2932   306  2.69304  312  -2.3  100   -2.3  0     0     989.6    NA       0.0000   -SN      BR    3900  260  
2019/07/18  01:29:00  BASE  2.3226   305  2.69304  312  -2.3  100   -2.3  0     0     989.6    NA       0.0000   -SN      BR    4500  260  
2019/07/18  01:30:00  BASE  2.36964  307  2.69304  312  -2.3  100   -2.3  0     0     989.6    NA       0.0000   -SN      BR    4900  260  
2019/07/18  01:31:00  BASE  2.54016  311  3.0576   306  -2.3  100   -2.3  0     0     989.6    NA       0.0000   -SN      BR    4500  260  
2019/07/18  01:32:00  BASE  2.75772  311  3.1458   313  -2.3  100   -2.3  0     0     989.6    NA       0.0000   -SN      BR    4600  260  
2019/07/18  01:33:00  BASE  2.71068  311  3.1458   313  -2.3  100   -2.3  0     0     989.6    NA       0.0000   -SN      BR    5000  230  
2019/07/18  01:34:00  BASE  2.62836  311  3.1458   313  -2.3  100   -2.3  0     0     989.6    NA       0.0000   -SN      BR    7000  230  
2019/07/18  01:35:00  BASE  2.64012  312  3.1458   313  -2.3  100   -2.3  0     0     989.6    NA       0.0000   -SN      BR    6000  230  
2019/07/18  01:36:00  BASE  2.49312  314  3.1458   313  -2.3  100   -2.3  0     0     989.6    NA       0.0000   -SN      BR    6000  200  
2019/07/18  01:37:00  BASE  2.38728  314  3.1458   313  -2.3  100   -2.3  0     0     989.7    NA       0.0000   -SN      BR    6000  230  
2019/07/18  01:38:00  BASE  2.31084  312  3.1458   313  -2.3  100   -2.3  0     0     989.7    NA       0.0000   -SN      BR    6000  230  
2019/07/18  01:39:00  BASE  2.2344   313  3.1458   313  -2.2  100   -2.2  0     0     989.7    NA       0.0000   -SN      BR    7000  230  
2019/07/18  01:40:00  BASE  2.22264  315  3.1458   313  -2.2  100   -2.3  0     0     989.7    NA       0.0000   -SN      BR    8000  230  
2019/07/18  01:41:00  BASE  2.38728  314  3.1458   313  -2.3  100   -2.3  0     0     989.7    NA       0.0000   -SN      BR    7000  200  
2019/07/18  01:42:00  BASE  2.48136  315  2.99292  312  -2.3  100   -2.3  0     0     989.7    NA       0.0000   -SN      BR    8000  0    
2019/07/18  01:43:00  BASE  2.39316  319  2.81064  311  -2.3  100   -2.3  0     0     989.7    NA       0.0000   -SN      BR    9999  0    
2019/07/18  01:44:00  BASE  2.34024  323  2.72244  312  -2.3  100   -2.3  0     0     989.7    NA       0.0000   -SN      BR    9999  0    
2019/07/18  01:45:00  BASE  2.40492  325  2.66364  329  -2.3  100   -2.3  0     0     989.7    NA       0.0000   -SN      BR    9999  0    
2019/07/18  01:46:00  BASE  2.2932   328  2.66364  329  -2.3  100   -2.3  0     0     989.7    NA       0.0000   -SN      BR    9000  0    
2019/07/18  01:47:00  BASE  1.9698   332  2.66364  329  -2.3  100   -2.3  0     0     989.8    NA       0.0000   -SN      BR    6000  0    
2019/07/18  01:48:00  BASE  1.72284  333  2.66364  329  -2.3  100   -2.3  0     0     989.7    NA       0.0000   -SN      BR    5000  0    
2019/07/18  01:49:00  BASE  1.48176  333  2.66364  329  -2.3  100   -2.3  0     0     989.7    NA       0.0000   -SN      BR    6000  260  
2019/07/18  01:50:00  BASE  1.30536  330  2.66364  329  -2.3  100   -2.3  0     0     989.7    NA       0.0000   -SN      BR    7000  300  
2019/07/18  01:51:00  BASE  1.0878   325  2.66364  329  -2.4  100   -2.4  0     0     989.7    NA       0.0000   -SN      BR    8000  330  
2019/07/18  01:52:00  BASE  0.86436  328  2.66364  329  -2.4  100   -2.4  0     0     989.7    NA       0.0000   -SN      BR    7000  330  
2019/07/18  01:53:00  BASE  0.75264  329  2.66364  329  -2.4  100   -2.4  0     0     989.8    NA       0.0000   -SN      BR    6000  300  
2019/07/18  01:54:00  BASE  0.39984  320  2.66364  329  -2.5  100   -2.5  0     0     989.7    NA       0.0000   -SN      BR    6000  230  
2019/07/18  01:55:00  BASE  0.3528   302  2.32848  321  -2.5  100   -2.5  0     0     989.8    NA       0.0000   -SN      BR    7000  260  
2019/07/18  01:56:00  BASE  0.80556  286  1.96392  331  -2.5  100   -2.5  0     0     989.7    NA       0.0000   -SN      BR    7000  200  
2019/07/18  01:57:00  BASE  0.84672  283  1.69344  330  -2.5  100   -2.5  0     0     989.7    NA       0.0000   -SN      BR    8000  230  
2019/07/18  01:58:00  BASE  0.68208  287  1.57584  336  -2.5  100   -2.5  0     0     989.8    NA       0.0000   -SN      BR    9999  260  
2019/07/18  01:59:00  BASE  0.59976  300  1.39356  325  -2.5  100   -2.5  0     0     989.8    NA       0.0000   -SN      BR    9999  330  
2019/07/18  02:00:00  BASE  0.35868  308  1.21128  314  -2.5  100   -2.5  0     0     989.8    NA       0.0000   -SN      BR    9999  360  
2019/07/18  02:01:00  BASE  0.16464  301  1.1466   284  -2.5  100   -2.5  0     0     989.8    NA       0.0000   -SN      BR    9999  360  
2019/07/18  02:02:00  BASE  0.10584  300  1.1466   284  -2.5  100   -2.5  0     0     989.8    NA       0.0000   -SN      BR    9999  360  
2019/07/18  02:03:00  BASE  0.42924  307  1.1466   284  -2.5  100   -2.5  0     0     989.8    NA       0.0000   -SN      9999  360   0    
2019/07/18  02:04:00  BASE  0.7938   308  1.1466   284  -2.5  100   -2.5  0     0     989.8    NA       0.0000   -SN      9999  360   1640 
2019/07/18  02:05:00  BASE  0.75852  307  1.1466   284  -2.5  100   -2.5  0     0     989.8    NA       0.0000   -SN      9999  390   1570 
2019/07/18  02:06:00  BASE  0.75852  309  1.029    302  -2.5  100   -2.5  0     0     989.8    NA       0.0000   -SN      9999  390   1510 
2019/07/18  02:07:00  BASE  0.71736  313  1.029    302  -2.5  100   -2.5  0     0     989.8    NA       0.0000   -SN      9999  360   1510 
2019/07/18  02:08:00  BASE  0.75852  315  1.0584   312  -2.5  100   -2.5  0     0     989.8    NA       0.0000   -SN      9999  330   9840 
2019/07/18  02:09:00  BASE  0.71736  321  1.0584   312  -2.6  100   -2.6  0     0     989.9    NA       0.0000   -SN      9999  360   9740 
2019/07/18  02:10:00  BASE  0.4704   334  1.0584   312  -2.6  100   -2.6  0     0     989.9    NA       0.0000   -SN      9999  360   9710 
2019/07/18  02:11:00  BASE  0.42336  346  1.0584   312  -2.6  100   -2.6  0     0     989.9    NA       0.0000   -SN      9999  390   1570 
2019/07/18  02:12:00  BASE  0.55272  350  1.0584   312  -2.6  100   -2.6  0     0     989.9    NA       0.0000   -SN      9999  390   1480 
2019/07/18  02:13:00  BASE  0.77616  348  1.0584   312  -2.6  100   -2.6  0     0     990.0    NA       0.0000   -SN      9999  390   1540 
2019/07/18  02:14:00  BASE  0.91728  354  1.0878   354  -2.6  100   -2.6  0     0     990.0    NA       0.0000   -SN      9999  360   1440 
2019/07/18  02:15:00  BASE  0.95844  0    1.0878   8    -2.6  100   -2.6  0     0     990.0    NA       0.0000   9999     330   1510  0    
2019/07/18  02:16:00  BASE  0.85848  11   1.0878   8    -2.6  100   -2.6  0     0     990.1    NA       0.0000   9999     360   0     0    
2019/07/18  02:17:00  BASE  0.80556  34   1.0878   8    -2.6  100   -2.6  0     0     990.1    NA       0.0000   9999     330   1410  0    
2019/07/18  02:18:00  BASE  0.93492  48   1.0878   8    -2.6  100   -2.6  0     0     990.1    NA       0.0000   9999     330   1410  0    
2019/07/18  02:19:00  BASE  0.97608  49   1.0878   8    -2.6  100   -2.6  0     0     990.1    NA       0.0000   9999     330   0     0    
2019/07/18  02:20:00  BASE  0.99372  49   1.24068  59   -2.6  100   -2.6  0     0     990.1    NA       0.0000   9999     300   0     0    
2019/07/18  02:21:00  BASE  1.19952  56   1.81692  63   -2.6  100   -2.6  0     0     990.1    NA       0.0000   9999     360   2950  0    
2019/07/18  02:22:00  BASE  1.64052  62   1.9992   62   -2.7  100   -2.7  0     0     990.1    NA       0.0000   9999     390   3020  0    
2019/07/18  02:23:00  BASE  1.81692  62   1.9992   62   -2.8  100   -2.8  0     0     990.1    NA       0.0000   9999     360   3020  0    
2019/07/18  02:24:00  BASE  1.74048  62   1.9992   62   -2.9  100   -2.9  0     0     990.1    NA       0.0000   9999     330   0     0    
2019/07/18  02:25:00  BASE  1.7934   68   1.9992   62   -3.0  100   -3.0  0     0     990.2    NA       0.0000   9999     330   0     0    
2019/07/18  02:26:00  BASE  1.7346   69   1.9992   62   -3.1  100   -3.1  0     0     990.2    NA       0.0000   9999     330   0     0    
2019/07/18  02:27:00  BASE  1.6758   67   1.9992   62   -3.1  100   -3.1  0     0     990.2    NA       0.0000   9999     330   2990  0    
2019/07/18  02:28:00  BASE  1.77576  70   1.9992   62   -3.2  100   -3.2  0     0     990.2    NA       0.0000   9999     360   1380  0    
2019/07/18  02:29:00  BASE  1.85808  72   1.9992   62   -3.2  100   -3.2  0     0     990.2    NA       0.0000   9999     460   1410  0    
2019/07/18  02:30:00  BASE  1.75224  75   1.9992   62   -3.2  100   -3.2  0     0     990.2    NA       0.0000   9999     460   1380  0    
2019/07/18  02:31:00  BASE  1.5876   75   1.9992   62   -3.2  100   -3.2  0     0     990.2    NA       0.0000   9999     490   1280  0    
2019/07/18  02:32:00  BASE  1.323    72   1.96392  72   -3.2  100   -3.2  0     0     990.3    NA       0.0000   9999     490   1280  0    
2019/07/18  02:33:00  BASE  1.28772  66   1.96392  72   -3.2  100   -3.2  0     0     990.3    NA       0.0000   9999     2690  0     0    
2019/07/18  02:34:00  BASE  1.57584  58   1.96392  72   -3.2  100   -3.2  0     0     990.3    NA       0.0000   9999     560   2890  0    
2019/07/18  02:35:00  BASE  1.77576  53   1.96392  53   -3.2  100   -3.2  0     0     990.3    NA       0.0000   9999     1180  2890  0    
2019/07/18  02:36:00  BASE  1.8522   50   1.96392  53   -3.3  100   -3.3  0     0     990.3    NA       0.0000   9999     2920  0     0    
2019/07/18  02:37:00  BASE  1.84044  45   2.0286   47   -3.3  100   -3.3  0     0     990.3    NA       0.0000   9999     1120  2790  0    
2019/07/18  02:38:00  BASE  1.83456  45   2.0286   47   -3.4  100   -3.4  0     0     990.3    NA       0.0000   9999     2850  0     0    
2019/07/18  02:39:00  BASE  1.89924  50   2.1462   48   -3.4  100   -3.4  0     0     990.3    NA       0.0000   9999     430   2720  0    
2019/07/18  02:40:00  BASE  1.90512  52   2.1462   48   -3.5  100   -3.5  0     0     990.3    NA       0.0000   9999     2490  0     0    
2019/07/18  02:41:00  BASE  1.764    55   2.1462   48   -3.6  100   -3.6  0     0     990.3    NA       0.0000   9999     2430  0     0    
2019/07/18  02:42:00  BASE  1.7346   58   2.1462   48   -3.6  100   -3.6  0     0     990.3    NA       0.0000   9999     2330  0     0    
2019/07/18  02:43:00  BASE  1.91688  55   2.26968  45   -3.6  100   -3.6  0     0     990.3    NA       0.0000   9999     2360  0     0    
2019/07/18  02:44:00  BASE  1.96392  50   2.26968  45   -3.7  100   -3.7  0     0     990.4    NA       0.0000   9999     2330  0     0    
2019/07/18  02:45:00  BASE  1.74048  48   2.26968  45   -3.7  100   -3.7  0     0     990.4    NA       0.0000   9999     2360  0     0    
2019/07/18  02:46:00  BASE  1.62288  48   2.26968  45   -3.7  100   -3.7  0     0     990.4    NA       0.0000   9999     2230  0     0    
2019/07/18  02:47:00  BASE  1.617    48   2.26968  45   -3.7  100   -3.7  0     0     990.4    NA       0.0000   9999     2400  0     0    
2019/07/18  02:48:00  BASE  1.65816  48   2.26968  45   -3.8  100   -3.8  0     0     990.4    NA       0.0000   9999     2430  0     0    
2019/07/18  02:49:00  BASE  1.63464  43   2.26968  45   -3.8  100   -3.8  0     0     990.4    NA       0.0000   9999     2230  0     0    
2019/07/18  02:50:00  BASE  1.51704  41   2.26968  45   -3.7  100   -3.7  0     0     990.4    NA       0.0000   9999     2300  0     0    
2019/07/18  02:51:00  BASE  1.5288   47   2.26968  45   -3.7  100   -3.7  0     0     990.4    NA       0.0000   9999     2400  0     0    
2019/07/18  02:52:00  BASE  1.69344  50   2.26968  45   -3.7  100   -3.7  0     0     990.4    NA       0.0000   9999     2490  0     0    
2019/07/18  02:53:00  BASE  1.8816   52   2.1756   46   -3.6  100   -3.6  0     0     990.4    NA       0.0000   9999     2330  0     0    
2019/07/18  02:54:00  BASE  2.10504  53   2.42256  59   -3.6  100   -3.6  0     0     990.4    NA       0.0000   9999     2300  0     0    
2019/07/18  02:55:00  BASE  2.24616  58   2.45196  62   -3.6  100   -3.6  0     0     990.4    NA       0.0000   9999     2170  3220  0    
2019/07/18  02:56:00  BASE  2.3226   59   2.54016  52   -3.7  100   -3.7  0     0     990.4    NA       0.0000   9999     2260  0     0    
2019/07/18  02:57:00  BASE  2.37552  55   2.56956  57   -3.8  100   -3.8  0     0     990.4    NA       0.0000   9999     1050  2300  0    
2019/07/18  02:58:00  BASE  2.49312  55   2.87532  60   -3.8  100   -3.8  0     0     990.4    NA       0.0000   9999     1050  2200  0    
2019/07/18  02:59:00  BASE  2.32848  58   2.87532  60   -3.8  100   -3.8  0     0     990.4    NA       0.0000   9999     1050  2300  0    
2019/07/18  03:00:00  BASE  1.7934   64   2.87532  60   -3.8  100   -3.8  0     0     990.4    NA       0.0000   9999     1050  2230  0    
2019/07/18  03:01:00  BASE  1.5288   71   2.87532  60   -3.8  100   -3.8  0     0     990.4    NA       0.0000   9999     1020  2170  0    
2019/07/18  03:02:00  BASE  1.75812  83   2.87532  60   -3.7  100   -3.7  0     0     990.4    NA       0.0000   9999     2300  0     0    
2019/07/18  03:03:00  BASE  2.25204  97   2.87532  60   -3.7  100   -3.7  0     0     990.4    NA       0.0000   9999     1900  0     0    
2019/07/18  03:04:00  BASE  2.49312  103  2.87532  60   -3.7  100   -3.7  0     0     990.4    NA       0.0000   9999     1940  0     0    
2019/07/18  03:05:00  BASE  2.3226   106  2.87532  60   -3.6  100   -3.6  0     0     990.4    NA       0.0000   9999     1970  2790  0    
2019/07/18  03:06:00  BASE  2.22264  103  2.87532  60   -3.6  100   -3.6  0     0     990.4    NA       0.0000   9999     1970  0     0    
2019/07/18  03:07:00  BASE  2.24028  92   2.87532  60   -3.7  100   -3.7  0     0     990.4    NA       0.0000   9999     2070  0     0    
2019/07/18  03:08:00  BASE  2.18736  88   2.81064  105  -3.7  100   -3.7  0     0     990.4    NA       0.0000   9999     2100  0     0    
2019/07/18  03:09:00  BASE  2.28144  90   2.93412  97   -3.6  100   -3.6  0     0     990.5    NA       0.0000   9999     2170  0     0    
2019/07/18  03:10:00  BASE  2.21088  98   2.93412  97   -3.6  100   -3.6  0     0     990.5    NA       0.0000   9999     2260  0     0    
2019/07/18  03:11:00  BASE  1.79928  96   2.93412  97   -3.6  100   -3.6  0     0     990.5    NA       0.0000   9999     1900  0     0    
2019/07/18  03:12:00  BASE  1.39356  68   2.93412  97   -3.6  100   -3.6  0     0     990.5    NA       0.0000   9999     2030  0     0    
2019/07/18  03:13:00  BASE  1.1466   54   2.93412  97   -3.6  100   -3.6  0     0     990.5    NA       0.0000   9999     2100  0     0    
2019/07/18  03:14:00  BASE  1.50528  54   2.93412  97   -3.5  100   -3.5  0     0     990.5    NA       0.0000   9999     2100  0     0    
2019/07/18  03:15:00  BASE  2.26968  50   3.2046   48   -3.5  100   -3.5  0     0     990.4    NA       0.0000   9999     2070  0     0    
2019/07/18  03:16:00  BASE  2.6166   51   3.2046   48   -3.5  100   -3.5  0     0     990.4    NA       0.0000   9999     1870  0     0    
2019/07/18  03:17:00  BASE  2.62836  49   3.2046   48   -3.5  100   -3.5  0     0     990.4    NA       0.0000   9999     2000  0     0    
2019/07/18  03:18:00  BASE  2.3226   52   3.2046   48   -3.5  100   -3.5  0     0     990.4    NA       0.0000   9999     2130  0     0    
2019/07/18  03:19:00  BASE  1.75812  56   3.2046   48   -3.4  100   -3.4  0     0     990.4    NA       0.0000   9999     1770  0     0    
2019/07/18  03:20:00  BASE  1.45236  62   3.2046   48   -3.4  100   -3.4  0     0     990.4    NA       0.0000   9999     2100  0     0    
2019/07/18  03:21:00  BASE  1.47     67   3.2046   48   -3.4  100   -3.4  0     0     990.4    NA       0.0000   9999     2130  0     0    
2019/07/18  03:22:00  BASE  1.37004  54   3.2046   48   -3.4  100   -3.4  0     0     990.4    NA       0.0000   9999     0     0     0    
2019/07/18  03:23:00  BASE  1.06428  56   3.2046   48   -3.4  100   -3.4  0     0     990.4    NA       0.0000   9999     4430  0     0    
2019/07/18  03:24:00  BASE  0.91728  85   3.2046   48   -3.4  100   -3.4  0     0     990.5    NA       0.0000   9999     4560  0     0    
2019/07/18  03:25:00  BASE  1.12308  86   3.087    48   -3.5  100   -3.5  0     0     990.5    NA       0.0000   9999     0     0     0    
2019/07/18  03:26:00  BASE  1.35828  81   2.96352  57   -3.6  100   -3.6  0     0     990.5    NA       0.0000   9999     0     0     0    
2019/07/18  03:27:00  BASE  1.35828  83   2.29908  40   -3.6  100   -3.6  0     0     990.5    NA       0.0000   9999     4660  0     0    
2019/07/18  03:28:00  BASE  1.28772  83   1.96392  51   -3.7  100   -3.7  0     0     990.5    NA       0.0000   9999     2360  0     0    
2019/07/18  03:29:00  BASE  1.30536  83   1.81692  67   -3.6  100   -3.6  0     0     990.5    NA       0.0000   9999     2330  0     0    
2019/07/18  03:30:00  BASE  1.4406   76   1.90512  70   -3.6  100   -3.6  0     0     990.6    NA       0.0000   9999     0     0     0    
2019/07/18  03:31:00  BASE  1.4112   73   1.90512  70   -3.5  100   -3.5  0     0     990.6    NA       0.0000   9999     0     0     0    
2019/07/18  03:32:00  BASE  1.51116  79   2.0286   82   -3.5  100   -3.5  0     0     990.5    NA       0.0000   9999     2200  0     0    
2019/07/18  03:33:00  BASE  1.84632  77   2.1462   68   -3.5  100   -3.5  0     0     990.5    NA       0.0000   9999     2230  0     0    
2019/07/18  03:34:00  BASE  1.98744  72   2.54016  62   -3.4  100   -3.4  0     0     990.5    NA       0.0000   9999     2200  0     0    
2019/07/18  03:35:00  BASE  2.10504  71   2.59896  75   -3.4  100   -3.4  0     0     990.5    NA       0.0000   9999     2330  0     0    
2019/07/18  03:36:00  BASE  2.35788  75   2.72244  79   -3.4  100   -3.4  0     0     990.5    NA       0.0000   9999     2330  0     0    
2019/07/18  03:37:00  BASE  2.49312  79   2.75184  85   -3.4  100   -3.4  0     0     990.5    NA       0.0000   9999     2300  0     0    
2019/07/18  03:38:00  BASE  2.71068  74   3.56916  65   -3.5  100   -3.5  0     0     990.5    NA       0.0000   9999     0     0     0    
2019/07/18  03:39:00  BASE  3.06936  68   3.56916  65   -3.6  100   -3.6  0     0     990.5    NA       0.0000   9999     0     0     0    
2019/07/18  03:40:00  BASE  3.31632  67   3.81024  70   -3.6  100   -3.6  0     0     990.5    NA       0.0000   9999     0     0     0    
2019/07/18  03:41:00  BASE  3.3516   65   3.81024  70   -3.7  100   -3.7  0     0     990.5    NA       0.0000   9999     0     0     0    
2019/07/18  03:42:00  BASE  3.08112  64   3.81024  70   -3.7  100   -3.7  0     0     990.5    NA       0.0000   9999     0     0     0    
2019/07/18  03:43:00  BASE  2.69304  60   3.81024  70   -3.7  100   -3.7  0     0     990.5    NA       0.0000   9999     0     0     0    
2019/07/18  03:44:00  BASE  2.25792  60   3.81024  70   -3.6  100   -3.7  0     0     990.5    NA       0.0000   9999     0     0     0    
2019/07/18  03:45:00  BASE  2.0874   63   3.81024  70   -3.6  99    -3.7  0     0     990.5    NA       0.0000   9999     0     0     0    
2019/07/18  03:46:00  BASE  2.14032  66   3.81024  70   -3.6  99    -3.7  0     0     990.5    NA       0.0000   9999     0     0     0    
2019/07/18  03:47:00  BASE  2.24616  74   3.81024  70   -3.6  99    -3.8  0     0     990.6    NA       0.0000   9999     2560  0     0    
2019/07/18  03:48:00  BASE  2.24028  79   3.81024  70   -3.5  98    -3.8  0     0     990.6    NA       0.0000   9999     0     0     0    
2019/07/18  03:49:00  BASE  2.12268  73   3.81024  70   -3.5  98    -3.8  0     0     990.7    NA       0.0000   9999     0     0     0    
2019/07/18  03:50:00  BASE  1.92276  71   3.75144  66   -3.4  98    -3.7  0     0     990.7    NA       0.0000   9999     0     0     0    
2019/07/18  03:51:00  BASE  1.75812  73   3.75144  66   -3.3  98    -3.6  0     0     990.7    NA       0.0000   9999     0     0     0    
2019/07/18  03:52:00  BASE  2.16384  71   3.1458   57   -3.3  98    -3.6  0     0     990.7    NA       0.0000   9999     2560  0     0    
2019/07/18  03:53:00  BASE  2.6754   78   3.53976  103  -3.2  98    -3.5  0     0     990.7    NA       0.0000   9999     2560  0     0    
2019/07/18  03:54:00  BASE  2.37552  80   3.53976  103  -3.2  98    -3.4  0     0     990.7    NA       0.0000   9999     2530  0     0    
2019/07/18  03:55:00  BASE  2.25792  95   3.53976  103  -3.3  99    -3.5  0     0     990.7    NA       0.0000   9999     2530  0     0    
2019/07/18  03:56:00  BASE  2.52252  108  3.53976  103  -3.3  99    -3.5  0     0     990.7    NA       0.0000   9999     2530  0     0    
2019/07/18  03:57:00  BASE  2.39904  106  3.53976  103  -3.3  99    -3.4  0     0     990.7    NA       0.0000   9999     2490  0     0    
2019/07/18  03:58:00  BASE  2.352    110  3.53976  103  -3.3  100   -3.4  0     0     990.7    NA       0.0000   9999     2530  0     0    
2019/07/18  03:59:00  BASE  2.29908  108  3.53976  103  -3.4  100   -3.4  0     0     990.7    NA       0.0000   9999     2490  0     0    
2019/07/18  04:00:00  BASE  2.28732  98   3.53976  103  -3.3  100   -3.3  0     0     990.7    NA       0.0000   9999     2460  0     0    
2019/07/18  04:01:00  BASE  2.8224   97   3.53976  103  -3.2  100   -3.2  0     0     990.7    NA       0.0000   9999     2490  0     0    
2019/07/18  04:02:00  BASE  3.45156  100  3.81024  103  -3.3  100   -3.3  0     0     990.7    NA       0.0000   9999     2560  0     0    
2019/07/18  04:03:00  BASE  3.60444  102  3.81024  103  -3.4  100   -3.4  0     0     990.7    NA       0.0000   9999     2460  0     0    
2019/07/18  04:05:00  BASE  3.49272  107  3.81024  103  -3.5  100   -3.5  0     0     990.7    NA       0.0000   9999     2490  0     0    
2019/07/18  04:06:00  BASE  3.48684  112  3.81024  103  -3.7  100   -3.7  0     0     990.7    NA       0.0000   9999     2560  0     0    
2019/07/18  04:07:00  BASE  3.47508  113  3.81024  103  -3.9  100   -3.9  0     0     990.7    NA       0.0000   9999     2430  0     0    
2019/07/18  04:08:00  BASE  3.59268  113  3.93372  113  -4.0  100   -4.0  0     0     990.7    NA       0.0000   9999     2590  0     0    
2019/07/18  04:09:00  BASE  3.9102   115  4.1454   117  -4.0  100   -4.0  0     0     990.7    NA       0.0000   9999     2590  0     0    
2019/07/18  04:10:00  BASE  4.03368  116  4.1748   119  -3.9  100   -3.9  0     0     990.7    NA       0.0000   9999     2560  0     0    
2019/07/18  04:11:00  BASE  4.0278   117  4.2336   118  -3.8  100   -3.8  0     0     990.7    NA       0.0000   9999     2460  0     0    
2019/07/18  04:12:00  BASE  4.00428  116  4.2336   118  -3.8  100   -3.8  0     0     990.5    NA       0.0000   9999     2400  0     0    
2019/07/18  04:13:00  BASE  4.06896  115  4.41588  115  -3.8  100   -3.8  0     0     990.5    NA       0.0000   9999     2360  0     0    
2019/07/18  04:14:00  BASE  4.36884  114  4.83924  116  -3.8  100   -3.8  0     0     990.5    NA       0.0000   9999     2460  0     0    
2019/07/18  04:15:00  BASE  4.68636  114  4.89804  116  -3.8  100   -3.8  0     0     990.5    NA       0.0000   9999     2430  0     0    
2019/07/18  04:16:00  BASE  4.69224  116  4.89804  116  -3.8  100   -3.8  0     0     990.5    NA       0.0000   9999     2330  0     0    
2019/07/18  04:17:00  BASE  4.6158   118  4.96272  121  -3.7  100   -3.7  0     0     990.5    NA       0.0000   9999     2430  0     0    
2019/07/18  04:18:00  BASE  4.69812  118  4.99212  117  -3.6  100   -3.6  0     0     990.5    NA       0.0000   9999     2330  0     0    
2019/07/18  04:19:00  BASE  4.73928  117  5.05092  117  -3.4  100   -3.4  0     0     990.4    NA       0.0000   9999     2330  0     0    
2019/07/18  04:20:00  BASE  4.71576  117  5.05092  117  -3.3  100   -3.3  0     0     990.5    NA       0.0000   9999     2330  0     0    
2019/07/18  04:21:00  BASE  4.6158   118  5.05092  117  -3.1  100   -3.1  0     0     990.5    NA       0.0000   9999     0     0     0    
2019/07/18  04:22:00  BASE  4.40412  120  5.05092  117  -3.1  100   -3.1  0     0     990.5    NA       0.0000   9999     0     0     0    
2019/07/18  04:23:00  BASE  4.1454   120  5.05092  117  -3.1  100   -3.1  0     0     990.5    NA       0.0000   9999     0     0     0    
2019/07/18  04:24:00  BASE  4.0572   120  5.05092  117  -3.1  100   -3.1  0     0     990.5    NA       0.0000   9999     0     0     0    
2019/07/18  04:25:00  BASE  4.09836  120  5.05092  117  -3.1  100   -3.1  0     0     990.5    NA       0.0000   9999     0     0     0    
2019/07/18  04:26:00  BASE  4.12188  119  5.05092  117  -3.2  100   -3.2  0     0     990.5    NA       0.0000   9999     0     0     0    
2019/07/18  04:27:00  BASE  4.2336   119  5.05092  117  -3.3  100   -3.3  0     0     990.5    NA       0.0000   9999     0     0     0    
2019/07/18  04:28:00  BASE  4.13364  119  5.05092  117  -3.3  100   -3.3  0     0     990.5    NA       0.0000   9999     0     0     0    
2019/07/18  04:29:00  BASE  3.89844  119  4.99212  118  -3.4  100   -3.4  0     0     990.5    NA       0.0000   9999     0     0     0    
2019/07/18  04:30:00  BASE  3.8808   120  4.78044  119  -3.4  100   -3.4  0     0     990.5    NA       0.0000   9999     0     0     0    
2019/07/18  04:31:00  BASE  4.02192  122  4.56876  121  -3.5  100   -3.5  0     0     990.5    NA       0.0000   9999     0     0     0    
2019/07/18  04:32:00  BASE  4.27476  120  4.83924  126  -3.4  100   -3.4  0     0     990.6    NA       0.0000   9999     0     0     0    
2019/07/18  04:33:00  BASE  4.7922   114  5.74476  105  -3.4  100   -3.4  0     0     990.7    NA       0.0000   9999     0     0     0    
2019/07/18  04:34:00  BASE  5.4684   107  6.16812  104  -3.4  100   -3.4  0     0     990.7    NA       0.0000   9999     0     0     0    
2019/07/18  04:35:00  BASE  5.74476  100  6.16812  104  -3.5  100   -3.5  0     0     990.7    NA       0.0000   9999     2690  0     0    
2019/07/18  04:36:00  BASE  5.7036   100  6.16812  104  -3.4  100   -3.4  0     0     990.7    NA       0.0000   9999     2660  0     0    
2019/07/18  04:37:00  BASE  5.78004  103  6.16812  104  -3.5  100   -3.5  0     0     990.7    NA       0.0000   9999     2720  0     0    
2019/07/18  04:38:00  BASE  5.9976   103  6.3504   106  -3.6  100   -3.6  0     0     990.7    NA       0.0000   9999     0     0     0    
2019/07/18  04:39:00  BASE  6.1152   105  6.3798   106  -3.7  100   -3.7  0     0     990.7    NA       0.0000   9999     0     0     0    
2019/07/18  04:40:00  BASE  6.0858   106  6.3798   106  -3.7  100   -3.7  0     0     990.7    NA       0.0000   9999     0     0     0    
2019/07/18  04:41:00  BASE  5.99172  107  6.3798   106  -3.7  100   -3.7  0     0     990.7    NA       0.0000   9999     2790  0     0    
2019/07/18  04:42:00  BASE  5.9094   108  6.3798   106  -3.7  100   -3.7  0     0     990.6    NA       0.0000   9999     2790  0     0    
2019/07/18  04:43:00  BASE  5.71536  111  6.3798   106  -3.6  100   -3.6  0     0     990.6    NA       0.0000   9999     2790  0     0    
2019/07/18  04:44:00  BASE  5.4978   112  6.3798   106  -3.5  100   -3.6  0     0     990.6    NA       0.0000   9999     2690  0     0    
2019/07/18  04:45:00  BASE  5.3802   111  6.3798   106  -3.5  100   -3.5  0     0     990.6    NA       0.0000   9999     2690  0     0    
2019/07/18  04:46:00  BASE  5.33316  112  6.3798   106  -3.5  100   -3.5  0     0     990.6    NA       0.0000   9999     2620  0     0    
2019/07/18  04:47:00  BASE  5.32728  114  6.3798   106  -3.5  100   -3.5  0     0     990.6    NA       0.0000   9999     2760  0     0    
2019/07/18  04:48:00  BASE  5.21556  114  6.3798   106  -3.4  100   -3.4  0     0     990.6    NA       0.0000   9999     0     0     0    
2019/07/18  04:49:00  BASE  4.998    115  6.321    107  -3.3  100   -3.3  0     0     990.6    NA       0.0000   9999     0     0     0    
2019/07/18  04:50:00  BASE  4.95684  116  6.2622   107  -3.3  100   -3.3  0     0     990.5    NA       0.0000   9999     0     0     0    
2019/07/18  04:51:00  BASE  4.88628  117  6.2622   107  -3.2  100   -3.2  0     0     990.5    NA       0.0000   9999     0     0     0    
2019/07/18  04:52:00  BASE  4.74516  118  5.80944  112  -3.2  100   -3.2  0     0     990.5    NA       0.0000   9999     2790  0     0    
2019/07/18  04:53:00  BASE  4.71576  119  5.78004  110  -3.1  100   -3.1  0     0     990.5    NA       0.0000   9999     0     0     0    
2019/07/18  04:54:00  BASE  4.6746   120  5.71536  114  -3.0  100   -3.0  0     0     990.5    NA       0.0000   9999     0     0     0    
2019/07/18  04:55:00  BASE  4.59228  119  5.71536  114  -2.8  100   -2.8  0     0     990.5    NA       0.0000   9999     0     0     0    
2019/07/18  04:56:00  BASE  4.6452   118  5.59776  116  -2.7  100   -2.7  0     0     990.5    NA       0.0000   9999     0     0     0    
2019/07/18  04:57:00  BASE  4.63344  117  5.35668  115  -2.6  100   -2.6  0     0     990.5    NA       0.0000   9999     0     0     0    
2019/07/18  04:58:00  BASE  4.39824  119  5.3214   116  -2.6  100   -2.6  0     0     990.6    NA       0.0000   9999     0     0     0    
2019/07/18  04:59:00  BASE  4.08072  121  5.3214   116  -2.6  100   -2.6  0     0     990.7    NA       0.0000   9999     0     0     0    
2019/07/18  05:00:00  BASE  3.8514   123  4.99212  121  -2.7  100   -2.7  0     0     990.7    NA       0.0000   9999     0     0     0    
2019/07/18  05:01:00  BASE  3.72204  124  4.99212  121  -2.8  100   -2.8  0     0     990.7    NA       0.0000   9999     0     0     0    
2019/07/18  05:02:00  BASE  3.52212  125  4.93332  117  -2.8  100   -2.8  0     0     990.7    NA       0.0000   9999     0     0     0    
2019/07/18  05:03:00  BASE  3.33984  125  4.89804  119  -2.8  100   -2.8  0     0     990.7    NA       0.0000   9999     0     0     0    
2019/07/18  05:04:01  BASE  3.09876  128  4.89804  119  -2.7  100   -2.7  0     0     990.7    NA       0.0000   9999     0     0     0    
2019/07/18  05:05:00  BASE  2.72832  132  4.89804  119  -2.7  100   -2.7  0     0     990.8    NA       0.0000   9999     0     0     0    
2019/07/18  05:06:00  BASE  2.03448  131  4.78044  120  -2.8  100   -2.8  0     0     990.8    NA       0.0000   9999     0     0     0    
2019/07/18  05:07:00  BASE  0.95256  166  4.44528  121  -3.1  100   -3.1  0     0     990.8    NA       0.0000   9999     0     0     0    
2019/07/18  05:08:00  BASE  0.68796  254  4.263    116  -3.3  100   -3.3  0     0     990.9    NA       0.0000   9999     0     0     0    
2019/07/18  05:09:00  BASE  1.54644  292  4.02192  124  -3.6  100   -3.6  0     0     990.9    NA       0.0000   9999     0     0     0    
2019/07/18  05:10:00  BASE  2.24028  311  3.96312  127  -3.8  100   -3.8  0     0     990.9    NA       0.0000   9999     0     0     0    
2019/07/18  05:11:00  BASE  2.499    320  3.78084  129  -4.0  100   -4.0  0     0     990.9    NA       0.0000   9999     0     0     0    
2019/07/18  05:12:00  BASE  2.54604  326  3.53976  128  -3.9  100   -3.9  0     0     990.9    NA       0.0000   9999     0     0     0    
2019/07/18  05:13:00  BASE  2.205    334  3.35748  129  -3.9  100   -3.9  0     0     990.9    NA       0.0000   9999     0     0     0    
2019/07/18  05:14:00  BASE  1.78752  343  2.90472  130  -3.8  100   -3.8  0     0     990.9    NA       0.0000   9999     0     0     0    
2019/07/18  05:15:00  BASE  1.64052  344  2.81064  323  -3.8  100   -3.8  0     0     990.9    NA       0.0000   9999     0     0     0    
2019/07/18  05:16:00  BASE  1.81104  342  2.81064  323  -3.7  100   -3.7  0     0     990.9    NA       0.0000   9999     0     0     0    
2019/07/18  05:17:00  BASE  1.9992   342  2.81064  323  -3.6  100   -3.6  0     0     990.9    NA       0.0000   9999     0     0     0    
2019/07/18  05:18:00  BASE  2.31672  345  2.96352  360  -3.6  100   -3.6  0     0     990.9    NA       0.0000   9999     0     0     0    
2019/07/18  05:19:00  BASE  2.69304  353  3.26928  354  -3.6  99    -3.7  0     0     990.9    NA       0.0000   9999     0     0     0    
2019/07/18  05:20:00  BASE  2.74596  4    3.26928  354  -3.7  99    -3.8  0     0     990.9    NA       0.0000   9999     0     0     0    
2019/07/18  05:21:00  BASE  2.75184  17   3.26928  354  -3.7  99    -3.9  0     0     990.9    NA       0.0000   9999     0     0     0    
2019/07/18  05:22:00  BASE  2.58132  26   3.26928  354  -3.8  98    -4.0  0     0     991.0    NA       0.0000   9999     3050  0     0    
2019/07/18  05:23:00  BASE  2.36376  28   3.26928  354  -3.8  98    -4.1  0     0     991.0    NA       0.0000   9999     3020  0     0    
2019/07/18  05:24:00  BASE  2.38728  28   3.26928  354  -3.8  97    -4.2  0     0     991.0    NA       0.0000   9999     2950  0     0    
2019/07/18  05:25:00  BASE  2.36964  22   3.26928  354  -3.8  97    -4.3  0     0     991.0    NA       0.0000   9999     2950  0     0    
2019/07/18  05:26:00  BASE  2.28144  10   3.26928  354  -3.8  96    -4.4  0     0     991.0    NA       0.0000   9999     2990  0     0    
2019/07/18  05:27:00  BASE  2.04036  10   3.26928  354  -3.9  96    -4.5  0     0     991.0    NA       0.0000   9999     3020  0     0    
2019/07/18  05:28:00  BASE  1.75224  29   3.26928  354  -3.9  95    -4.6  0     0     991.0    NA       0.0000   9999     2990  0     0    
2019/07/18  05:29:00  BASE  1.16424  37   3.1752   14   -3.9  94    -4.7  0     0     991.0    NA       0.0000   9999     2850  0     0    
2019/07/18  05:30:00  BASE  0.89376  25   3.1752   14   -3.9  94    -4.7  0     0     991.0    NA       0.0000   9999     2820  0     0    
2019/07/18  05:31:00  BASE  1.22892  9    2.69304  29   -3.9  93    -4.8  0     0     991.0    NA       0.0000   9999     2760  0     0    
2019/07/18  05:32:00  BASE  1.62288  5    2.69304  29   -3.8  93    -4.7  0     0     991.0    NA       0.0000   9999     2760  0     0    
2019/07/18  05:33:00  BASE  2.41668  8    3.44568  16   -3.7  93    -4.6  0     0     991.0    NA       0.0000   9999     2850  0     0    
2019/07/18  05:34:00  BASE  2.34612  14   3.44568  16   -3.6  92    -4.6  0     0     991.1    NA       0.0000   9999     2920  3540  0    
2019/07/18  05:35:00  BASE  1.92864  24   3.44568  16   -3.5  92    -4.6  0     0     991.2    NA       0.0000   9999     2990  3510  0    
2019/07/18  05:36:00  BASE  2.18148  18   3.81024  1    -3.4  91    -4.7  0     0     991.2    NA       0.0000   9999     2990  0     0    
2019/07/18  05:37:00  BASE  3.28104  356  4.86864  340  -3.4  91    -4.7  0     0     991.1    NA       0.0000   9999     2920  0     0    
2019/07/18  05:38:00  BASE  3.94548  346  4.86864  340  -3.4  90    -4.7  0     0     991.1    NA       0.0000   9999     2950  0     0    
2019/07/18  05:39:00  BASE  3.30456  347  4.86864  340  -3.3  90    -4.7  0     0     991.1    NA       0.0000   9999     2950  0     0    
2019/07/18  05:40:00  BASE  3.2634   357  4.86864  340  -3.2  90    -4.6  0     0     991.1    NA       0.0000   9999     2920  0     0    
2019/07/18  05:41:00  BASE  3.81024  7    5.02152  360  -3.1  90    -4.5  0     0     991.0    NA       0.0000   9999     2850  0     0    
2019/07/18  05:42:00  BASE  4.3512   5    5.35668  360  -2.9  90    -4.3  0     0     991.0    NA       0.0000   9999     2790  0     0    
2019/07/18  05:43:00  BASE  4.69812  357  5.59776  351  -2.8  90    -4.2  0     0     991.0    NA       0.0000   9999     2790  0     0    
2019/07/18  05:44:00  BASE  5.12736  353  6.2034   352  -2.7  91    -4.1  0     0     991.0    NA       0.0000   9999     2720  0     0    
2019/07/18  05:45:00  BASE  5.4096   355  6.2034   352  -2.7  91    -4.0  0     0     991.0    NA       0.0000   9999     2820  0     0    
2019/07/18  05:46:00  BASE  5.4684   354  6.2034   352  -2.7  91    -3.9  0     0     991.0    NA       0.0000   9999     2760  0     0    
2019/07/18  05:47:00  BASE  5.58012  357  6.321    2    -2.7  91    -4.0  0     0     991.0    NA       0.0000   9999     2720  0     0    
2019/07/18  05:48:00  BASE  4.90392  355  6.321    2    -2.8  91    -4.0  0     0     991.0    NA       0.0000   9999     2560  0     0    
2019/07/18  05:49:00  BASE  4.01604  348  6.321    2    -2.8  91    -4.1  0     0     991.0    NA       0.0000   9999     2460  0     0    
2019/07/18  05:50:00  BASE  3.79848  346  6.321    2    -2.8  91    -4.1  0     0     991.0    NA       0.0000   9999     2460  0     0    
2019/07/18  05:51:00  BASE  3.90432  342  6.321    2    -2.8  91    -4.1  0     0     991.0    NA       0.0000   9999     2330  0     0    
2019/07/18  05:52:00  BASE  3.75144  337  6.321    2    -2.7  91    -4.0  0     0     991.0    NA       0.0000   9999     2590  0     0    
2019/07/18  05:53:00  BASE  3.40452  330  6.321    2    -2.6  91    -4.0  0     0     991.0    NA       0.0000   9999     2460  0     0    
2019/07/18  05:54:00  BASE  3.26928  326  6.321    2    -2.6  90    -4.0  0     0     991.0    NA       0.0000   9999     2100  0     0    
2019/07/18  05:55:00  BASE  3.72204  335  6.321    2    -2.6  90    -3.9  0     0     991.0    NA       0.0000   9999     2330  0     0    
2019/07/18  05:56:00  BASE  4.33356  342  6.321    2    -2.6  90    -3.9  0     0     991.0    NA       0.0000   9999     2360  0     0    
2019/07/18  05:57:00  BASE  4.1748   344  4.72164  341  -2.6  90    -3.9  0     0     991.0    NA       0.0000   9999     2170  0     0    
2019/07/18  05:58:00  BASE  3.78084  352  4.89804  14   -2.5  91    -3.9  0     0     991.0    NA       0.0000   9999     2170  0     0    
2019/07/18  05:59:00  BASE  4.30416  8    5.3214   16   -2.5  91    -3.8  0     0     991.0    NA       0.0000   9999     2130  0     0    
2019/07/18  06:00:00  BASE  5.10384  5    6.16812  3    -2.5  92    -3.6  0     0     991.0    NA       0.0000   9999     2030  0     0    
2019/07/18  06:01:00  BASE  5.51544  357  7.59108  3    -2.4  92    -3.5  0     0     991.0    NA       0.0000   9999     2230  0     0    
2019/07/18  06:02:00  BASE  5.46252  354  7.59108  3    -2.4  92    -3.5  0     0     991.1    NA       0.0000   9999     2170  0     0    
2019/07/18  06:03:00  BASE  4.34532  350  7.59108  3    -2.4  93    -3.4  0     0     991.1    NA       0.0000   9999     2000  0     0    
2019/07/18  06:04:00  BASE  3.42804  357  7.59108  3    -2.4  93    -3.4  0     0     991.1    NA       0.0000   9999     950   0     0    
2019/07/18  06:05:00  BASE  4.77456  4    7.59108  3    -2.4  94    -3.3  0     0     991.0    NA       0.0000   9999     1080  0     0    
2019/07/18  06:06:00  BASE  7.1148   8    8.4084   15   -2.5  94    -3.3  0     0     991.0    NA       0.0000   9999     890   0     0    
2019/07/18  06:07:00  BASE  7.44996  9    8.4084   15   -2.5  94    -3.3  0     0     991.0    NA       0.0000   9999     1080  0     0    
2019/07/18  06:08:00  BASE  7.03248  12   8.4084   15   -2.5  94    -3.3  0     0     991.0    NA       0.0000   9999     1150  0     0    
2019/07/18  06:09:00  BASE  7.30884  3    8.53188  348  -2.5  94    -3.3  0     0     991.0    NA       0.0000   9999     2130  0     0    
2019/07/18  06:10:00  BASE  7.60872  351  9.31392  360  -2.5  94    -3.3  0     0     991.0    NA       0.0000   9999     1440  0     0    
2019/07/18  06:11:00  BASE  7.22064  359  9.31392  360  -2.6  94    -3.4  0     0     991.0    NA       0.0000   9999     1670  0     0    
2019/07/18  06:12:00  BASE  6.60324  15   9.31392  360  -2.6  94    -3.4  0     0     991.1    NA       0.0000   9999     1380  0     0    
2019/07/18  06:13:00  BASE  6.22104  22   9.31392  360  -2.6  94    -3.4  0     0     991.1    NA       0.0000   9999     1410  0     0    
2019/07/18  06:14:00  BASE  5.56836  7    9.31392  360  -2.6  94    -3.4  0     0     991.2    NA       0.0000   9999     1770  0     0    
2019/07/18  06:15:00  BASE  4.83924  349  9.31392  360  -2.6  94    -3.4  0     0     991.1    NA       0.0000   9999     1610  0     0    
2019/07/18  06:16:00  BASE  3.92196  352  9.31392  360  -2.6  94    -3.4  0     0     991.1    NA       0.0000   9999     1770  0     0    
2019/07/18  06:17:00  BASE  3.21636  20   9.31392  360  -2.7  95    -3.4  0     0     991.1    NA       0.0000   9999     1770  0     0    
2019/07/18  06:18:00  BASE  3.47508  37   9.31392  360  -2.7  95    -3.4  0     0     991.1    NA       0.0000   9999     2590  0     0    
2019/07/18  06:19:00  BASE  4.12188  39   9.31392  360  -2.6  95    -3.3  0     0     991.0    NA       0.0000   9999     2460  0     0    
2019/07/18  06:20:00  BASE  4.56876  38   7.68516  25   -2.5  95    -3.2  0     0     991.0    NA       0.0000   9999     2330  0     0    
2019/07/18  06:21:00  BASE  5.04504  32   7.68516  25   -2.5  95    -3.2  0     0     991.0    NA       0.0000   9999     2620  0     0    
2019/07/18  06:22:00  BASE  5.37432  35   7.2324   23   -2.4  95    -3.1  0     0     991.0    NA       0.0000   9999     2200  0     0    
2019/07/18  06:23:00  BASE  5.95056  40   6.92664  36   -2.4  95    -3.1  0     0     991.0    NA       0.0000   9999     1770  0     0    
2019/07/18  06:24:00  BASE  6.2328   40   6.92664  36   -2.4  95    -3.1  0     0     991.0    NA       0.0000   9999     1770  0     0    
2019/07/18  06:25:00  BASE  6.13284  38   6.95604  35   -2.5  95    -3.2  0     0     991.0    NA       0.0000   9999     2000  0     0    
2019/07/18  06:26:00  BASE  6.65028  38   7.68516  39   -2.5  95    -3.2  0     0     991.0    NA       0.0000   9999     1610  0     0    
2019/07/18  06:27:00  BASE  6.8208   40   7.68516  39   -2.5  94    -3.3  0     0     991.0    NA       0.0000   9999     2200  0     0    
2019/07/18  06:28:00  BASE  6.56796  35   7.68516  39   -2.6  94    -3.4  0     0     991.0    NA       0.0000   9999     2430  0     0    
2019/07/18  06:29:00  BASE  5.9682   33   7.68516  39   -2.6  94    -3.5  0     0     991.0    NA       0.0000   9999     2330  0     0    
2019/07/18  06:30:00  BASE  5.73888  36   7.68516  39   -2.6  93    -3.5  0     0     990.9    NA       0.0000   9999     2490  0     0    
2019/07/18  06:31:00  BASE  5.62128  42   7.68516  39   -2.6  93    -3.5  0     0     991.0    NA       0.0000   9999     2360  0     0    
2019/07/18  06:32:00  BASE  5.71536  43   7.68516  39   -2.6  93    -3.5  0     0     990.9    NA       0.0000   9999     2200  0     0    
2019/07/18  06:33:00  BASE  6.03876  41   7.68516  39   -2.6  93    -3.6  0     0     991.0    NA       0.0000   9999     2560  0     0    
2019/07/18  06:34:00  BASE  5.55072  42   7.68516  39   -2.5  93    -3.5  0     0     990.9    NA       0.0000   9999     2620  0     0    
2019/07/18  06:35:00  BASE  4.6452   41   7.68516  39   -2.5  93    -3.5  0     0     991.0    NA       0.0000   9999     2660  0     0    
2019/07/18  06:36:00  BASE  4.31004  44   7.65576  23   -2.4  92    -3.5  0     0     991.0    NA       0.0000   9999     2720  0     0    
2019/07/18  06:37:00  BASE  4.60404  45   7.65576  23   -2.5  92    -3.6  0     0     991.0    NA       0.0000   9999     2760  0     0    
2019/07/18  06:38:00  BASE  5.30964  42   7.65576  23   -2.4  91    -3.6  0     0     991.0    NA       0.0000   9999     2560  0     0    
2019/07/18  06:39:00  BASE  6.10344  41   7.65576  23   -2.5  91    -3.7  0     0     990.9    NA       0.0000   9999     2720  0     0    
2019/07/18  06:40:00  BASE  5.98584  47   7.2912   29   -2.5  91    -3.8  0     0     990.9    NA       0.0000   9999     2760  0     0    
2019/07/18  06:41:00  BASE  6.17988  48   7.2912   29   -2.5  91    -3.8  0     0     991.0    NA       0.0000   9999     2850  0     0    
2019/07/18  06:42:00  BASE  6.43272  41   7.07952  73   -2.4  91    -3.7  0     0     990.9    NA       0.0000   9999     2890  0     0    
2019/07/18  06:43:00  BASE  6.5268   41   8.4084   34   -2.4  91    -3.7  0     0     990.9    NA       0.0000   9999     2890  0     0    
2019/07/18  06:44:00  BASE  6.03288  45   8.4084   34   -2.4  91    -3.6  0     0     991.0    NA       0.0000   9999     2950  0     0    
2019/07/18  06:45:00  BASE  6.321    50   8.80236  60   -2.3  91    -3.6  0     0     990.8    NA       0.0000   9999     3020  0     0    
2019/07/18  06:46:00  BASE  7.57344  50   8.92584  45   -2.3  91    -3.6  0     0     990.8    NA       0.0000   9999     3050  0     0    
2019/07/18  06:47:00  BASE  7.07952  47   8.92584  45   -2.3  90    -3.7  0     0     990.9    NA       0.0000   9999     2950  0     0    
2019/07/18  06:48:00  BASE  6.07992  49   8.92584  45   -2.3  90    -3.7  0     0     990.9    NA       0.0000   9999     2950  0     0    
2019/07/18  06:49:00  BASE  5.5272   55   8.92584  45   -2.3  90    -3.7  0     0     990.8    NA       0.0000   9999     2990  0     0    
2019/07/18  06:50:00  BASE  5.62128  58   8.92584  45   -2.3  90    -3.8  0     0     990.8    NA       0.0000   9999     2890  0     0    
2019/07/18  06:51:00  BASE  5.74476  61   8.92584  45   -2.3  89    -3.8  0     0     990.8    NA       0.0000   9999     2990  0     0    
2019/07/18  06:52:00  BASE  5.29788  61   8.92584  45   -2.3  89    -3.9  0     0     990.8    NA       0.0000   9999     3020  0     0    
2019/07/18  06:53:00  BASE  5.4684   59   8.92584  45   -2.4  89    -4.0  0     0     990.8    NA       0.0000   9999     2890  0     0    
2019/07/18  06:54:00  BASE  6.07992  59   8.92584  45   -2.4  89    -4.0  0     0     990.8    NA       0.0000   9999     2820  0     0    
2019/07/18  06:55:00  BASE  6.66792  55   8.92584  45   -2.5  89    -4.0  0     0     990.7    NA       0.0000   9999     2790  0     0    
2019/07/18  06:56:00  BASE  7.03836  52   8.25552  49   -2.5  89    -4.0  0     0     990.7    NA       0.0000   9999     2790  0     0    
2019/07/18  06:57:00  BASE  6.60324  54   8.25552  49   -2.5  89    -4.0  0     0     990.8    NA       0.0000   9999     2850  0     0    
2019/07/18  06:58:00  BASE  5.88588  57   8.25552  49   -2.5  89    -4.0  0     0     990.8    NA       0.0000   9999     2920  0     0    
2019/07/18  06:59:00  BASE  5.46252  58   8.25552  49   -2.5  89    -4.1  0     0     990.8    NA       0.0000   9999     2950  0     0    
2019/07/18  07:00:00  BASE  5.16852  63   8.25552  49   -2.5  89    -4.1  0     0     990.8    NA       0.0000   9999     2950  0     0    
2019/07/18  07:01:00  BASE  4.45704  71   8.25552  49   -2.6  89    -4.2  0     0     990.9    NA       0.0000   9999     2990  0     0    
2019/07/18  07:02:00  BASE  3.969    80   8.25552  49   -2.6  89    -4.3  0     0     990.9    NA       0.0000   9999     3080  0     0    
2019/07/18  07:03:00  BASE  3.75732  82   8.25552  49   -2.7  88    -4.4  0     0     990.9    NA       0.0000   9999     3220  0     0    
2019/07/18  07:04:00  BASE  3.528    78   8.25552  49   -2.8  88    -4.5  0     0     990.9    NA       0.0000   9999     3050  0     0    
2019/07/18  07:05:00  BASE  3.93372  93   8.25552  49   -2.9  88    -4.6  0     0     990.9    NA       0.0000   9999     3220  0     0    
2019/07/18  07:06:00  BASE  4.00428  124  7.80276  54   -2.9  88    -4.6  0     0     990.9    NA       0.0000   9999     3250  0     0    
2019/07/18  07:07:00  BASE  3.92784  147  7.05012  57   -2.9  88    -4.6  0     0     991.0    NA       0.0000   9999     3310  0     0    
2019/07/18  07:08:00  BASE  3.84552  152  6.13872  56   -2.9  88    -4.6  0     0     991.0    NA       0.0000   9999     3250  0     0    
2019/07/18  07:09:00  BASE  3.12816  149  6.13872  56   -3.0  88    -4.7  0     0     991.0    NA       0.0000   9999     3410  0     0    
2019/07/18  07:10:00  BASE  2.24616  139  5.50368  107  -3.0  89    -4.6  0     0     991.0    NA       0.0000   9999     0     0     0    
2019/07/18  07:11:00  BASE  2.1756   131  5.50368  107  -3.2  89    -4.7  0     0     991.0    NA       0.0000   9999     0     0     0    
2019/07/18  07:12:00  BASE  2.058    141  5.50368  107  -3.3  90    -4.7  0     0     991.0    NA       0.0000   9999     0     0     0    
2019/07/18  07:13:00  BASE  1.1172   144  5.50368  107  -3.4  90    -4.7  0     0     990.9    NA       0.0000   9999     0     0     0    
2019/07/18  07:14:00  BASE  0.7938   126  5.50368  107  -3.4  91    -4.7  0     0     990.9    NA       0.0000   9999     0     0     0    
2019/07/18  07:15:00  BASE  1.39944  111  4.41588  150  -3.4  90    -4.8  0     0     991.0    NA       0.0000   9999     0     0     0    
2019/07/18  07:16:00  BASE  2.793    89   5.10972  85   -3.4  90    -4.7  0     0     991.0    NA       0.0000   9999     3050  0     0    
2019/07/18  07:17:00  BASE  4.13364  79   5.1744   77   -3.2  90    -4.7  0     0     991.0    NA       0.0000   9999     3020  0     0    
2019/07/18  07:18:00  BASE  3.71616  89   5.1744   77   -3.2  89    -4.7  0     0     991.0    NA       0.0000   9999     0     0     0    
2019/07/18  07:19:00  BASE  2.75184  98   5.1744   77   -3.1  88    -4.8  0     0     991.0    NA       0.0000   9999     3050  0     0    
2019/07/18  07:20:00  BASE  2.32848  102  5.1744   77   -3.1  88    -4.8  0     0     991.0    NA       0.0000   9999     2990  0     0    
2019/07/18  07:21:00  BASE  2.19324  109  5.1744   77   -3.1  87    -4.9  0     0     991.0    NA       0.0000   9999     0     0     0    
2019/07/18  07:22:00  BASE  3.22224  123  5.1744   77   -3.1  87    -5.0  0     0     990.9    NA       0.0000   9999     0     0     0    
2019/07/18  07:23:00  BASE  4.39824  134  5.1744   77   -3.2  87    -5.0  0     0     990.9    NA       0.0000   9999     0     0     0    
2019/07/18  07:24:00  BASE  4.72164  138  5.2332   140  -3.2  87    -5.1  0     0     990.9    NA       0.0000   9999     0     0     0    
2019/07/18  07:25:00  BASE  4.65696  135  5.2332   140  -3.3  87    -5.1  0     0     990.9    NA       0.0000   9999     0     0     0    
2019/07/18  07:26:00  BASE  4.66284  132  5.292    135  -3.3  87    -5.1  0     0     990.9    NA       0.0000   9999     0     0     0    
2019/07/18  07:27:00  BASE  4.62756  133  5.292    135  -3.4  88    -5.1  0     0     990.9    NA       0.0000   9999     0     0     0    
2019/07/18  07:28:00  BASE  4.28652  130  5.292    135  -3.4  88    -5.1  0     0     990.9    NA       0.0000   9999     0     0     0    
2019/07/18  07:29:00  BASE  4.37472  128  5.59776  132  -3.3  89    -4.9  0     0     990.9    NA       0.0000   9999     0     0     0    
2019/07/18  07:30:00  BASE  4.78044  125  6.2916   115  -3.2  89    -4.8  0     0     990.9    NA       0.0000   9999     0     0     0    
2019/07/18  07:31:00  BASE  5.71536  120  6.86784  119  -3.1  89    -4.7  0     0     990.9    NA       0.0000   9999     0     0     0    
2019/07/18  07:32:00  BASE  6.63852  117  7.50288  113  -3.0  89    -4.6  0     0     990.9    NA       0.0000   9999     0     0     0    
2019/07/18  07:33:00  BASE  6.85608  115  7.50288  113  -2.8  88    -4.4  0     0     990.8    NA       0.0000   9999     0     0     0    
2019/07/18  07:34:00  BASE  7.05012  116  8.04384  118  -2.6  87    -4.5  0     0     990.9    NA       0.0000   9999     0     0     0    
2019/07/18  07:35:00  BASE  7.36764  116  8.53188  113  -2.4  86    -4.5  0     0     990.8    NA       0.0000   9999     0     0     0    
2019/07/18  07:36:00  BASE  7.94976  111  9.10224  109  -2.4  84    -4.7  0     0     990.8    NA       0.0000   9999     0     0     0    
2019/07/18  07:37:00  BASE  7.76748  107  9.10224  109  -2.4  83    -4.9  0     0     990.9    NA       0.0000   9999     0     0     0    
2019/07/18  07:38:00  BASE  7.12656  102  9.10224  109  -2.5  82    -5.2  0     0     991.0    NA       0.0000   9999     0     0     0    
2019/07/18  07:39:00  BASE  6.94428  99   9.10224  109  -2.7  81    -5.5  0     0     991.0    NA       0.0000   9999     0     0     0    
2019/07/18  07:40:00  BASE  6.45036  94   9.10224  109  -3.0  81    -5.8  0     0     991.0    NA       0.0000   9999     0     0     0    
2019/07/18  07:41:00  BASE  6.10344  88   9.10224  109  -3.2  81    -6.1  0     0     991.0    NA       0.0000   9999     0     0     0    
2019/07/18  07:42:00  BASE  5.94468  91   9.10224  109  -3.4  81    -6.2  0     0     991.0    NA       0.0000   9999     0     0     0    
2019/07/18  07:43:00  BASE  5.82708  94   9.10224  109  -3.6  81    -6.5  0     0     991.0    NA       0.0000   9999     0     0     0    
2019/07/18  07:44:00  BASE  5.80356  97   9.10224  109  -3.8  81    -6.6  0     0     991.0    NA       0.0000   9999     0     0     0    
2019/07/18  07:45:00  BASE  5.91528  97   9.10224  109  -3.9  81    -6.6  0     0     991.0    NA       0.0000   9999     0     0     0    
2019/07/18  07:46:00  BASE  6.05052  94   7.95564  103  -4.0  82    -6.6  0     0     991.0    NA       0.0000   9999     0     0     0    
2019/07/18  07:47:00  BASE  5.98584  96   7.4088   103  -4.1  82    -6.7  0     0     991.0    NA       0.0000   9999     0     0     0    
2019/07/18  07:48:00  BASE  5.94468  99   7.19712  101  -4.1  83    -6.6  0     0     991.0    NA       0.0000   9999     0     0     0    
2019/07/18  07:49:00  BASE  5.76828  100  7.02072  84   -4.2  83    -6.6  0     0     990.9    NA       0.0000   9999     0     0     0    
2019/07/18  07:50:00  BASE  5.62716  99   6.65616  93   -4.2  83    -6.6  0     0     990.9    NA       0.0000   9999     0     0     0    
2019/07/18  07:51:00  BASE  5.66832  98   6.65616  93   -4.3  84    -6.6  0     0     990.9    NA       0.0000   9999     0     0     0    
2019/07/18  07:52:00  BASE  5.56836  103  6.65616  93   -4.4  84    -6.7  0     0     990.9    NA       0.0000   9999     0     0     0    
2019/07/18  07:53:00  BASE  5.50368  107  6.65616  93   -4.3  85    -6.5  0     0     990.9    NA       0.0000   9999     0     0     0    
2019/07/18  07:54:00  BASE  5.3802   109  6.65616  93   -4.3  85    -6.4  0     0     990.8    NA       0.0000   9999     0     0     0    
2019/07/18  07:55:00  BASE  5.19792  110  6.65616  93   -4.3  86    -6.3  0     0     990.8    NA       0.0000   9999     0     0     0    
2019/07/18  07:56:00  BASE  5.07444  110  6.2916   103  -4.2  87    -6.1  0     0     990.8    NA       0.0000   9999     0     0     0    
2019/07/18  07:57:00  BASE  4.84512  111  6.2034   99   -4.2  88    -5.9  0     0     990.8    NA       0.0000   9999     0     0     0    
2019/07/18  07:58:00  BASE  4.65108  102  6.13872  99   -4.1  88    -5.8  0     0     990.8    NA       0.0000   9999     0     0     0    
2019/07/18  07:59:00  BASE  4.77456  95   6.13872  99   -4.1  89    -5.7  0     0     990.8    NA       0.0000   9999     0     0     0    
2019/07/18  08:00:00  BASE  4.86276  92   6.13872  99   -4.1  89    -5.6  0     0     990.8    NA       0.0000   9999     0     0     0    
2019/07/18  08:01:00  BASE  4.58052  90   5.92704  103  -4.2  89    -5.7  0     0     990.8    NA       0.0000   9999     0     0     0    
2019/07/18  08:02:00  BASE  4.44528  90   5.92704  103  -4.3  89    -5.8  0     0     990.7    NA       0.0000   9999     0     0     0    
2019/07/18  08:03:00  BASE  4.47468  90   5.47428  112  -4.4  89    -5.9  0     0     990.7    NA       0.0000   9999     0     0     0    
2019/07/18  08:04:00  BASE  4.3218   88   5.38608  119  -4.4  89    -6.0  0     0     990.7    NA       0.0000   9999     0     0     0    
2019/07/18  08:05:00  BASE  3.97488  84   5.38608  119  -4.4  89    -5.9  0     0     990.7    NA       0.0000   9999     0     0     0    
2019/07/18  08:06:00  BASE  3.69852  83   5.2038   88   -4.4  89    -5.9  0     0     990.6    NA       0.0000   9999     0     0     0    
2019/07/18  08:07:00  BASE  3.57504  85   5.2038   88   -4.4  90    -5.8  0     0     990.5    NA       0.0000   9999     0     0     0    
2019/07/18  08:08:00  BASE  3.38688  77   5.2038   88   -4.4  90    -5.8  0     0     990.5    NA       0.0000   9999     0     0     0    
2019/07/18  08:09:00  BASE  3.31044  70   5.2038   88   -4.4  90    -5.7  0     0     990.5    NA       0.0000   9999     0     0     0    
2019/07/18  08:10:00  BASE  3.381    69   4.83924  84   -4.3  91    -5.6  0     0     990.4    NA       0.0000   9999     0     0     0    
2019/07/18  08:11:00  BASE  3.381    68   4.80984  89   -4.2  91    -5.5  0     0     990.4    NA       0.0000   9999     0     0     0    
2019/07/18  08:12:00  BASE  3.31044  69   4.80984  89   -4.0  91    -5.3  0     0     990.4    NA       0.0000   9999     0     0     0    
2019/07/18  08:13:00  BASE  3.12228  70   4.38648  88   -3.8  91    -5.1  0     0     990.4    NA       0.0000   9999     0     0     0    
2019/07/18  08:14:00  BASE  3.09288  71   3.86904  81   -3.7  91    -5.0  0     0     990.4    NA       0.0000   9999     0     0     0    
2019/07/18  08:15:00  BASE  3.36336  74   3.83964  84   -3.6  91    -4.9  0     0     990.4    NA       0.0000   9999     0     0     0    
2019/07/18  08:16:00  BASE  3.49272  78   3.75144  90   -3.5  90    -4.8  0     0     990.4    NA       0.0000   9999     0     0     0    
2019/07/18  08:17:00  BASE  3.528    81   3.96312  79   -3.5  90    -4.9  0     0     990.4    NA       0.0000   9999     0     0     0    
2019/07/18  08:18:00  BASE  3.56328  75   3.96312  79   -3.5  89    -5.0  0     0     990.4    NA       0.0000   9999     0     0     0    
2019/07/18  08:19:00  BASE  3.25752  74   3.96312  79   -3.5  89    -5.1  0     0     990.4    NA       0.0000   9999     0     0     0    
2019/07/18  08:20:00  BASE  3.0576   75   3.96312  79   -3.5  88    -5.1  0     0     990.4    NA       0.0000   9999     0     0     0    
2019/07/18  08:21:00  BASE  3.00468  73   3.96312  79   -3.4  88    -5.1  0     0     990.4    NA       0.0000   9999     0     0     0    
2019/07/18  08:22:00  BASE  2.83416  75   3.96312  79   -3.3  88    -5.0  0     0     990.5    NA       0.0000   9999     0     0     0    
2019/07/18  08:23:00  BASE  2.68716  81   3.96312  79   -3.2  87    -5.0  0     0     990.5    NA       0.0000   9999     0     0     0    
2019/07/18  08:24:00  BASE  2.28144  87   3.96312  79   -3.1  87    -5.0  0     0     990.5    NA       0.0000   9999     0     0     0    
2019/07/18  08:25:00  BASE  1.79928  90   3.96312  79   -3.0  87    -4.9  0     0     990.5    NA       0.0000   9999     0     0     0    
2019/07/18  08:26:00  BASE  1.75812  100  3.96312  79   -3.0  86    -5.0  0     0     990.5    NA       0.0000   9999     0     0     0    
2019/07/18  08:27:00  BASE  1.47588  109  3.86904  76   -2.9  85    -5.0  0     0     990.4    NA       0.0000   9999     0     0     0    
2019/07/18  08:28:00  BASE  0.5586   110  3.41628  71   -2.7  85    -4.9  0     0     990.4    NA       0.0000   9999     0     0     0    
2019/07/18  08:29:00  BASE  0.1176   98   3.41628  71   -2.6  85    -4.8  0     0     990.4    NA       0.0000   9999     0     0     0    
2019/07/18  08:30:00  BASE  0.64092  3    3.1752   76   -2.5  84    -4.9  0     0     990.4    NA       0.0000   9999     0     0     0    
2019/07/18  08:31:00  BASE  1.05252  330  3.087    73   -2.5  84    -4.9  0     0     990.4    NA       0.0000   9999     0     0     0    
2019/07/18  08:32:00  BASE  1.06428  335  2.87532  89   -2.5  83    -5.0  0     0     990.5    NA       0.0000   9999     0     0     0    
2019/07/18  08:33:00  BASE  1.29948  342  2.35788  86   -2.7  83    -5.2  0     0     990.5    NA       0.0000   9999     0     0     0    
2019/07/18  08:34:00  BASE  1.69344  354  2.21088  7    -2.9  83    -5.4  0     0     990.5    NA       0.0000   9999     0     0     0    
2019/07/18  08:35:00  BASE  2.28144  8    3.1164   8    -3.1  84    -5.4  0     0     990.5    NA       0.0000   9999     0     0     0    
2019/07/18  08:36:00  BASE  3.10464  14   3.99252  24   -3.2  85    -5.4  0     0     990.5    NA       0.0000   9999     0     0     0    
2019/07/18  08:37:00  BASE  3.54564  20   3.99252  24   -3.3  85    -5.4  0     0     990.5    NA       0.0000   9999     0     0     0    
2019/07/18  08:38:00  BASE  3.27516  23   3.99252  24   -3.4  86    -5.4  0     0     990.5    NA       0.0000   9999     0     0     0    
2019/07/18  08:39:00  BASE  3.27516  28   4.29828  32   -3.4  86    -5.4  0     0     990.5    NA       0.0000   9999     0     0     0    
2019/07/18  08:40:00  BASE  3.7044   33   4.41588  32   -3.5  86    -5.5  0     0     990.5    NA       0.0000   9999     0     0     0    
2019/07/18  08:41:00  BASE  3.7926   36   4.41588  32   -3.6  86    -5.6  0     0     990.5    NA       0.0000   9999     0     0     0    
2019/07/18  08:42:00  BASE  3.74556  41   4.41588  32   -3.6  85    -5.7  0     0     990.5    NA       0.0000   9999     0     0     0    
2019/07/18  08:43:00  BASE  4.24536  43   5.145    41   -3.7  85    -5.9  0     0     990.5    NA       0.0000   9999     0     0     0    
2019/07/18  08:44:00  BASE  4.54524  41   5.145    41   -3.9  84    -6.2  0     0     990.5    NA       0.0000   9999     0     0     0    
2019/07/18  08:45:00  BASE  4.35708  42   5.145    41   -3.9  83    -6.3  0     0     990.5    NA       0.0000   9999     0     0     0    
2019/07/18  08:46:00  BASE  3.8514   47   5.145    41   -4.0  83    -6.5  0     0     990.5    NA       0.0000   9999     0     0     0    
2019/07/18  08:47:00  BASE  3.37512  39   5.145    41   -4.0  82    -6.6  0     0     990.5    NA       0.0000   9999     0     0     0    
2019/07/18  08:48:00  BASE  4.21596  24   5.74476  22   -3.9  81    -6.7  0     0     990.5    NA       0.0000   9999     0     0     0    
2019/07/18  08:49:00  BASE  5.03328  14   6.02112  360  -3.7  80    -6.6  0     0     990.5    NA       0.0000   9999     0     0     0    
2019/07/18  08:50:00  BASE  4.92744  14   6.02112  360  -3.4  80    -6.4  0     0     990.4    NA       0.0000   9999     0     0     0    
2019/07/18  08:51:00  BASE  4.24536  10   6.02112  360  -3.1  80    -6.1  0     0     990.5    NA       0.0000   9999     0     0     0    
2019/07/18  08:52:00  BASE  4.1454   358  6.02112  360  -2.8  80    -5.8  0     0     990.5    NA       0.0000   9999     0     0     0    
2019/07/18  08:53:00  BASE  4.75104  356  6.02112  360  -2.5  80    -5.5  0     0     990.4    NA       0.0000   9999     0     0     0    
2019/07/18  08:54:00  BASE  4.5864   358  6.02112  360  -2.4  80    -5.3  0     0     990.5    NA       0.0000   9999     0     0     0    
2019/07/18  08:55:00  BASE  4.41588  353  6.02112  360  -2.4  80    -5.4  0     0     990.5    NA       0.0000   9999     0     0     0    
2019/07/18  08:56:00  BASE  4.56876  344  6.02112  360  -2.4  79    -5.7  0     0     990.5    NA       0.0000   9999     0     0     0    
2019/07/18  08:57:00  BASE  4.42176  345  6.02112  360  -2.6  78    -6.0  0     0     990.5    NA       0.0000   9999     0     0     0    
2019/07/18  08:58:00  BASE  4.0866   352  6.02112  360  -2.8  77    -6.2  0     0     990.4    NA       0.0000   9999     0     0     0    
2019/07/18  08:59:00  BASE  3.55152  358  5.59776  20   -2.9  77    -6.4  0     0     990.5    NA       0.0000   9999     0     0     0    
2019/07/18  09:00:00  BASE  3.13992  358  5.47428  4    -3.0  76    -6.5  0     0     990.5    NA       0.0000   9999     0     0     0    
2019/07/18  09:01:00  BASE  2.94     1    5.47428  4    -2.9  76    -6.5  0     0     990.4    NA       0.0000   9999     0     0     0    
2019/07/18  09:02:00  BASE  2.352    2    5.2038   353  -2.8  76    -6.5  0     0     990.4    NA       0.0000   9999     0     0     0    
2019/07/18  09:03:00  BASE  1.78752  354  5.08032  341  -2.7  75    -6.5  0     0     990.4    NA       0.0000   9999     0     0     0    
2019/07/18  09:04:00  BASE  1.37592  348  5.08032  341  -2.6  74    -6.6  0     0     990.4    NA       0.0000   9999     0     0     0    
2019/07/18  09:05:00  BASE  1.12896  346  5.02152  343  -2.6  74    -6.6  0     0     990.4    NA       0.0000   9999     0     0     0    
2019/07/18  09:06:00  BASE  0.71148  359  4.41588  351  -2.7  74    -6.7  0     0     990.4    NA       0.0000   9999     0     0     0    
2019/07/18  09:07:00  BASE  0.8232   78   4.35708  354  -2.8  74    -6.8  0     0     990.4    NA       0.0000   9999     0     0     0    
2019/07/18  09:08:00  BASE  1.49352  136  3.53976  355  -3.1  74    -7.1  0     0     990.4    NA       0.0000   9999     0     0     0    
2019/07/18  09:09:00  BASE  1.83456  155  3.41628  1    -3.5  74    -7.4  0     0     990.4    NA       0.0000   9999     0     0     0    
2019/07/18  09:10:00  BASE  1.92864  170  3.1752   3    -3.7  75    -7.5  0     0     990.4    NA       0.0000   9999     0     0     0    
2019/07/18  09:11:00  BASE  1.8816   179  2.51076  2    -3.9  76    -7.6  0     0     990.4    NA       0.0000   9999     0     0     0    
2019/07/18  09:12:00  BASE  1.99332  180  2.24028  165  -4.0  76    -7.6  0     0     990.4    NA       0.0000   9999     0     0     0    
2019/07/18  09:13:00  BASE  2.02272  175  2.24028  165  -4.0  77    -7.4  0     0     990.3    NA       0.0000   9999     0     0     0    
2019/07/18  09:14:00  BASE  1.90512  173  2.24028  165  -3.8  78    -7.1  0     0     990.3    NA       0.0000   9999     0     0     0    
2019/07/18  09:15:00  BASE  1.72872  162  2.24028  165  -3.8  78    -7.1  0     0     990.3    NA       0.0000   9999     0     0     0    
2019/07/18  09:16:00  BASE  1.37592  148  2.24028  165  -3.8  78    -7.0  0     0     990.3    NA       0.0000   9999     0     0     0    
2019/07/18  09:17:00  BASE  1.1466   150  2.24028  165  -3.8  78    -7.0  0     0     990.3    NA       0.0000   9999     0     0     0    
2019/07/18  09:18:00  BASE  1.12308  149  2.24028  165  -3.8  78    -7.0  0     0     990.3    NA       0.0000   9999     0     0     0    
2019/07/18  09:19:00  BASE  1.14072  139  2.1756   184  -3.8  78    -7.0  0     0     990.3    NA       0.0000   9999     0     0     0    
2019/07/18  09:20:00  BASE  1.2642   127  2.1756   184  -3.7  78    -7.0  0     0     990.3    NA       0.0000   9999     0     0     0    
2019/07/18  09:21:00  BASE  1.41708  116  2.1756   184  -3.7  77    -7.1  0     0     990.3    NA       0.0000   9999     0     0     0    
2019/07/18  09:22:00  BASE  1.6464   105  2.058    172  -3.7  77    -7.2  0     0     990.3    NA       0.0000   9999     0     0     0    
2019/07/18  09:23:00  BASE  1.911    101  2.38728  108  -3.7  76    -7.4  0     0     990.2    NA       0.0000   9999     0     0     0    
2019/07/18  09:24:00  BASE  2.18148  93   2.75184  84   -3.7  74    -7.6  0     0     990.2    NA       0.0000   9999     0     0     0    
2019/07/18  09:25:00  BASE  2.8224   80   3.93372  80   -3.7  73    -7.7  0     0     990.2    NA       0.0000   9999     0     0     0    
2019/07/18  09:26:00  BASE  3.95136  80   4.96272  81   -3.7  72    -7.9  0     0     990.2    NA       0.0000   9999     0     0     0    
2019/07/18  09:27:00  BASE  4.82748  81   5.2626   84   -3.7  71    -8.1  0     0     990.2    NA       0.0000   9999     0     0     0    
2019/07/18  09:28:00  BASE  5.23908  84   5.56836  86   -3.8  71    -8.4  0     0     990.2    NA       0.0000   9999     0     0     0    
2019/07/18  09:29:00  BASE  5.08032  87   5.56836  86   -3.9  70    -8.5  0     0     990.2    NA       0.0000   9999     0     0     0    
2019/07/18  09:30:00  BASE  4.40412  88   5.56836  86   -4.0  70    -8.7  0     0     990.2    NA       0.0000   9999     0     0     0    
2019/07/18  09:31:00  BASE  3.65736  88   5.56836  86   -3.9  70    -8.6  0     0     990.2    NA       0.0000   9999     0     0     0    
2019/07/18  09:32:00  BASE  2.75184  87   5.56836  86   -3.8  69    -8.6  0     0     990.2    NA       0.0000   9999     0     0     0    
2019/07/18  09:33:00  BASE  2.26968  78   5.56836  86   -3.5  69    -8.4  0     0     990.1    NA       0.0000   9999     0     0     0    
2019/07/18  09:34:00  BASE  3.04584  69   5.56836  86   -3.1  68    -8.1  0     0     990.1    NA       0.0000   9999     0     0     0    
2019/07/18  09:35:00  BASE  4.56288  70   5.56836  86   -3.0  67    -8.2  0     0     990.1    NA       0.0000   9999     0     0     0    
2019/07/18  09:36:00  BASE  4.36884  73   5.56836  86   -3.0  66    -8.4  0     0     990.2    NA       0.0000   9999     0     0     0    
2019/07/18  09:37:00  BASE  3.89256  97   5.56836  86   -3.1  65    -8.6  0     0     990.1    NA       0.0000   9999     0     0     0    
2019/07/18  09:38:00  BASE  4.31592  118  5.53308  121  -3.1  65    -8.7  0     0     990.1    NA       0.0000   9999     0     0     0    
2019/07/18  09:39:00  BASE  4.3218   115  5.53308  121  -3.2  65    -8.8  0     0     990.1    NA       0.0000   9999     0     0     0    
2019/07/18  09:40:00  BASE  4.65696  116  5.53308  121  -3.2  65    -8.8  0     0     990.1    NA       0.0000   9999     0     0     0    
2019/07/18  09:41:00  BASE  4.851    124  5.53308  121  -3.0  66    -8.6  0     0     990.1    NA       0.0000   9999     0     0     0    
2019/07/18  09:42:00  BASE  4.42764  127  5.53308  121  -2.8  66    -8.4  0     0     990.2    NA       0.0000   9999     0     0     0    
2019/07/18  09:43:00  BASE  3.78672  128  5.53308  121  -2.8  66    -8.3  0     0     990.2    NA       0.0000   9999     0     0     0    
2019/07/18  09:44:00  BASE  3.89844  131  5.53308  121  -2.8  66    -8.3  0     0     990.2    NA       0.0000   9999     0     0     0    
2019/07/18  09:45:00  BASE  4.54524  137  5.53308  121  -2.8  67    -8.2  0     0     990.2    NA       0.0000   9999     0     0     0    
2019/07/18  09:46:00  BASE  4.53936  145  5.53308  121  -2.8  67    -8.1  0     0     990.1    NA       0.0000   9999     0     0     0    
2019/07/18  09:47:00  BASE  4.41588  148  5.41548  111  -2.9  68    -8.0  0     0     990.2    NA       0.0000   9999     0     0     0    
2019/07/18  09:48:00  BASE  4.58052  130  5.41548  111  -3.1  68    -8.1  0     0     990.2    NA       0.0000   9999     0     0     0    
2019/07/18  09:49:00  BASE  4.75692  114  5.38608  127  -3.3  69    -8.2  0     0     990.2    NA       0.0000   9999     0     0     0    
2019/07/18  09:50:00  BASE  4.44528  117  5.38608  127  -3.5  70    -8.2  0     0     990.2    NA       0.0000   9999     0     0     0    
2019/07/18  09:51:00  BASE  3.63972  119  5.3214   110  -3.7  70    -8.4  0     0     990.2    NA       0.0000   9999     0     0     0    
2019/07/18  09:52:00  BASE  3.31632  110  5.3214   110  -3.8  71    -8.4  0     0     990.2    NA       0.0000   9999     0     0     0    
2019/07/18  09:53:00  BASE  3.51624  106  5.3214   110  -3.8  71    -8.4  0     0     990.2    NA       0.0000   9999     0     0     0    
2019/07/18  09:54:00  BASE  3.83376  109  5.3214   110  -3.7  71    -8.3  0     0     990.2    NA       0.0000   9999     0     0     0    
2019/07/18  09:55:00  BASE  3.84552  113  5.3214   110  -3.6  70    -8.2  0     0     990.2    NA       0.0000   9999     0     0     0    
2019/07/18  09:56:00  BASE  3.66324  112  5.3214   110  -3.5  70    -8.2  0     0     990.3    NA       0.0000   9999     0     0     0    
2019/07/18  09:57:00  BASE  3.68676  103  5.3214   110  -3.3  69    -8.2  0     0     990.3    NA       0.0000   9999     0     0     0    
2019/07/18  09:58:00  BASE  3.38688  98   5.145    124  -3.3  68    -8.2  0     0     990.3    NA       0.0000   9999     0     0     0    
2019/07/18  09:59:00  BASE  3.528    101  4.62756  120  -3.2  68    -8.3  0     0     990.3    NA       0.0000   9999     0     0     0    
2019/07/18  10:00:00  BASE  4.06896  104  4.56876  107  -3.2  67    -8.4  0     0     990.2    NA       0.0000   9999     0     0     0    
2019/07/18  10:01:00  BASE  4.21596  104  4.86864  115  -3.3  67    -8.5  0     0     990.2    NA       0.0000   9999     0     0     0    
2019/07/18  10:02:00  BASE  4.47468  104  5.38608  110  -3.3  67    -8.5  0     0     990.2    NA       0.0000   9999     0     0     0    
2019/07/18  10:03:00  BASE  4.95096  103  5.59776  103  -3.3  68    -8.4  0     0     990.2    NA       0.0000   9999     0     0     0    
2019/07/18  10:04:00  BASE  5.2626   102  6.13872  94   -3.2  68    -8.2  0     0     990.2    NA       0.0000   9999     0     0     0    
2019/07/18  10:05:00  BASE  5.42724  94   6.44448  79   -3.0  69    -8.0  0     0     990.2    NA       0.0000   9999     0     0     0    
2019/07/18  10:06:00  BASE  5.40372  92   6.44448  79   -2.9  69    -7.9  0     0     990.2    NA       0.0000   9999     0     0     0    
2019/07/18  10:07:00  BASE  5.56836  93   6.47388  93   -3.0  68    -8.0  0     0     990.2    NA       0.0000   9999     0     0     0    
2019/07/18  10:08:00  BASE  6.02112  90   6.47388  86   -3.0  67    -8.2  0     0     990.2    NA       0.0000   9999     0     0     0    
2019/07/18  10:09:00  BASE  6.24456  91   6.62676  101  -3.2  67    -8.4  0     0     990.1    NA       0.0000   9999     0     0     0    
2019/07/18  10:10:00  BASE  5.91528  95   6.62676  101  -3.3  67    -8.6  0     0     990.1    NA       0.0000   9999     0     0     0    
2019/07/18  10:11:00  BASE  5.40372  98   6.62676  101  -3.4  67    -8.5  0     0     990.1    NA       0.0000   9999     0     0     0    
2019/07/18  10:12:00  BASE  5.27436  100  6.62676  101  -3.3  68    -8.3  0     0     990.1    NA       0.0000   9999     0     0     0    
2019/07/18  10:13:00  BASE  5.1744   106  6.62676  101  -3.2  69    -8.1  0     0     990.0    NA       0.0000   9999     0     0     0    
2019/07/18  10:14:00  BASE  5.15088  113  6.62676  101  -3.1  69    -8.0  0     0     989.9    NA       0.0000   9999     0     0     0    
2019/07/18  10:15:00  BASE  4.98624  116  6.62676  101  -3.0  70    -7.8  0     0     989.9    NA       0.0000   9999     0     0     0    
2019/07/18  10:16:00  BASE  5.02152  119  6.62676  101  -2.9  70    -7.6  0     0     989.9    NA       0.0000   9999     4400  0     0    
2019/07/18  10:17:00  BASE  5.21556  121  6.62676  101  -2.7  70    -7.4  0     0     989.9    NA       0.0000   9999     4230  0     0    
2019/07/18  10:18:00  BASE  4.7628   116  6.62676  101  -2.5  70    -7.2  0     0     989.9    NA       0.0000   9999     4170  0     0    
2019/07/18  10:19:00  BASE  4.48056  113  6.07992  105  -2.4  69    -7.2  0     0     989.9    NA       0.0000   9999     3940  0     0    
2019/07/18  10:20:00  BASE  4.56876  113  5.83884  95   -2.3  69    -7.3  0     0     989.9    NA       0.0000   9999     3940  0     0    
2019/07/18  10:21:00  BASE  4.6746   112  5.74476  104  -2.3  68    -7.5  0     0     989.9    NA       0.0000   9999     3940  0     0    
2019/07/18  10:22:00  BASE  5.03328  115  5.68596  117  -2.4  67    -7.7  0     0     989.8    NA       0.0000   9999     3940  0     0    
2019/07/18  10:23:00  BASE  5.29788  117  5.74476  120  -2.4  67    -7.7  0     0     989.8    NA       0.0000   9999     3940  0     0    
2019/07/18  10:24:00  BASE  5.42724  114  5.74476  104  -2.4  67    -7.7  0     0     989.7    NA       0.0000   9999     3900  0     0    
2019/07/18  10:25:00  BASE  5.53896  109  5.86824  105  -2.4  67    -7.7  0     0     989.7    NA       0.0000   9999     4100  0     0    
2019/07/18  10:26:00  BASE  5.7624   107  6.2034   104  -2.4  66    -7.8  0     0     989.7    NA       0.0000   9999     4000  4630  0    
2019/07/18  10:27:00  BASE  5.83884  109  6.2034   104  -2.4  66    -7.9  0     0     989.7    NA       0.0000   9999     3940  0     0    
2019/07/18  10:28:00  BASE  5.59188  111  6.2034   104  -2.5  66    -8.0  0     0     989.7    NA       0.0000   9999     3940  0     0    
2019/07/18  10:29:00  BASE  5.4978   112  6.2034   104  -2.6  66    -8.1  0     0     989.7    NA       0.0000   9999     4040  4590  0    
2019/07/18  10:30:00  BASE  5.58012  113  6.2034   104  -2.6  66    -8.1  0     0     989.7    NA       0.0000   9999     0     0     0    
2019/07/18  10:31:00  BASE  5.59776  114  6.2034   104  -2.5  66    -7.9  0     0     989.7    NA       0.0000   9999     0     0     0    
2019/07/18  10:32:00  BASE  5.7918   114  6.2916   115  -2.4  66    -7.8  0     0     989.6    NA       0.0000   9999     4040  0     0    
2019/07/18  10:33:00  BASE  5.9682   112  6.321    112  -2.2  66    -7.7  0     0     989.6    NA       0.0000   9999     4200  0     0    
2019/07/18  10:34:01  BASE  5.92116  111  6.44448  112  -2.1  65    -7.8  0     0     989.6    NA       0.0000   9999     4270  0     0    
2019/07/18  10:35:01  BASE  5.80356  114  6.44448  112  -2.1  65    -7.8  0     0     989.6    NA       0.0000   9999     4130  0     0    
2019/07/18  10:36:01  BASE  5.7036   119  6.44448  112  -2.0  64    -7.8  0     0     989.6    NA       0.0000   9999     3970  0     0    
2019/07/18  10:37:01  BASE  5.439    121  6.44448  112  -1.9  64    -7.9  0     0     989.6    NA       0.0000   9999     4070  0     0    
2019/07/18  10:38:01  BASE  5.19792  120  6.44448  112  -1.9  63    -8.0  0     0     989.6    NA       0.0000   9999     0     0     0    
2019/07/18  10:39:01  BASE  5.10972  120  6.44448  112  -1.9  63    -8.0  0     0     989.6    NA       0.0000   9999     0     0     0    
2019/07/18  10:40:01  BASE  5.08032  122  6.44448  112  -1.8  63    -8.0  0     0     989.6    NA       0.0000   9999     0     0     0    
2019/07/18  10:41:01  BASE  4.9098   130  6.44448  112  -1.8  63    -8.0  0     0     989.6    NA       0.0000   9999     0     0     0    
2019/07/18  10:42:01  BASE  4.53936  134  6.44448  112  -1.8  63    -8.0  0     0     989.6    NA       0.0000   9999     4170  0     0    
2019/07/18  10:43:01  BASE  4.22772  131  6.44448  112  -1.9  63    -8.1  0     0     989.6    NA       0.0000   9999     0     0     0    
2019/07/18  10:44:01  BASE  4.00428  130  6.16812  113  -2.0  63    -8.2  0     0     989.7    NA       0.0000   9999     0     0     0    
2019/07/18  10:45:01  BASE  3.81024  129  6.02112  122  -2.2  63    -8.3  0     0     989.7    NA       0.0000   9999     4270  6300  0    
2019/07/18  10:46:01  BASE  3.74556  120  5.65656  126  -2.4  64    -8.3  0     0     989.7    NA       0.0000   9999     4270  6200  0    
2019/07/18  10:47:01  BASE  4.38648  111  5.86824  113  -2.5  65    -8.2  0     0     989.7    NA       0.0000   9999     6330  0     0    
2019/07/18  10:48:01  BASE  5.30376  109  6.16812  110  -2.5  65    -8.2  0     0     989.6    NA       0.0000   9999     4270  6300  0    
2019/07/18  10:49:01  BASE  5.43312  110  6.16812  110  -2.6  66    -8.1  0     0     989.6    NA       0.0000   9999     4330  6460  0    
2019/07/18  10:50:01  BASE  5.59188  112  6.53268  111  -2.5  66    -8.0  0     0     989.6    NA       0.0000   9999     6430  0     0    
2019/07/18  10:51:01  BASE  5.88     115  6.53268  111  -2.3  66    -7.9  0     0     989.6    NA       0.0000   9999     6300  0     0    
2019/07/18  10:52:01  BASE  5.82708  119  6.53268  111  -2.1  65    -7.9  0     0     989.5    NA       0.0000   9999     6300  0     0    
2019/07/18  10:53:01  BASE  5.78592  122  6.53268  111  -1.9  64    -7.8  0     0     989.4    NA       0.0000   9999     6370  0     0    
2019/07/18  10:54:01  BASE  5.9682   127  7.13832  131  -1.7  63    -7.8  0     0     989.4    NA       0.0000   9999     6100  0     0    
2019/07/18  10:55:01  BASE  6.57972  133  7.47348  136  -1.5  62    -7.8  0     0     989.3    NA       0.0000   9999     5940  0     0    
2019/07/18  10:56:01  BASE  6.93252  137  7.47348  135  -1.4  61    -7.9  0     0     989.3    NA       0.0000   9999     5910  0     0    
2019/07/18  10:57:01  BASE  6.95016  137  7.47348  137  -1.4  61    -8.0  0     0     989.3    NA       0.0000   9999     5940  0     0    
2019/07/18  10:58:01  BASE  6.77376  135  7.47348  137  -1.4  61    -8.0  0     0     989.3    NA       0.0000   9999     5810  0     0    
2019/07/18  10:59:01  BASE  6.57384  135  7.47348  137  -1.5  61    -8.0  0     0     989.2    NA       0.0000   9999     5810  0     0    
2019/07/18  11:00:01  BASE  7.02072  135  8.22612  141  -1.6  62    -7.9  0     0     989.2    NA       0.0000   9999     5770  0     0    
2019/07/18  11:01:01  BASE  7.99092  139  8.92584  140  -1.7  63    -7.8  0     0     989.1    NA       0.0000   9999     5710  0     0    
2019/07/18  11:02:01  BASE  8.26728  141  8.92584  140  -1.8  64    -7.7  0     0     989.1    NA       0.0000   9999     5770  0     0    
2019/07/18  11:03:01  BASE  7.92036  141  8.92584  140  -1.8  65    -7.5  0     0     989.1    NA       0.0000   9999     5810  0     0    
2019/07/18  11:04:01  BASE  7.88508  140  8.92584  140  -1.8  66    -7.3  0     0     989.2    NA       0.0000   9999     5540  0     0    
2019/07/18  11:05:01  BASE  8.00856  142  8.92584  140  -1.8  67    -7.1  0     0     989.2    NA       0.0000   9999     5510  0     0    
2019/07/18  11:06:01  BASE  7.79688  142  8.92584  140  -1.8  68    -7.0  0     0     989.2    NA       0.0000   9999     5610  0     0    
2019/07/18  11:07:01  BASE  7.09716  141  8.92584  140  -1.8  68    -6.9  0     0     989.3    NA       0.0000   9999     5410  0     0    
2019/07/18  11:08:01  BASE  6.71496  144  8.92584  140  -1.9  68    -6.9  0     0     989.3    NA       0.0000   9999     5450  0     0    
2019/07/18  11:09:01  BASE  6.69144  147  8.92584  140  -1.9  68    -6.9  0     0     989.2    NA       0.0000   9999     5450  0     0    
2019/07/18  11:10:01  BASE  6.80904  147  8.92584  140  -1.9  68    -7.0  0     0     989.2    NA       0.0000   9999     5680  0     0    
2019/07/18  11:11:01  BASE  7.26768  140  8.71416  145  -1.9  69    -6.9  0     0     989.1    NA       0.0000   9999     5380  0     0    
2019/07/18  11:12:01  BASE  7.97916  134  8.74356  132  -2.0  69    -6.9  0     0     989.1    NA       0.0000   9999     5540  0     0    
2019/07/18  11:13:01  BASE  8.13792  131  8.74356  132  -1.9  69    -6.9  0     0     989.1    NA       0.0000   9999     5410  0     0    
2019/07/18  11:14:01  BASE  7.87332  129  8.74356  132  -1.9  68    -7.0  0     0     989.1    NA       0.0000   9999     5250  0     0    
2019/07/18  11:15:01  BASE  7.57932  129  8.74356  132  -1.8  68    -7.0  0     0     989.1    NA       0.0000   9999     5090  0     0    
2019/07/18  11:16:01  BASE  7.69692  135  9.13752  137  -1.8  66    -7.2  0     0     989.0    NA       0.0000   9999     4820  0     0    
2019/07/18  11:17:01  BASE  7.84392  140  9.13752  137  -1.7  65    -7.3  0     0     989.0    NA       0.0000   9999     4270  0     0    
2019/07/18  11:18:01  BASE  7.80276  138  9.13752  137  -1.7  65    -7.5  0     0     989.0    NA       0.0000   9999     4400  0     0    
2019/07/18  11:19:01  BASE  8.29668  135  9.13752  137  -1.7  65    -7.5  0     0     988.9    NA       0.0000   9999     4400  0     0    
2019/07/18  11:20:01  BASE  8.4966   135  9.13752  137  -1.8  65    -7.5  0     0     988.9    NA       0.0000   9999     4690  0     0    
2019/07/18  11:21:01  BASE  8.21436  137  9.13752  137  -1.8  65    -7.5  0     0     988.9    NA       0.0000   9999     4920  0     0    
2019/07/18  11:22:01  BASE  7.9674   137  9.13752  137  -1.8  65    -7.5  0     0     989.0    NA       0.0000   9999     4920  0     0    
2019/07/18  11:23:01  BASE  8.00268  134  9.13752  137  -1.8  65    -7.6  0     0     989.0    NA       0.0000   9999     4790  0     0    
2019/07/18  11:24:01  BASE  7.91448  128  9.13752  137  -1.7  64    -7.6  0     0     989.1    NA       0.0000   9999     4920  0     0    
2019/07/18  11:25:01  BASE  7.27356  124  9.13752  137  -1.6  63    -7.7  0     0     989.1    NA       0.0000   9999     4820  0     0    
2019/07/18  11:26:01  BASE  6.762    121  8.98464  132  -1.5  62    -7.8  0     0     989.1    NA       0.0000   9999     4720  0     0    
2019/07/18  11:27:01  BASE  6.78552  122  8.98464  132  -1.4  62    -7.8  0     0     989.1    NA       0.0000   9999     4690  5680  6730 
2019/07/18  11:28:01  BASE  6.9384   127  8.98464  132  -1.4  62    -7.8  0     0     989.1    NA       0.0000   9999     4460  0     0    
2019/07/18  11:29:01  BASE  7.75572  129  9.3786   134  -1.3  62    -7.7  0     0     988.9    NA       0.0000   9999     4430  6630  0    
2019/07/18  11:30:01  BASE  8.81412  129  9.59028  130  -1.2  62    -7.7  0     0     988.9    NA       0.0000   9999     4360  0     0    
2019/07/18  11:31:01  BASE  8.27904  130  9.59028  130  -1.2  62    -7.5  0     0     989.0    NA       0.0000   9999     4300  4920  0    
2019/07/18  11:32:01  BASE  7.39704  130  9.59028  130  -1.2  63    -7.4  0     0     989.0    NA       0.0000   9999     4130  0     0    
2019/07/18  11:33:01  BASE  7.35588  129  9.59028  130  -1.2  63    -7.3  0     0     989.0    NA       0.0000   9999     4100  0     0    
2019/07/18  11:34:01  BASE  7.24416  128  9.59028  130  -1.2  64    -7.2  0     0     989.0    NA       0.0000   9999     4070  0     0    
2019/07/18  11:35:01  BASE  6.95604  127  9.59028  130  -1.3  65    -7.0  0     0     989.0    NA       0.0000   9999     4130  0     0    
2019/07/18  11:36:01  BASE  6.9384   122  9.59028  130  -1.3  66    -6.9  0     0     989.0    NA       0.0000   9999     4400  0     0    
2019/07/18  11:37:01  BASE  7.12656  117  9.59028  130  -1.3  66    -6.8  0     0     989.1    NA       0.0000   9999     4490  0     0    
2019/07/18  11:38:01  BASE  7.32648  116  9.59028  130  -1.2  66    -6.8  0     0     989.0    NA       0.0000   9999     4530  0     0    
2019/07/18  11:39:01  BASE  7.44996  122  9.59028  130  -1.1  65    -6.8  0     0     989.0    NA       0.0000   9999     4000  0     0    
2019/07/18  11:40:01  BASE  7.27944  128  8.19672  130  -0.9  64    -6.9  0     0     988.9    NA       0.0000   9999     3670  0     0    
2019/07/18  11:41:01  BASE  7.13832  120  8.379    105  -0.9  63    -7.0  0     0     988.9    NA       0.0000   9999     3640  0     0    
2019/07/18  11:42:01  BASE  7.13244  114  8.379    105  -0.8  63    -7.0  0     0     989.0    NA       0.0000   9999     3770  0     0    
2019/07/18  11:43:01  BASE  7.06188  111  8.379    105  -0.8  64    -6.9  0     0     989.1    NA       0.0000   9999     3740  0     0    
2019/07/18  11:44:01  BASE  6.95604  106  8.379    105  -0.8  64    -6.8  0     0     989.1    NA       0.0000   9999     3810  4560  0    
2019/07/18  11:45:01  BASE  7.50288  105  9.04344  107  -0.7  64    -6.7  0     0     989.0    NA       0.0000   9999     3870  0     0    
2019/07/18  11:46:01  BASE  8.1438   111  9.4374   116  -0.7  64    -6.7  0     0     988.9    NA       0.0000   9999     3610  0     0    
2019/07/18  11:47:01  BASE  8.80236  117  9.64908  117  -0.7  64    -6.7  0     0     988.9    NA       0.0000   9999     3480  0     0    
2019/07/18  11:48:01  BASE  8.36136  112  9.64908  117  -0.7  64    -6.7  0     0     989.0    NA       0.0000   9999     3710  0     0    
2019/07/18  11:49:01  BASE  7.0854   101  9.64908  117  -0.8  65    -6.6  0     0     989.1    NA       0.0000   9999     4000  0     0    
2019/07/18  11:50:01  BASE  7.32648  100  9.64908  117  -0.8  65    -6.5  0     0     989.0    NA       0.0000   9999     3670  0     0    
2019/07/18  11:51:01  BASE  7.84392  105  9.64908  117  -0.9  66    -6.4  0     0     989.0    NA       0.0000   9999     3640  0     0    
2019/07/18  11:52:01  BASE  8.10264  106  9.64908  117  -1.0  67    -6.3  0     0     988.9    NA       0.0000   9999     3710  0     0    
2019/07/18  11:53:01  BASE  8.50836  107  9.64908  117  -1.1  68    -6.3  0     0     988.9    NA       0.0000   9999     3510  0     0    
2019/07/18  11:54:01  BASE  8.09676  110  9.64908  117  -1.2  69    -6.1  0     0     988.9    NA       0.0000   9999     3350  0     0    
2019/07/18  11:55:01  BASE  7.69692  113  9.64908  117  -1.2  70    -6.0  0     0     988.8    NA       0.0000   9999     3580  0     0    
2019/07/18  11:56:01  BASE  7.87332  117  9.64908  117  -1.1  70    -5.9  0     0     988.7    NA       0.0000   9999     3640  0     0    
2019/07/18  11:57:01  BASE  7.3794   114  9.16692  105  -1.0  69    -6.0  0     0     988.8    NA       0.0000   9999     3670  0     0    
2019/07/18  11:58:01  BASE  6.96192  102  9.16692  105  -0.8  67    -6.1  0     0     988.8    NA       0.0000   9999     3640  0     0    
2019/07/18  11:59:01  BASE  7.07952  97   9.16692  105  -0.6  65    -6.3  0     0     988.9    NA       0.0000   9999     3580  0     0    
2019/07/18  12:00:01  BASE  7.00308  101  9.16692  105  -0.5  64    -6.5  0     0     988.9    NA       0.0000   9999     3610  0     0    
2019/07/18  12:01:01  BASE  7.40292  102  9.16692  105  -0.5  63    -6.7  0     0     988.9    NA       0.0000   9999     3670  0     0    
2019/07/18  12:02:01  BASE  8.09676  105  9.04344  109  -0.5  63    -6.7  0     0     988.8    NA       0.0000   9999     3350  0     0    
2019/07/18  12:03:01  BASE  8.15556  115  8.83176  115  -0.6  64    -6.7  0     0     988.7    NA       0.0000   9999     3380  0     0    
2019/07/18  12:04:01  BASE  8.10264  121  8.83176  115  -0.7  64    -6.6  0     0     988.7    NA       0.0000   9999     3610  0     0    
2019/07/18  12:05:01  BASE  8.12028  119  8.83176  115  -0.7  65    -6.5  0     0     988.8    NA       0.0000   9999     3450  0     0    
2019/07/18  12:06:01  BASE  7.75572  121  8.83176  115  -0.7  65    -6.5  0     0     988.7    NA       0.0000   9999     3670  0     0    
2019/07/18  12:07:01  BASE  7.19712  128  8.83176  115  -0.7  65    -6.5  0     0     988.7    NA       0.0000   9999     3380  0     0    
2019/07/18  12:08:01  BASE  6.89136  131  8.83176  115  -0.6  64    -6.5  0     0     988.7    NA       0.0000   9999     3280  0     0    
2019/07/18  12:09:01  BASE  6.98544  133  8.83176  115  -0.6  64    -6.6  0     0     988.7    NA       0.0000   9999     3380  0     0    
2019/07/18  12:10:01  BASE  6.93252  131  8.83176  115  -0.6  64    -6.6  0     0     988.7    NA       0.0000   9999     3540  0     0    
2019/07/18  12:11:01  BASE  6.59148  125  8.83176  115  -0.6  64    -6.6  0     0     988.7    NA       0.0000   9999     3510  0     0    
2019/07/18  12:12:01  BASE  6.30924  120  8.71416  126  -0.5  63    -6.6  0     0     988.8    NA       0.0000   9999     3450  0     0    
2019/07/18  12:13:01  BASE  6.06228  117  8.71416  126  -0.5  63    -6.7  0     0     988.9    NA       0.0000   9999     3450  0     0    
2019/07/18  12:14:01  BASE  5.91528  116  8.4378   122  -0.5  63    -6.7  0     0     988.9    NA       0.0000   9999     3410  0     0    
2019/07/18  12:15:01  BASE  6.2034   115  8.16732  122  -0.4  62    -6.7  0     0     988.9    NA       0.0000   9999     3350  0     0    
2019/07/18  12:16:01  BASE  6.39156  125  7.92624  132  -0.4  62    -6.7  0     0     989.0    NA       0.0000   9999     3350  0     0    
2019/07/18  12:17:01  BASE  6.19752  137  7.92624  132  -0.4  62    -6.7  0     0     989.0    NA       0.0000   9999     3380  0     0    
2019/07/18  12:18:01  BASE  6.03288  142  7.92624  132  -0.4  63    -6.7  0     0     989.0    NA       0.0000   9999     3380  0     0    
2019/07/18  12:19:01  BASE  5.88     141  7.4088   118  -0.5  63    -6.6  0     0     989.0    NA       0.0000   9999     3510  0     0    
2019/07/18  12:20:01  BASE  6.32688  135  7.44408  129  -0.5  64    -6.5  0     0     988.9    NA       0.0000   9999     3450  0     0    
2019/07/18  12:21:01  BASE  7.00308  129  7.71456  129  -0.6  65    -6.4  0     0     988.9    NA       0.0000   9999     3410  0     0    
2019/07/18  12:22:01  BASE  6.65616  130  7.71456  129  -0.7  66    -6.3  0     0     989.0    NA       0.0000   9999     3410  0     0    
2019/07/18  12:23:01  BASE  5.5272   130  7.71456  129  -0.7  66    -6.2  0     0     989.0    NA       0.0000   9999     3120  0     0    
2019/07/18  12:24:01  BASE  4.85688  123  7.71456  129  -0.7  67    -6.1  0     0     988.9    NA       0.0000   9999     3080  0     0    
2019/07/18  12:25:01  BASE  5.1744   122  7.71456  129  -0.6  66    -6.2  0     0     988.9    NA       0.0000   9999     3250  0     0    
2019/07/18  12:26:01  BASE  5.41548  128  7.71456  129  -0.5  65    -6.2  0     0     988.9    NA       0.0000   9999     3280  3900  0    
2019/07/18  12:27:01  BASE  5.10972  133  7.71456  129  -0.4  65    -6.3  0     0     988.9    NA       0.0000   9999     3710  0     0    
2019/07/18  12:28:01  BASE  5.10972  141  7.71456  129  -0.4  64    -6.4  0     0     988.9    NA       0.0000   9999     3380  0     0    
2019/07/18  12:29:01  BASE  5.57424  146  7.71456  129  -0.4  64    -6.4  0     0     988.8    NA       0.0000   9999     2760  0     0    
2019/07/18  12:30:01  BASE  5.45076  147  7.71456  129  -0.4  64    -6.4  0     0     988.9    NA       0.0000   9999     3580  0     0    
2019/07/18  12:31:01  BASE  4.9686   151  6.77376  136  -0.5  65    -6.3  0     0     988.8    NA       0.0000   9999     3180  3770  0    
2019/07/18  12:32:01  BASE  4.7922   158  6.50328  129  -0.5  65    -6.2  0     0     988.8    NA       0.0000   9999     2660  3540  0    
2019/07/18  12:33:01  BASE  4.66872  153  6.50328  129  -0.5  66    -6.2  0     0     988.9    NA       0.0000   9999     2950  0     0    
2019/07/18  12:34:01  BASE  4.7922   142  6.50328  129  -0.5  66    -6.1  0     0     988.8    NA       0.0000   9999     3220  3810  0    
2019/07/18  12:35:01  BASE  5.73888  135  7.07952  131  -0.5  66    -6.1  0     0     988.7    NA       0.0000   9999     3310  0     0    
2019/07/18  12:36:01  BASE  6.6738   132  7.74396  136  -0.4  66    -6.0  0     0     988.7    NA       0.0000   9999     2720  0     0    
2019/07/18  12:37:01  BASE  6.65616  135  7.74396  136  -0.3  66    -6.0  0     0     988.7    NA       0.0000   9999     2850  3640  0    
2019/07/18  12:38:01  BASE  6.07992  132  7.74396  136  -0.2  65    -6.0  0     0     988.7    NA       0.0000   9999     3710  0     0    
2019/07/18  12:39:01  BASE  6.03288  127  7.74396  136  -0.0  64    -6.0  0     0     988.7    NA       0.0000   9999     3580  0     0    
2019/07/18  12:40:01  BASE  6.66204  124  7.74396  136  0.1   64    -6.0  0     0     988.7    NA       0.0000   9999     4000  0     0    
2019/07/18  12:41:01  BASE  6.32688  123  7.74396  136  0.1   63    -6.1  0     0     988.8    NA       0.0000   9999     4100  0     0    
2019/07/18  12:42:01  BASE  4.92744  118  7.74396  136  0.1   63    -6.2  0     0     988.9    NA       0.0000   9999     4170  0     0    
2019/07/18  12:43:01  BASE  4.21596  115  7.74396  136  0.0   63    -6.2  0     0     988.9    NA       0.0000   9999     4270  0     0    
2019/07/18  12:44:01  BASE  5.292    124  7.74396  136  -0.1  63    -6.2  0     0     988.9    NA       0.0000   9999     4130  0     0    
2019/07/18  12:45:01  BASE  5.86824  126  7.74396  136  -0.1  64    -6.1  0     0     988.8    NA       0.0000   9999     3900  0     0    
2019/07/18  12:46:01  BASE  6.0564   124  7.53228  129  -0.1  65    -5.9  0     0     988.7    NA       0.0000   9999     3670  0     0    
2019/07/18  12:47:01  BASE  6.47388  126  7.53228  129  0.0   65    -5.9  0     0     988.7    NA       0.0000   9999     4000  0     0    
2019/07/18  12:48:01  BASE  6.01524  132  7.53228  129  0.1   64    -5.8  0     0     988.7    NA       0.0000   9999     3900  0     0    
2019/07/18  12:49:01  BASE  5.78004  139  7.53228  129  0.3   64    -5.7  0     0     988.7    NA       0.0000   9999     3840  0     0    
2019/07/18  12:50:01  BASE  6.39744  139  7.53228  129  0.4   63    -5.8  0     0     988.6    NA       0.0000   9999     3510  0     0    
2019/07/18  12:51:01  BASE  6.321    145  7.53228  129  0.5   63    -5.9  0     0     988.5    NA       0.0000   9999     3310  0     0    
2019/07/18  12:52:01  BASE  5.52132  145  7.53228  129  0.5   63    -5.7  0     0     988.5    NA       0.0000   9999     3450  0     0    
2019/07/18  12:53:01  BASE  5.43312  140  7.53228  129  0.6   64    -5.4  0     0     988.6    NA       0.0000   9999     3120  0     0    
2019/07/18  12:54:01  BASE  5.59776  134  8.379    128  0.7   65    -5.1  0     0     988.6    NA       0.0000   9999     3180  0     0    
2019/07/18  12:55:01  BASE  6.46212  129  8.379    128  0.8   66    -4.8  0     0     988.5    NA       0.0000   9999     3150  0     0    
2019/07/18  12:56:01  BASE  6.48564  134  8.379    128  1.0   67    -4.5  0     0     988.5    NA       0.0000   9999     2820  3480  0    
2019/07/18  12:57:01  BASE  6.51504  132  8.379    128  1.1   67    -4.4  0     0     988.5    NA       0.0000   9999     3480  0     0    
2019/07/18  12:58:01  BASE  6.89136  114  8.86116  95   1.1   67    -4.4  0     0     988.6    NA       0.0000   9999     2950  0     0    
2019/07/18  12:59:01  BASE  4.89804  97   8.86116  95   1.1   67    -4.4  0     0     988.7    NA       0.0000   9999     3220  0     0    
2019/07/18  13:00:01  BASE  3.05172  105  8.86116  95   1.1   67    -4.4  0     0     988.6    NA       0.0000   9999     2950  0     0    
2019/07/18  13:01:01  BASE  2.07564  64   8.86116  95   0.9   67    -4.5  0     0     988.6    NA       0.0000   9999     3120  0     0    
2019/07/18  13:02:01  BASE  2.58132  78   8.86116  95   0.9   67    -4.6  0     0     988.7    NA       0.0000   9999     3180  0     0    
2019/07/18  13:03:01  BASE  4.4982   123  8.86116  95   0.8   67    -4.7  0     0     988.7    NA       0.0000   9999     3250  0     0    
2019/07/18  13:04:01  BASE  5.12148  122  8.86116  95   0.6   66    -5.0  0     0     988.6    NA       0.0000   9999     3150  0     0    
2019/07/18  13:05:01  BASE  6.18576  124  8.86116  95   0.5   66    -5.2  0     0     988.5    NA       0.0000   9999     3220  0     0    
2019/07/18  13:06:01  BASE  8.16732  128  10.1018  128  0.5   65    -5.2  0     0     988.3    NA       0.0000   9999     3220  0     0    
2019/07/18  13:07:01  BASE  8.88468  129  10.1018  128  0.4   65    -5.3  0     0     988.3    NA       0.0000   9999     3080  0     0    
2019/07/18  13:08:01  BASE  9.06696  128  10.1018  128  0.3   65    -5.4  0     0     988.3    NA       0.0000   9999     3050  0     0    
2019/07/18  13:09:01  BASE  8.56716  130  10.1018  128  0.2   66    -5.4  0     0     988.4    NA       0.0000   9999     3080  0     0    
2019/07/18  13:10:01  BASE  6.45624  125  10.1018  128  0.2   66    -5.3  0     0     988.4    NA       0.0000   9999     3050  0     0    
2019/07/18  13:11:01  BASE  6.16224  121  10.1018  128  0.2   67    -5.2  0     0     988.3    NA       0.0000   9999     2950  0     0    
2019/07/18  13:12:01  BASE  7.94388  124  10.1018  128  0.2   67    -5.1  0     0     988.3    NA       0.0000   9999     2950  0     0    
2019/07/18  13:13:01  BASE  7.72044  121  10.1018  128  0.3   67    -5.0  0     0     988.4    NA       0.0000   9999     2920  0     0    
2019/07/18  13:14:01  BASE  7.1148   117  10.1018  128  0.4   67    -5.0  0     0     988.4    NA       0.0000   9999     2950  0     0    
2019/07/18  13:15:01  BASE  8.41428  122  10.1018  128  0.4   67    -5.0  0     0     988.3    NA       0.0000   9999     3870  0     0    
2019/07/18  13:16:01  BASE  9.66672  130  10.978   136  0.4   67    -5.1  0     0     988.2    NA       0.0000   9999     3870  0     0    
2019/07/18  13:17:01  BASE  10.2841  130  11.7365  128  0.3   67    -5.2  0     0     988.2    NA       0.0000   9999     3940  4990  0    
2019/07/18  13:18:01  BASE  9.39036  129  11.7365  128  0.3   67    -5.2  0     0     988.3    NA       0.0000   9999     3580  0     0    
2019/07/18  13:19:01  BASE  7.92036  128  11.7365  128  0.2   67    -5.1  0     0     988.4    NA       0.0000   9999     3710  0     0    
2019/07/18  13:20:01  BASE  8.6142   126  11.7365  128  0.3   68    -5.0  0     0     988.3    NA       0.0000   9999     3900  4860  0    
2019/07/18  13:21:01  BASE  9.00816  126  11.7365  128  0.2   68    -4.9  0     0     988.4    NA       0.0000   9999     4790  0     0    
2019/07/18  13:22:01  BASE  8.57304  125  11.7365  128  0.2   69    -4.9  0     0     988.4    NA       0.0000   9999     920   4890  0    
2019/07/18  13:23:01  BASE  7.63812  134  11.7365  128  0.2   69    -4.9  0     0     988.4    NA       0.0000   9999     690   4890  0    
2019/07/18  13:24:01  BASE  5.10384  131  11.7365  128  0.1   69    -4.9  0     0     988.5    NA       0.0000   9999     390   0     0    
2019/07/18  13:25:01  BASE  4.83336  117  11.7365  128  0.1   69    -4.9  1     0     988.5    NA       0.0000   9999     5120  0     0    
2019/07/18  13:26:01  BASE  6.16812  119  11.7365  128  0.1   70    -4.7  1     0     988.5    NA       0.0000   -SN      4000  5020  0    
2019/07/18  13:27:01  BASE  5.86824  122  10.6487  126  0.2   71    -4.5  1     0     988.4    NA       0.0000   -SN      2700  5090  0    
2019/07/18  13:28:01  BASE  4.39824  123  10.6487  126  0.3   71    -4.3  1     0     988.5    NA       0.0000   -SN      5000  5250  0    
2019/07/18  13:29:01  BASE  4.41     88   10.6487  126  0.4   73    -3.9  1     0     988.4    NA       0.0000   -SN      9999  4990  0    
2019/07/18  13:30:01  BASE  6.01524  46   10.043   120  0.7   74    -3.4  1     0     988.3    NA       0.0000   -SN      9999  5250  0    
2019/07/18  13:31:01  BASE  6.6738   36   10.043   120  0.9   75    -3.0  1     0     988.2    NA       0.0000   -SN      9999  5120  0    
2019/07/18  13:32:01  BASE  7.47348  35   10.1959  37   1.1   77    -2.5  1     0     988.2    NA       0.0000   -SN      9999  5250  0    
2019/07/18  13:33:01  BASE  7.47348  36   10.1959  37   1.4   78    -2.0  1     0     988.2    NA       0.0000   -SN      9999  5150  0    
2019/07/18  13:34:01  BASE  8.13204  36   11.3131  39   1.5   80    -1.6  1     0     988.1    NA       0.0000   -SN      9999  5250  0    
2019/07/18  13:35:01  BASE  9.23748  39   12.0364  29   1.6   81    -1.4  1     0     988.1    NA       0.0000   -SN      9999  5250  0    
2019/07/18  13:36:01  BASE  9.59028  42   12.0364  29   1.6   81    -1.2  1     0     988.0    NA       0.0000   -SN      9999  5450  0    
2019/07/18  13:37:01  BASE  10.631   42   12.0364  29   1.7   82    -1.1  1     0     988.0    NA       0.0000   -SN      9999  5940  0    
2019/07/18  13:38:01  BASE  10.878   39   12.0364  29   1.7   82    -1.0  1     0     988.0    NA       0.0000   9999     6270  0     0    
2019/07/18  13:39:01  BASE  10.584   39   12.0364  29   1.8   82    -1.0  1     0     988.0    NA       0.0000   9999     5740  6530  0    
2019/07/18  13:40:01  BASE  10.5428  41   12.0364  29   1.8   82    -1.0  1     0     988.0    NA       0.0000   9999     5680  0     0    
2019/07/18  13:41:01  BASE  10.6546  43   12.0364  29   1.8   81    -1.1  1     0     988.0    NA       0.0000   9999     6300  0     0    
2019/07/18  13:42:01  BASE  10.6722  42   12.0364  29   1.7   81    -1.2  1     0     988.0    NA       0.0000   9999     5770  7120  0    
2019/07/18  13:43:01  BASE  10.6369  41   12.0364  29   1.6   81    -1.3  1     0     988.0    NA       0.0000   9999     5150  0     0    
2019/07/18  13:44:01  BASE  10.684   39   12.0364  29   1.6   81    -1.3  1     0     988.0    NA       0.0000   -SN      6000  5970  0    
2019/07/18  13:45:01  BASE  10.3958  36   11.8894  37   1.6   81    -1.3  1     0     988.0    NA       0.0000   -SN      3300  5770  0    
2019/07/18  13:46:01  BASE  10.1489  36   11.8894  37   1.6   82    -1.3  1     0     988.0    NA       0.0000   -SN      2400  5910  0    
2019/07/18  13:47:01  BASE  10.0136  41   11.86    31   1.6   82    -1.2  1     0     988.0    NA       0.0000   -SN      1900  6100  0    
2019/07/18  13:48:01  BASE  9.6138   44   11.86    31   1.6   83    -1.1  1     0     988.0    NA       0.0000   -SN      2100  6100  0    
2019/07/18  13:49:01  BASE  9.6726   43   11.86    31   1.6   83    -1.0  2     0     987.9    NA       0.0000   -SN      4600  5870  6760 
2019/07/18  13:50:01  BASE  9.95484  44   11.86    31   1.6   84    -0.9  2     0     987.9    NA       0.0000   -SN      9999  5740  0    
2019/07/18  13:51:01  BASE  10.2194  43   11.86    31   1.6   84    -0.8  2     0     987.8    NA       0.0000   -SN      9999  5680  0    
2019/07/18  13:52:01  BASE  10.9486  42   12.8537  46   1.6   85    -0.7  2     0     987.7    NA       0.0000   -SN      9999  7510  0    
2019/07/18  13:53:00  BASE  11.4719  38   13.9474  38   1.6   85    -0.6  2     0     987.7    NA       0.0000   -SN      9999  6200  0    
2019/07/18  13:54:01  BASE  11.419   36   13.9474  38   1.7   85    -0.6  2     0     987.7    NA       0.0000   -SN      9999  7090  0    
2019/07/18  13:55:01  BASE  11.1602  35   13.9474  38   1.7   85    -0.5  2     0     987.7    NA       0.0000   -SN      9999  6460  0    
2019/07/18  13:56:01  BASE  11.2132  35   13.9474  38   1.8   85    -0.5  2     0     987.7    NA       0.0000   -SN      9999  6500  0    
2019/07/18  13:57:00  BASE  10.6075  37   13.9474  38   1.8   85    -0.5  2     0     987.8    NA       0.0000   -SN      9999  6560  0    
2019/07/18  13:58:00  BASE  10.2782  41   13.9474  38   1.8   85    -0.5  2     0     987.8    NA       0.0000   -SN      9999  6730  0    
2019/07/18  13:59:01  BASE  11.3954  42   13.9474  38   1.8   85    -0.5  2     0     987.7    NA       0.0000   -SN      9999  6760  0    
2019/07/18  14:00:00  BASE  11.2484  41   13.9474  38   1.8   84    -0.6  3     0     987.7    NA       0.0000   -SN      9999  6890  0    
2019/07/18  14:01:00  BASE  10.7486  39   13.9474  38   1.7   84    -0.6  3     0     987.7    NA       0.0000   -SN      9999  6990  0    
2019/07/18  14:02:01  BASE  10.9368  39   13.9474  38   1.7   84    -0.7  3     0     987.7    NA       0.0000   -SN      9999  7250  0    
2019/07/18  14:03:00  BASE  10.8545  39   13.8239  35   1.7   84    -0.7  3     0     987.6    NA       0.0000   -SN      9999  12430 0    
2019/07/18  14:04:01  BASE  10.4017  37   13.8239  35   1.7   84    -0.7  3     0     987.7    NA       0.0000   -SN      9999  0     0    
2019/07/18  14:05:01  BASE  9.80196  37   13.8239  35   1.7   84    -0.7  3     0     987.7    NA       0.0000   -SN      9999  0     0    
2019/07/18  14:06:01  BASE  10.337   37   13.8239  35   1.7   84    -0.7  4     0     987.7    NA       0.0000   -SN      9999  0     0    
2019/07/18  14:07:00  BASE  10.6604  39   13.8239  35   1.7   84    -0.7  4     0     987.7    NA       0.0000   -SN      9999  0     0    
2019/07/18  14:08:01  BASE  9.86664  40   13.8239  35   1.7   84    -0.7  4     0     987.7    NA       0.0000   -SN      9999  0     0    
2019/07/18  14:09:00  BASE  9.77844  39   12.248   39   1.7   84    -0.7  4     0     987.7    NA       0.0000   -SN      9999  0     0    
2019/07/18  14:10:00  BASE  10.0724  36   12.248   39   1.7   84    -0.7  4     0     987.7    NA       0.0000   -SN      9999  0     0    
2019/07/18  14:11:01  BASE  9.97836  37   12.9184  48   1.8   83    -0.7  5     0     987.8    NA       0.0000   9999     0     0     0    
2019/07/18  14:12:00  BASE  9.91368  37   12.9184  48   1.8   83    -0.7  5     0     987.7    NA       0.0000   9999     0     0     0    
2019/07/18  14:13:00  BASE  9.60792  40   12.9184  48   1.9   83    -0.8  5     0     987.8    NA       0.0000   9999     12470 0     0    
2019/07/18  14:14:00  BASE  9.5256   40   12.9184  48   1.9   82    -0.8  5     0     987.8    NA       0.0000   9999     12500 0     0    
2019/07/18  14:15:00  BASE  9.702    38   12.9184  48   1.9   82    -0.9  6     0     987.8    NA       0.0000   9999     12400 0     0    
2019/07/18  14:16:01  BASE  9.8196   38   12.9184  48   1.9   81    -1.0  6     0     987.7    NA       0.0000   9999     13220 0     0    
2019/07/18  14:17:00  BASE  10.3076  37   12.9184  48   1.9   81    -1.1  6     0     987.7    NA       0.0000   9999     12990 0     0    
2019/07/18  14:18:00  BASE  10.0548  38   12.9184  48   1.9   80    -1.1  6     0     987.8    NA       0.0000   9999     8370  0     0    
2019/07/18  14:19:00  BASE  9.7902   38   12.9184  48   2.0   80    -1.1  7     0     987.7    NA       0.0000   9999     8240  0     0    
2019/07/18  14:20:00  BASE  9.51972  37   12.9184  48   2.0   80    -1.1  7     0     987.8    NA       0.0000   9999     12070 0     0    
2019/07/18  14:21:00  BASE  8.74944  42   11.86    37   2.0   80    -1.1  7     0     987.9    NA       0.0000   9999     8170  12040 0    
2019/07/18  14:22:00  BASE  8.54952  42   11.5836  23   2.0   80    -1.1  7     0     987.8    NA       0.0000   9999     7870  0     0    
2019/07/18  14:23:00  BASE  8.56128  43   11.5836  23   2.0   80    -1.2  7     0     987.9    NA       0.0000   9999     7910  0     0    
2019/07/18  14:24:00  BASE  9.50796  43   12.7655  40   2.0   80    -1.2  7     0     987.8    NA       0.0000   9999     7710  0     0    
2019/07/18  14:25:01  BASE  9.996    42   12.7655  40   1.9   80    -1.2  8     0     987.8    NA       0.0000   9999     7680  0     0    
2019/07/18  14:26:00  BASE  9.67848  44   12.7655  40   1.9   80    -1.2  8     0     987.8    NA       0.0000   9999     7780  0     0    
2019/07/18  14:27:00  BASE  10.4311  42   12.7655  40   1.8   80    -1.2  8     0     987.7    NA       0.0000   9999     7810  0     0    
2019/07/18  14:28:00  BASE  11.1602  41   13.7651  37   1.7   80    -1.3  8     0     987.7    NA       0.0000   9999     8010  0     0    
2019/07/18  14:29:00  BASE  11.2955  42   14.8823  30   1.7   80    -1.3  9     0     987.7    NA       0.0000   9999     8300  0     0    
2019/07/18  14:30:00  BASE  11.9482  42   14.8823  30   1.6   80    -1.4  9     0     987.6    NA       0.0000   7000     8400  0     0    
2019/07/18  14:31:00  BASE  11.7718  42   14.8823  30   1.6   80    -1.5  9     0     987.7    NA       0.0000   5000     0     0     0    
2019/07/18  14:32:01  BASE  11.1014  41   14.8823  30   1.6   80    -1.5  10    0     987.7    NA       0.0000   9999     13940 0     0    
2019/07/18  14:33:00  BASE  11.5248  40   14.8823  30   1.6   80    -1.5  10    0     987.6    NA       0.0000   -SN      8000  13910 0    
2019/07/18  14:34:00  BASE  11.9658  40   14.8823  30   1.5   80    -1.5  10    0     987.6    NA       0.0000   -SN      7000  8140  13910
2019/07/18  14:35:00  BASE  11.7659  40   14.8823  30   1.5   81    -1.4  10    0     987.6    NA       0.0000   -SN      9999  0     0    
2019/07/18  14:36:00  BASE  11.6836  39   14.8823  30   1.6   81    -1.4  11    0     987.6    NA       0.0000   -SN      9999  0     0    
2019/07/18  14:37:00  BASE  12.1187  38   14.8823  30   1.6   81    -1.3  11    0     987.6    NA       0.0000   -SN      9000  0     0    
2019/07/18  14:38:01  BASE  11.9188  39   14.8823  30   1.7   81    -1.3  11    0     987.7    NA       0.0000   -SN      9999  0     0    
2019/07/18  14:39:00  BASE  11.7365  41   14.7941  43   1.7   81    -1.3  12    0     987.7    NA       0.0000   -SN      9000  0     0    
2019/07/18  14:40:00  BASE  11.4719  40   14.7941  43   1.7   80    -1.3  12    0     987.7    NA       0.0000   -SN      9000  8960  0    
2019/07/18  14:41:00  BASE  11.1602  39   14.7941  43   1.7   80    -1.4  12    0     987.7    NA       0.0000   -SN      9999  8790  0    
2019/07/18  14:42:01  BASE  11.6365  41   14.7941  43   1.7   80    -1.4  13    0     987.6    NA       0.0000   -SN      9999  8790  0    
2019/07/18  14:43:00  BASE  11.8012  38   14.7941  43   1.6   80    -1.5  13    0     987.6    NA       0.0000   -SN      9000  13910 0    
2019/07/18  14:44:00  BASE  11.4836  36   14.7941  43   1.6   80    -1.5  13    0     987.6    NA       0.0000   -SN      6000  13980 0    
2019/07/18  14:45:00  BASE  11.0779  39   14.7941  43   1.6   79    -1.5  13    0     987.7    NA       0.0000   -SN      9999  13880 0    
2019/07/18  14:46:00  BASE  11.5601  40   14.2472  45   1.7   79    -1.5  14    0     987.6    NA       0.0000   -SN      9999  14010 0    
2019/07/18  14:47:01  BASE  12.4421  40   15.3997  35   1.7   79    -1.5  14    0     987.6    NA       0.0000   -SN      9999  14010 0    
2019/07/18  14:48:01  BASE  11.8776  39   15.3997  35   1.7   79    -1.5  14    0     987.7    NA       0.0000   -SN      9999  14110 0    
2019/07/18  14:49:01  BASE  11.3543  39   15.3997  35   1.8   79    -1.5  15    0     987.6    NA       0.0000   -SN      9999  14110 0    
2019/07/18  14:50:01  BASE  11.5895  37   15.3997  35   1.8   79    -1.5  15    0     987.6    NA       0.0000   -SN      9999  14080 0    
2019/07/18  14:51:01  BASE  11.4719  39   15.3997  35   1.8   78    -1.6  15    0     987.7    NA       0.0000   -SN      9999  14170 0    
2019/07/18  14:52:01  BASE  11.66    38   15.3997  35   1.8   78    -1.6  15    0     987.6    NA       0.0000   -SN      9999  14630 0    
2019/07/18  14:53:01  BASE  11.8012  37   15.3997  35   1.8   78    -1.6  15    0     987.7    NA       0.0000   -SN      9999  0     0    
2019/07/18  14:54:01  BASE  11.0603  39   15.3997  35   1.8   78    -1.7  16    0     987.7    NA       0.0000   -SN      9999  0     0    
2019/07/18  14:55:01  BASE  11.3837  36   15.3997  35   1.8   78    -1.7  16    0     987.6    NA       0.0000   9999     14210 0     0    
2019/07/18  14:56:01  BASE  11.66    37   15.3997  35   1.8   78    -1.7  16    0     987.7    NA       0.0000   -SN      9999  0     0    
2019/07/18  14:57:01  BASE  11.5895  41   14.2472  39   1.8   78    -1.7  17    0     987.6    NA       0.0000   -SN      9999  0     0    
2019/07/18  14:58:01  BASE  12.1716  38   14.2472  39   1.8   78    -1.7  17    0     987.7    NA       0.0000   9999     0     0     0    
2019/07/18  14:59:01  BASE  12.5185  37   15.1528  40   1.8   78    -1.7  17    0     987.7    NA       0.0000   -SN      8000  0     0    
2019/07/18  15:00:01  BASE  12.6008  39   15.1528  40   1.8   78    -1.6  18    0     987.7    NA       0.0000   -SN      8000  0     0    
2019/07/18  15:01:01  BASE  11.8776  37   15.1528  40   1.8   78    -1.6  18    0     987.7    NA       0.0000   -SN      9999  0     0    
2019/07/18  15:02:01  BASE  11.0485  38   15.1528  40   1.9   78    -1.6  18    0     987.8    NA       0.0000   -SN      9999  13620 0    
2019/07/18  15:03:00  BASE  10.8133  41   15.1528  40   1.9   78    -1.6  18    0     987.8    NA       0.0000   -SN      9999  14340 0    
2019/07/18  15:04:00  BASE  11.1014  43   15.1528  40   1.8   78    -1.6  19    0     987.8    NA       0.0000   -SN      9999  13810 0    
2019/07/18  15:05:01  BASE  11.2602  42   15.1528  40   1.8   78    -1.6  19    0     987.8    NA       0.0000   -SN      9999  14210 0    
2019/07/18  15:06:01  BASE  10.8721  43   15.1528  40   1.8   79    -1.6  19    0     987.9    NA       0.0000   -SN      9000  14210 0    
2019/07/18  15:07:00  BASE  10.6016  46   15.1528  40   1.7   79    -1.5  19    0     988.0    NA       0.0000   -SN      9999  14140 0    
2019/07/18  15:08:01  BASE  10.484   45   15.1528  40   1.7   79    -1.6  19    0     988.0    NA       0.0000   -SN      9999  14140 0    
2019/07/18  15:09:01  BASE  10.1018  44   13.4887  36   1.6   79    -1.6  20    0     988.0    NA       0.0000   9999     14040 0     0    
2019/07/18  15:10:01  BASE  9.92544  43   12.5832  34   1.6   79    -1.6  20    0     988.0    NA       0.0000   9999     13910 0     0    
2019/07/18  15:11:00  BASE  9.77844  44   12.5538  41   1.6   79    -1.6  20    0     988.0    NA       0.0000   9999     11810 0     0    
2019/07/18  15:12:01  BASE  9.89604  44   12.5538  41   1.6   80    -1.5  20    0     987.9    NA       0.0000   9999     11780 14340 0    
2019/07/18  15:13:00  BASE  10.1959  43   12.495   55   1.7   80    -1.4  20    0     987.9    NA       0.0000   9999     11840 14370 0    
2019/07/18  15:14:00  BASE  9.79608  42   12.1892  36   1.8   80    -1.3  21    0     988.0    NA       0.0000   9999     14470 0     0    
2019/07/18  15:15:00  BASE  9.04932  39   11.9776  54   1.8   80    -1.3  21    0     988.0    NA       0.0000   9999     11910 13710 0    
2019/07/18  15:16:00  BASE  9.7608   37   13.9768  36   1.9   80    -1.2  21    0     987.9    NA       0.0000   9999     13550 0     0    
2019/07/18  15:17:00  BASE  10.5958  37   13.9768  36   1.9   81    -1.1  21    0     987.9    NA       0.0000   9999     11840 13450 0    
2019/07/18  15:18:00  BASE  10.3664  38   13.9768  36   2.0   81    -1.0  21    0     987.9    NA       0.0000   9999     11780 13480 0    
2019/07/18  15:19:00  BASE  10.6957  37   13.9768  36   2.0   81    -0.9  21    0     987.8    NA       0.0000   9999     11750 13480 0    
2019/07/18  15:20:01  BASE  11.0838  36   14.7588  39   2.0   82    -0.7  21    0     987.9    NA       0.0000   9999     13420 0     0    
2019/07/18  15:21:00  BASE  11.3131  36   14.7588  39   2.1   82    -0.6  21    0     987.8    NA       0.0000   9999     13420 0     0    
2019/07/18  15:22:01  BASE  10.8251  35   14.7588  39   2.1   82    -0.6  21    0     987.9    NA       0.0000   9999     13390 0     0    
2019/07/18  15:23:01  BASE  9.71964  38   14.7588  39   2.2   82    -0.6  21    0     988.0    NA       0.0000   9999     13390 0     0    
2019/07/18  15:24:00  BASE  9.28452  39   14.7588  39   2.2   82    -0.6  21    0     988.0    NA       0.0000   9999     11840 13320 0    
2019/07/18  15:25:00  BASE  9.0552   38   14.7588  39   2.2   82    -0.6  21    0     988.0    NA       0.0000   9999     13320 0     0    
2019/07/18  15:26:00  BASE  9.30804  38   14.7588  39   2.2   82    -0.6  21    0     987.9    NA       0.0000   9999     13290 0     0    
2019/07/18  15:27:00  BASE  9.82548  40   14.7588  39   2.1   82    -0.6  22    0     987.9    NA       0.0000   9999     11710 13350 0    
2019/07/18  15:28:00  BASE  9.66084  42   14.7588  39   2.1   82    -0.6  22    0     987.9    NA       0.0000   9999     11750 13480 0    
2019/07/18  15:29:00  BASE  9.50208  43   14.7588  39   2.1   82    -0.6  22    0     988.0    NA       0.0000   9999     11580 0     0    
2019/07/18  15:30:00  BASE  9.555    43   14.4001  38   2.1   82    -0.6  22    0     988.0    NA       0.0000   9999     11680 0     0    
2019/07/18  15:31:00  BASE  10.29    41   12.2186  42   2.1   83    -0.6  23    0     987.9    NA       0.0000   9999     11710 0     0    
2019/07/18  15:32:00  BASE  10.3664  40   12.2186  42   2.1   83    -0.5  23    0     988.0    NA       0.0000   9999     11940 0     0    
2019/07/18  15:33:00  BASE  9.60792  45   12.2186  42   2.1   83    -0.5  24    0     988.0    NA       0.0000   9999     11910 0     0    
2019/07/18  15:34:00  BASE  9.56676  45   12.2186  42   2.2   83    -0.4  25    0     987.9    NA       0.0000   9999     11940 0     0    
2019/07/18  15:35:00  BASE  9.99012  39   12.3715  36   2.2   83    -0.5  25    0     987.9    NA       0.0000   9999     11940 0     0    
2019/07/18  15:36:00  BASE  10.9603  36   12.8243  34   2.2   83    -0.5  26    0     987.8    NA       0.0000   9999     11980 12500 0    
2019/07/18  15:37:00  BASE  11.6248  38   13.3123  27   2.2   82    -0.5  26    0     987.8    NA       0.0000   9999     12010 0     0    
2019/07/18  15:38:00  BASE  10.9721  40   13.3123  27   2.1   82    -0.6  27    0     987.8    NA       0.0000   9999     12140 0     0    
2019/07/18  15:39:00  BASE  11.1308  39   13.5534  30   2.1   81    -0.7  28    0     987.8    NA       0.0000   7000     12170 0     0    
2019/07/18  15:40:01  BASE  11.5483  37   13.5534  30   2.1   81    -0.8  28    0     987.8    NA       0.0000   4900     12110 0     0    
2019/07/18  15:41:00  BASE  10.831   36   13.5534  34   2.1   81    -0.9  29    0     987.8    NA       0.0000   9999     12210 12730 0    
2019/07/18  15:42:00  BASE  10.1077  41   13.5534  34   2.0   81    -1.0  30    0     987.8    NA       0.0000   9999     12110 0     0    
2019/07/18  15:43:00  BASE  9.99012  44   14.159   43   2.0   80    -1.0  30    0     987.8    NA       0.0000   9000     12170 0     0    
2019/07/18  15:44:00  BASE  11.0485  42   14.159   43   2.0   81    -1.0  31    0     987.8    NA       0.0000   9999     12140 0     0    
2019/07/18  15:45:01  BASE  11.2132  40   14.159   43   2.0   80    -1.0  32    0     987.8    NA       0.0000   HZ       9999  13030 0    
2019/07/18  15:46:01  BASE  10.6075  39   14.159   43   2.0   80    -1.1  32    0     987.8    NA       0.0000   HZ       9999  12400 0    
2019/07/18  15:47:00  BASE  10.7898  40   14.5471  40   2.0   80    -1.1  33    0     987.8    NA       0.0000   HZ       9999  12470 0    
2019/07/18  15:48:01  BASE  11.3014  41   14.5471  40   2.0   80    -1.0  34    0     987.8    NA       0.0000   HZ       9999  12960 0    
2019/07/18  15:49:00  BASE  10.978   38   14.5471  40   2.0   80    -1.0  34    0     987.8    NA       0.0000   HZ       9999  13120 0    
2019/07/18  15:50:01  BASE  10.3429  39   14.5471  40   2.1   80    -1.1  35    0     987.9    NA       0.0000   9999     12370 0     0    
2019/07/18  15:51:00  BASE  10.29    43   14.5471  40   2.1   80    -1.1  35    0     987.9    NA       0.0000   9999     12340 0     0    
2019/07/18  15:52:01  BASE  11.1896  39   14.5471  40   2.1   79    -1.1  35    0     987.8    NA       0.0000   9999     12400 0     0    
2019/07/18  15:53:00  BASE  11.9482  35   14.5471  40   2.1   79    -1.2  36    0     987.8    NA       0.0000   9999     12470 0     0    
2019/07/18  15:54:01  BASE  11.1132  36   14.5471  40   2.1   79    -1.2  36    0     987.9    NA       0.0000   9999     12570 0     0    
2019/07/18  15:55:00  BASE  10.8368  36   14.5471  40   2.0   79    -1.2  36    0     987.9    NA       0.0000   9999     12600 0     0    
2019/07/18  15:56:01  BASE  10.7604  36   14.5471  40   2.0   79    -1.1  36    0     987.9    NA       0.0000   9999     12530 0     0    
2019/07/18  15:57:00  BASE  10.3253  38   14.2472  36   2.0   80    -1.1  36    0     987.9    NA       0.0000   9999     12660 0     0    
2019/07/18  15:58:00  BASE  10.4135  39   14.2472  36   2.0   80    -1.1  36    0     988.0    NA       0.0000   9999     12700 16310 0    
2019/07/18  15:59:00  BASE  9.39624  40   14.2472  36   2.0   80    -1.1  35    0     988.1    NA       0.0000   9999     12800 13810 0    
2019/07/18  16:00:00  BASE  7.93212  36   14.2472  36   2.0   80    -1.1  35    0     988.1    NA       0.0000   9999     12890 13850 0    
2019/07/18  16:01:00  BASE  7.33236  35   14.2472  36   2.0   80    -1.1  34    0     988.1    NA       0.0000   9999     12930 0     0    
2019/07/18  16:02:00  BASE  8.26728  38   14.2178  36   1.9   80    -1.2  34    0     988.1    NA       0.0000   9999     12930 0     0    
2019/07/18  16:03:01  BASE  8.85528  38   14.2178  36   1.9   80    -1.2  33    0     988.1    NA       0.0000   9999     12990 14040 0    
2019/07/18  16:04:00  BASE  8.04384  36   14.2178  36   1.9   80    -1.2  32    0     988.1    NA       0.0000   9999     12990 14080 0    
2019/07/18  16:05:00  BASE  8.526    36   14.2178  36   1.9   81    -1.1  32    0     988.0    NA       0.0000   9999     13060 14340 0    
2019/07/18  16:06:00  BASE  8.86704  37   14.2178  36   1.9   81    -1.1  31    0     988.1    NA       0.0000   9999     13060 13980 0    
2019/07/18  16:07:00  BASE  8.6436   41   12.101   28   1.9   81    -1.0  31    0     988.1    NA       0.0000   9999     13060 14010 0    
2019/07/18  16:08:00  BASE  8.75532  42   11.5248  41   1.9   81    -1.0  31    0     988.1    NA       0.0000   9999     13030 13880 0    
2019/07/18  16:09:00  BASE  8.56716  42   11.5248  41   1.9   81    -1.0  31    0     988.2    NA       0.0000   9999     13060 13910 16630
2019/07/18  16:10:00  BASE  7.66164  45   11.5248  41   1.9   81    -1.1  31    0     988.2    NA       0.0000   9999     13060 16370 0    
2019/07/18  16:11:00  BASE  7.37352  47   11.5248  41   1.9   81    -1.1  32    0     988.2    NA       0.0000   9999     13060 16540 0    
2019/07/18  16:12:00  BASE  7.93212  48   11.3719  32   1.9   81    -1.0  32    0     988.2    NA       0.0000   9999     13160 0     0    
2019/07/18  16:13:00  BASE  8.37312  48   11.3719  32   1.9   81    -1.0  33    0     988.2    NA       0.0000   9999     13220 16700 0    
2019/07/18  16:14:01  BASE  8.34372  47   11.3719  32   1.9   81    -1.0  34    0     988.3    NA       0.0000   9999     13320 16730 0    
2019/07/18  16:15:00  BASE  7.65576  49   11.1896  31   2.0   81    -0.9  35    0     988.3    NA       0.0000   9999     13420 0     0    
2019/07/18  16:16:00  BASE  7.64988  54   11.1896  31   2.0   81    -0.9  36    0     988.2    NA       0.0000   9999     13390 0     0    
2019/07/18  16:17:00  BASE  8.10264  56   11.1896  31   2.0   81    -0.9  37    0     988.3    NA       0.0000   9999     13350 16730 0    
2019/07/18  16:18:00  BASE  8.02032  64   10.4664  40   2.1   81    -0.9  38    0     988.3    NA       0.0000   9999     16830 0     0    
2019/07/18  16:19:00  BASE  7.30884  73   10.1959  54   2.1   81    -0.9  38    0     988.4    NA       0.0000   9999     16960 0     0    
2019/07/18  16:20:00  BASE  6.10344  77   10.1959  54   2.1   81    -0.9  39    0     988.4    NA       0.0000   9999     16930 0     0    
2019/07/18  16:21:00  BASE  5.58012  77   10.1959  54   2.0   81    -0.9  39    0     988.4    NA       0.0000   9999     13780 17000 0    
2019/07/18  16:22:00  BASE  6.09756  75   10.1959  54   2.0   81    -0.9  39    0     988.4    NA       0.0000   9999     13680 17130 0    
2019/07/18  16:23:00  BASE  6.57972  79   10.1959  54   2.0   81    -1.0  40    0     988.3    NA       0.0000   9999     13650 17190 0    
2019/07/18  16:24:00  BASE  5.7624   90   10.1959  54   1.9   81    -1.0  41    0     988.4    NA       0.0000   9999     6140  13580 17160
2019/07/18  16:25:00  BASE  5.03916  94   10.1959  54   1.9   81    -1.1  41    0     988.4    NA       0.0000   9999     6460  13680 0    
2019/07/18  16:26:00  BASE  5.1744   90   9.13752  72   1.8   81    -1.1  41    0     988.4    NA       0.0000   9999     13710 0     0    
2019/07/18  16:27:00  BASE  4.42176  99   9.13752  72   1.8   81    -1.2  42    0     988.4    NA       0.0000   9999     13780 0     0    
2019/07/18  16:28:00  BASE  4.59816  93   8.25552  75   1.7   81    -1.3  42    0     988.4    NA       0.0000   9999     13710 0     0    
2019/07/18  16:29:00  BASE  5.292    86   8.25552  75   1.6   81    -1.3  42    0     988.4    NA       0.0000   9999     13620 0     0    
2019/07/18  16:30:00  BASE  5.20968  91   8.25552  75   1.6   81    -1.2  42    0     988.4    NA       0.0000   9999     13450 0     0    
2019/07/18  16:31:00  BASE  5.06268  92   8.25552  75   1.6   81    -1.3  42    0     988.4    NA       0.0000   9999     13420 0     0    
2019/07/18  16:32:00  BASE  5.60952  88   8.25552  75   1.6   82    -1.2  43    0     988.4    NA       0.0000   9999     13480 0     0    
2019/07/18  16:33:00  BASE  5.79768  77   8.07912  99   1.7   82    -1.1  43    0     988.4    NA       0.0000   9999     13290 0     0    
2019/07/18  16:34:00  BASE  5.145    78   8.07912  99   1.7   82    -1.0  44    0     988.4    NA       0.0000   9999     13350 0     0    
2019/07/18  16:35:00  BASE  5.42724  96   8.07912  99   1.7   82    -1.0  44    0     988.4    NA       0.0000   9999     13420 0     0    
2019/07/18  16:36:00  BASE  5.8212   110  8.07912  99   1.7   82    -1.1  44    0     988.4    NA       0.0000   9999     13450 0     0    
2019/07/18  16:37:00  BASE  5.86824  111  8.07912  99   1.5   82    -1.3  44    0     988.4    NA       0.0000   9999     13550 0     0    
2019/07/18  16:38:00  BASE  6.762    114  10.1959  122  1.2   82    -1.6  44    0     988.3    NA       0.0000   9999     13480 0     0    
2019/07/18  16:39:00  BASE  8.4084   121  10.1959  122  0.9   81    -2.0  43    0     988.2    NA       0.0000   9999     13350 0     0    
2019/07/18  16:40:00  BASE  9.11988  125  11.072   123  0.6   81    -2.3  43    0     988.1    NA       0.0000   9000     13350 0     0    
2019/07/18  16:41:00  BASE  9.7608   120  11.3131  118  0.3   81    -2.5  44    0     988.1    NA       0.0000   UP       9999  13320 0    
2019/07/18  16:42:00  BASE  9.702    123  11.3131  118  0.2   81    -2.6  43    0     988.2    NA       0.0000   UP       9999  13220 16630
2019/07/18  16:43:00  BASE  9.4962   133  11.7071  136  0.1   81    -2.8  43    0     988.1    NA       0.0000   UP       9999  13350 0    
2019/07/18  16:44:00  BASE  10.0019  134  11.7071  136  -0.0  81    -2.9  42    0     988.1    NA       0.0000   UP       9999  13350 0    
2019/07/18  16:45:00  BASE  10.7722  133  12.6126  142  -0.1  81    -2.9  42    0     988.0    NA       0.0000   UP       9999  13090 0    
2019/07/18  16:46:00  BASE  11.0485  129  12.6126  142  -0.2  81    -3.0  42    0     988.2    NA       0.0000   UP       9000  6000  16730
2019/07/18  16:47:00  BASE  10.1842  126  12.6126  142  -0.3  82    -3.1  42    0     988.1    NA       0.0000   UP       9999  6560  16630
2019/07/18  16:48:00  BASE  10.3194  132  12.7067  137  -0.3  82    -3.0  41    0     988.0    NA       0.0000   UP       9000  16500 0    
2019/07/18  16:49:00  BASE  10.2606  131  12.7067  137  -0.4  82    -3.0  40    0     988.1    NA       0.0000   UP       9999  16500 0    
2019/07/18  16:50:00  BASE  10.6957  126  12.7067  137  -0.4  83    -3.0  39    0     988.1    NA       0.0000   UP       9000  16630 0    
2019/07/18  16:51:00  BASE  11.3484  125  12.7067  137  -0.4  83    -2.9  38    0     988.1    NA       0.0000   UP       9999  16700 0    
2019/07/18  16:52:00  BASE  10.5546  123  12.7067  137  -0.4  83    -2.9  38    0     988.2    NA       0.0000   UP       9999  16500 0    
2019/07/18  16:53:00  BASE  9.98424  122  12.7067  137  -0.4  83    -2.9  38    0     988.2    NA       0.0000   UP       9999  16500 0    
2019/07/18  16:54:00  BASE  10.0372  128  12.7067  137  -0.4  83    -2.9  37    0     988.1    NA       0.0000   UP       9999  16800 0    
2019/07/18  16:55:00  BASE  9.92544  136  12.7067  137  -0.4  83    -2.9  37    0     988.1    NA       0.0000   UP       9999  16800 0    
2019/07/18  16:56:00  BASE  9.29628  137  12.7067  137  -0.4  83    -2.9  37    0     988.1    NA       0.0000   UP       9999  16930 0    
2019/07/18  16:57:00  BASE  9.03756  140  12.7067  137  -0.4  83    -3.0  37    0     988.0    NA       0.0000   UP       9999  16930 0    
2019/07/18  16:58:00  BASE  9.43152  141  12.5244  117  -0.4  83    -3.0  36    0     987.9    NA       0.0000   UP       9999  16960 0    
2019/07/18  16:59:00  BASE  9.80196  136  12.5244  117  -0.4  83    -2.9  35    0     987.9    NA       0.0000   UP       9999  17030 0    
2019/07/18  17:00:00  BASE  10.3782  126  12.889   116  -0.4  83    -2.9  35    0     988.0    NA       0.0000   UP       9000  16830 0    
2019/07/18  17:01:00  BASE  9.33156  121  12.889   116  -0.5  84    -2.9  34    0     988.2    NA       0.0000   UP       7000  16570 0    
2019/07/18  17:02:00  BASE  9.24336  121  12.889   116  -0.4  84    -2.8  33    0     988.2    NA       0.0000   UP       7000  16540 0    
2019/07/18  17:03:00  BASE  10.6134  125  12.889   116  -0.3  84    -2.6  33    0     988.1    NA       0.0000   UP       8000  16630 0    
2019/07/18  17:04:00  BASE  10.1783  135  12.889   116  -0.3  84    -2.6  32    0     988.1    NA       0.0000   UP       9999  16830 0    
2019/07/18  17:05:00  BASE  10.6193  137  13.7945  138  -0.3  84    -2.6  31    0     987.8    NA       0.0000   UP       9999  16860 0    
2019/07/18  17:06:00  BASE  11.6836  139  14.4001  135  -0.3  84    -2.6  31    0     987.9    NA       0.2540   UP       9999  16800 0    
2019/07/18  17:07:00  BASE  11.2426  141  14.4001  135  -0.4  84    -2.7  30    0     987.9    NA       0.0000   UP       9000  16930 0    
2019/07/18  17:08:00  BASE  10.3253  138  14.4001  135  -0.4  84    -2.8  30    0     988.0    NA       0.0000   UP       9999  16930 0    
2019/07/18  17:09:00  BASE  11.3543  135  14.4001  135  -0.5  84    -2.8  29    0     987.7    NA       0.0000   UP       9999  16860 0    
2019/07/18  17:10:00  BASE  11.8776  137  14.4001  135  -0.4  84    -2.8  29    0     987.9    NA       0.0000   UP       9000  16630 0    
2019/07/18  17:11:00  BASE  11.219   137  14.4001  135  -0.4  84    -2.8  28    0     987.9    NA       0.0000   UP       9999  16730 0    
2019/07/18  17:12:00  BASE  11.8835  133  14.4001  135  -0.5  84    -2.8  28    0     987.8    NA       0.0000   UP       9999  16630 0    
2019/07/18  17:13:00  BASE  12.1363  132  14.4001  135  -0.5  84    -2.9  27    0     987.8    NA       0.0000   UP       9999  16540 0    
2019/07/18  17:14:00  BASE  11.1426  135  14.4001  135  -0.6  84    -2.9  27    0     987.9    NA       0.0000   UP       9999  16410 0    
2019/07/18  17:15:00  BASE  10.4488  139  14.4001  135  -0.6  84    -3.0  26    0     987.8    NA       0.0000   UP       9999  16270 0    
2019/07/18  17:16:00  BASE  10.6369  139  13.7357  135  -0.7  84    -3.1  26    0     987.8    NA       0.0000   UP       9999  16210 0    
2019/07/18  17:17:00  BASE  11.2602  137  13.7357  135  -0.7  84    -3.1  25    0     987.7    NA       0.0000   UP       9999  16310 0    
2019/07/18  17:18:00  BASE  11.3543  139  13.7357  135  -0.7  84    -3.1  25    0     987.7    NA       0.0000   UP       9999  16310 0    
2019/07/18  17:19:00  BASE  11.3719  140  13.3711  133  -0.7  84    -3.0  24    0     987.6    NA       0.0000   UP       9000  16540 0    
2019/07/18  17:20:00  BASE  11.4484  139  13.3711  133  -0.7  84    -3.0  23    0     987.6    NA       0.0000   UP       9999  16470 0    
2019/07/18  17:21:00  BASE  10.9956  137  13.3711  133  -0.7  85    -3.0  23    0     987.8    NA       0.0000   UP       9999  16370 0    
2019/07/18  17:22:00  BASE  11.1367  143  13.3123  127  -0.7  85    -2.9  22    0     987.6    NA       0.0000   UP       9999  16110 0    
2019/07/18  17:23:00  BASE  11.0838  142  13.036   130  -0.7  85    -2.9  22    0     987.7    NA       0.0000   UP       8000  16270 0    
2019/07/18  17:24:00  BASE  10.4017  132  13.036   130  -0.7  85    -3.0  22    0     987.8    NA       0.0000   UP       9000  16410 0    
2019/07/18  17:25:00  BASE  10.5605  132  13.036   130  -0.8  85    -3.0  21    0     987.8    NA       0.0000   UP       9000  16440 0    
2019/07/18  17:26:00  BASE  11.1367  130  13.036   130  -0.8  85    -3.0  21    0     987.8    NA       0.0000   UP       9999  16540 0    
2019/07/18  17:27:00  BASE  10.8898  128  13.036   130  -0.9  85    -3.1  20    0     987.8    NA       0.0000   UP       9999  16830 0    
2019/07/18  17:28:00  BASE  10.043   127  13.036   130  -0.9  85    -3.1  20    0     988.0    NA       0.0000   UP       9999  16770 0    
2019/07/18  17:29:00  BASE  10.3488  131  12.889   137  -0.9  85    -3.1  19    0     987.8    NA       0.0000   UP       9999  16860 0    
2019/07/18  17:30:00  BASE  10.9133  135  12.7067  131  -0.9  85    -3.0  19    0     987.9    NA       0.0000   9999     16670 0     0    
2019/07/18  17:31:00  BASE  9.04344  139  12.7067  131  -0.9  86    -3.0  18    0     988.1    NA       0.0000   9999     16540 0     0    
2019/07/18  17:32:00  BASE  8.673    139  12.7067  131  -0.8  86    -3.0  18    0     988.0    NA       0.0000   9999     16500 0     0    
2019/07/18  17:33:00  BASE  9.85488  132  12.7067  131  -0.8  86    -2.9  17    0     988.1    NA       0.0000   9999     16570 0     0    
2019/07/18  17:34:00  BASE  10.39    130  12.7067  131  -0.8  86    -2.8  17    0     988.0    NA       0.0000   9999     16670 0     0    
2019/07/18  17:35:00  BASE  10.7663  133  12.642   133  -0.7  86    -2.8  17    0     988.0    NA       0.0000   UP       9999  16600 0    
2019/07/18  17:36:00  BASE  10.7839  129  12.6773  121  -0.7  86    -2.8  17    0     988.0    NA       0.0000   UP       9000  16010 0    
2019/07/18  17:37:00  BASE  10.7486  124  12.6773  121  -0.7  86    -2.8  16    0     988.2    NA       0.0000   UP       9999  16010 0    
2019/07/18  17:38:00  BASE  9.27276  126  12.6773  121  -0.7  86    -2.8  16    0     988.2    NA       0.0000   UP       9999  15780 0    
2019/07/18  17:39:00  BASE  9.07284  131  12.6773  121  -0.8  86    -2.8  16    0     988.1    NA       0.0000   UP       9999  15750 0    
2019/07/18  17:40:00  BASE  10.1489  135  12.6773  121  -0.8  86    -2.9  15    0     988.0    NA       0.0000   UP       9999  15850 0    
2019/07/18  17:41:00  BASE  9.5844   134  12.6773  121  -0.8  86    -2.9  15    0     988.2    NA       0.0000   UP       9999  16010 0    
2019/07/18  17:42:00  BASE  8.60244  129  12.6773  121  -0.9  86    -2.9  14    0     988.3    NA       0.0000   UP       9999  16080 0    
2019/07/18  17:43:00  BASE  7.056    134  12.6773  121  -0.9  86    -2.9  14    0     988.4    NA       0.0000   UP       9999  15950 0    
2019/07/18  17:44:00  BASE  7.1736   139  12.6773  121  -0.9  86    -2.9  14    0     988.2    NA       0.0000   UP       9999  15950 0    
2019/07/18  17:45:00  BASE  7.94976  131  12.6773  121  -0.9  86    -2.9  14    0     988.3    NA       0.0000   UP       9999  15850 0    
2019/07/18  17:46:00  BASE  7.07364  125  12.6126  131  -0.9  86    -2.9  14    0     988.3    NA       0.0000   UP       9999  15750 0    
2019/07/18  17:47:00  BASE  7.29708  114  12.6126  131  -0.8  86    -2.8  13    0     988.3    NA       0.0000   9999     15650 0     0    
2019/07/18  17:48:00  BASE  7.76748  114  12.6126  131  -0.6  86    -2.7  13    0     988.4    NA       0.0000   9999     15880 0     0    
2019/07/18  17:49:00  BASE  7.18536  125  12.248   129  -0.6  86    -2.6  13    0     988.4    NA       0.0000   9999     16080 0     0    
2019/07/18  17:50:00  BASE  6.42096  122  9.80196  130  -0.5  86    -2.5  13    0     988.3    NA       0.0000   9999     16110 0     0    
2019/07/18  17:51:00  BASE  6.22104  111  9.64908  99   -0.3  86    -2.4  12    0     988.4    NA       0.0000   9999     16500 0     0    
2019/07/18  17:52:00  BASE  6.44448  114  9.64908  99   -0.3  86    -2.3  12    0     988.4    NA       0.0000   9999     16800 0     0    
2019/07/18  17:53:00  BASE  7.27944  127  9.64908  99   -0.3  86    -2.4  12    0     988.2    NA       0.0000   9999     17130 0     0    
2019/07/18  17:54:00  BASE  7.12656  129  9.64908  99   -0.4  85    -2.5  12    0     988.3    NA       0.0000   9999     17130 0     0    
2019/07/18  17:55:00  BASE  5.76828  121  9.64908  99   -0.4  85    -2.6  11    0     988.4    NA       0.0000   9999     16210 0     0    
2019/07/18  17:56:00  BASE  5.12148  112  9.64908  99   -0.5  85    -2.8  11    0     988.4    NA       0.0000   9999     16930 0     0    
2019/07/18  17:57:00  BASE  5.03328  111  9.13752  119  -0.6  85    -2.9  11    0     988.4    NA       0.0000   9999     16770 0     0    
2019/07/18  17:58:00  BASE  6.2622   111  9.04344  129  -0.6  85    -2.9  11    0     988.3    NA       0.0000   9999     16800 0     0    
2019/07/18  17:59:00  BASE  6.47388  107  9.04344  129  -0.6  85    -2.8  10    0     988.3    NA       0.0000   9999     16670 0     0    
2019/07/18  18:00:00  BASE  5.40372  104  9.04344  129  -0.4  85    -2.6  10    0     988.3    NA       0.0000   9999     16540 0     0    
2019/07/18  18:01:00  BASE  5.10384  105  9.04344  129  -0.2  85    -2.4  10    0     988.3    NA       0.0000   9999     16670 0     0    
2019/07/18  18:02:00  BASE  5.01564  102  9.04344  129  -0.1  85    -2.3  10    0     988.3    NA       0.0000   9999     16730 0     0    
2019/07/18  18:03:00  BASE  5.09796  94   8.53188  112  0.0   85    -2.2  10    0     988.3    NA       0.0000   9999     16860 0     0    
2019/07/18  18:04:00  BASE  6.027    83   9.10224  79   0.2   85    -2.0  10    0     988.2    NA       0.0000   9999     16770 0     0    
2019/07/18  18:05:00  BASE  7.59108  79   10.437   70   0.5   85    -1.8  9     0     988.2    NA       0.0000   9999     16800 0     0    
2019/07/18  18:06:00  BASE  8.35548  72   10.7075  73   0.7   85    -1.6  9     0     988.2    NA       0.0000   9999     16860 0     0    
2019/07/18  18:07:00  BASE  7.88508  60   10.7075  73   0.9   85    -1.4  9     0     988.2    NA       0.0000   9999     16900 0     0    
2019/07/18  18:08:00  BASE  7.69104  59   10.7075  73   1.2   84    -1.1  9     0     988.2    NA       0.0000   9999     16830 0     0    
2019/07/18  18:09:00  BASE  8.14968  62   10.7075  73   1.4   84    -1.0  9     0     988.2    NA       0.0000   9999     16730 0     0    
2019/07/18  18:10:00  BASE  8.07324  64   10.7075  73   1.5   83    -1.0  9     0     988.1    NA       0.0000   9999     16630 0     0    
2019/07/18  18:11:00  BASE  8.379    65   10.7075  73   1.5   83    -1.1  9     0     988.1    NA       0.0000   9999     16700 0     0    
2019/07/18  18:12:00  BASE  8.60244  61   10.7075  73   1.5   83    -1.1  8     0     988.1    NA       0.0000   9999     16570 0     0    
2019/07/18  18:13:00  BASE  8.32608  57   10.7075  73   1.5   82    -1.2  8     0     988.1    NA       0.0000   9999     16600 0     0    
2019/07/18  18:14:00  BASE  8.22612  58   10.7075  73   1.5   82    -1.3  8     0     988.1    NA       0.0000   9999     16730 0     0    
2019/07/18  18:15:00  BASE  8.29668  56   10.7075  73   1.5   82    -1.3  8     0     988.0    NA       0.0000   9999     16960 0     0    
2019/07/18  18:16:00  BASE  8.78472  54   11.7071  48   1.4   82    -1.3  8     0     987.9    NA       0.0000   9999     16700 0     0    
2019/07/18  18:17:00  BASE  9.46092  55   12.2186  54   1.4   82    -1.3  7     0     987.9    NA       0.0000   9999     16700 0     0    
2019/07/18  18:18:00  BASE  9.80784  55   12.9184  44   1.4   82    -1.3  7     0     987.9    NA       0.0000   9999     16700 0     0    
2019/07/18  18:19:00  BASE  9.72552  57   12.9184  44   1.4   82    -1.3  7     0     987.9    NA       0.0000   9999     16630 0     0    
2019/07/18  18:20:00  BASE  9.49032  58   12.9184  44   1.4   82    -1.3  7     0     987.9    NA       0.0000   9999     16770 0     0    
2019/07/18  18:21:00  BASE  9.70788  57   12.9184  44   1.4   82    -1.4  7     0     987.9    NA       0.0000   9999     16860 0     0    
2019/07/18  18:22:00  BASE  9.56676  55   12.9184  44   1.3   82    -1.4  7     0     987.9    NA       0.0000   9999     16800 0     0    
2019/07/18  18:23:00  BASE  9.261    56   12.9184  44   1.3   82    -1.4  6     0     987.8    NA       0.0000   9999     16700 0     0    
2019/07/18  18:24:00  BASE  10.0136  55   12.9184  44   1.3   82    -1.5  6     0     987.8    NA       0.0000   9999     16900 0     0    
2019/07/18  18:25:00  BASE  10.437   54   12.9184  44   1.2   82    -1.5  6     0     987.8    NA       0.0000   9999     16860 0     0    
2019/07/18  18:26:00  BASE  10.5193  57   12.9184  44   1.2   82    -1.5  6     0     987.7    NA       0.0000   9999     16960 0     0    
2019/07/18  18:27:00  BASE  10.4958  55   12.9184  44   1.2   82    -1.6  6     0     987.8    NA       0.0000   9999     17030 0     0    
2019/07/18  18:28:00  BASE  10.337   51   12.7949  53   1.2   82    -1.6  6     0     987.8    NA       0.0000   9999     17000 0     0    
2019/07/18  18:29:00  BASE  11.0132  51   13.13    52   1.1   82    -1.6  6     0     987.7    NA       0.0000   9000     17030 0     0    
2019/07/18  18:30:00  BASE  11.2484  50   13.2182  39   1.1   82    -1.6  6     0     987.8    NA       0.0000   7000     16900 0     0    
2019/07/18  18:31:00  BASE  11.5836  49   13.4299  43   1.1   82    -1.6  5     0     987.7    NA       0.0000   7000     16860 0     0    
2019/07/18  18:32:00  BASE  11.4484  50   13.4299  43   1.1   82    -1.6  5     0     987.7    NA       0.0000   6000     17060 0     0    
2019/07/18  18:33:00  BASE  11.1367  47   13.7357  41   1.1   82    -1.6  5     0     987.7    NA       0.0000   HZ       6000  17030 0    
2019/07/18  18:34:00  BASE  12.201   45   14.2178  45   1.1   82    -1.6  5     0     987.6    NA       0.0000   HZ       4500  17060 0    
2019/07/18  18:35:00  BASE  12.2128  48   14.2178  45   1.1   82    -1.6  5     0     987.7    NA       0.0000   HZ       4300  17090 0    
2019/07/18  18:36:00  BASE  11.2132  50   14.2178  45   1.1   82    -1.6  5     0     987.7    NA       0.0000   HZ       6000  17090 0    
2019/07/18  18:37:00  BASE  10.9721  52   14.2178  45   1.1   82    -1.7  5     0     987.6    NA       0.0000   UP       7000  17060 0    
2019/07/18  18:38:00  BASE  11.5307  53   14.2178  45   1.1   82    -1.7  5     0     987.6    NA       0.0000   UP       8000  17000 0    
2019/07/18  18:39:00  BASE  12.3186  54   14.2178  45   1.1   82    -1.7  5     0     987.5    NA       0.0000   UP       8000  16900 0    
2019/07/18  18:40:00  BASE  12.1834  54   14.2178  45   1.1   82    -1.7  4     0     987.5    NA       0.0000   UP       6000  16700 0    
2019/07/18  18:41:00  BASE  11.9423  53   14.2178  45   1.1   82    -1.7  4     0     987.5    NA       0.0000   UP       5000  16670 0    
2019/07/18  18:42:00  BASE  12.3186  51   14.2178  45   1.1   81    -1.7  4     0     987.5    NA       0.0000   UP       4800  16630 0    
2019/07/18  18:43:00  BASE  12.495   51   14.2178  45   1.1   81    -1.8  4     0     987.5    NA       0.0000   UP       6000  16600 0    
2019/07/18  18:44:00  BASE  12.3127  50   14.065   48   1.1   81    -1.8  4     0     987.5    NA       0.0000   UP       5000  16470 0    
2019/07/18  18:45:00  BASE  11.3896  51   14.065   48   1.1   81    -1.8  4     0     987.6    NA       0.0000   UP       6000  16110 0    
2019/07/18  18:46:00  BASE  11.5718  52   14.4001  48   1.1   81    -1.8  4     0     987.5    NA       0.0000   UP       6000  16410 0    
2019/07/18  18:47:00  BASE  12.2892  51   14.4001  48   1.1   81    -1.8  4     0     987.6    NA       0.0000   UP       5000  16470 0    
2019/07/18  18:48:00  BASE  12.0128  52   14.4001  48   1.1   81    -1.8  4     0     987.6    NA       0.0000   UP       4600  16800 0    
2019/07/18  18:49:00  BASE  11.907   54   14.4001  48   1.1   81    -1.8  4     0     987.6    NA       0.0000   UP       7000  16040 0    
2019/07/18  18:50:00  BASE  12.0893  54   14.4001  48   1.1   81    -1.8  3     0     987.6    NA       0.0000   UP       8000  16800 0    
2019/07/18  18:51:00  BASE  11.9246  56   14.4001  48   1.1   81    -1.8  3     0     987.6    NA       0.0000   UP       9999  16500 0    
2019/07/18  18:52:00  BASE  11.954   58   14.4001  48   1.1   81    -1.8  3     0     987.5    NA       0.0000   UP       9000  15980 16800
2019/07/18  18:53:00  BASE  12.7949  57   15.094   56   1.1   81    -1.8  3     0     987.5    NA       0.0000   UP       7000  16440 0    
2019/07/18  18:54:00  BASE  13.4476  56   15.094   56   1.1   81    -1.8  3     0     987.5    NA       0.0000   UP       5000  16500 0    
2019/07/18  18:55:00  BASE  12.8243  56   15.094   56   1.2   80    -1.8  3     0     987.5    NA       0.0000   UP       6000  15910 0    
2019/07/18  18:56:00  BASE  12.3186  57   15.094   56   1.2   80    -1.9  3     0     987.6    NA       0.0000   UP       9000  16310 0    
2019/07/18  18:57:00  BASE  12.8184  57   15.094   56   1.2   80    -1.9  2     0     987.5    NA       0.0000   UP       9000  16270 0    
2019/07/18  18:58:00  BASE  13.083   57   15.094   56   1.1   80    -2.0  2     0     987.5    NA       0.0000   UP       6000  16440 0    
2019/07/18  18:59:00  BASE  13.33    57   15.1234  64   1.1   80    -2.0  2     0     987.4    NA       0.0000   UP       8000  15750 16270
2019/07/18  19:00:00  BASE  13.2888  58   15.1234  64   1.1   79    -2.1  2     0     987.4    NA       0.0000   UP       9999  16040 16600
2019/07/18  19:01:00  BASE  12.8243  57   15.1234  64   1.1   79    -2.1  2     0     987.4    NA       0.0000   UP       9000  15880 0    
2019/07/18  19:02:00  BASE  12.448   56   15.1234  64   1.1   79    -2.2  2     0     987.4    NA       0.0000   UP       9999  15880 0    
2019/07/18  19:03:00  BASE  12.4186  56   15.1234  64   1.1   79    -2.2  2     0     987.4    NA       0.0000   UP       9999  15950 16470
2019/07/18  19:04:00  BASE  12.2951  56   15.1234  64   1.1   78    -2.2  2     0     987.4    NA       0.0000   HZ       9000  16410 0    
2019/07/18  19:05:00  BASE  12.0775  56   15.1234  64   1.1   78    -2.3  2     0     987.4    NA       0.0000   HZ       8000  16440 0    
2019/07/18  19:06:00  BASE  12.5362  57   15.1234  64   1.1   78    -2.3  2     0     987.4    NA       0.0000   HZ       9000  15810 0    
2019/07/18  19:07:00  BASE  13.0007  56   15.1234  64   1.1   78    -2.3  1     0     987.4    NA       0.0000   HZ       8000  15720 0    
2019/07/18  19:08:00  BASE  13.0183  55   15.1234  64   1.1   79    -2.2  1     0     987.4    NA       0.0000   HZ       5000  15950 0    
2019/07/18  19:09:00  BASE  12.7714  55   14.4295  49   1.1   79    -2.2  1     0     987.5    NA       0.0000   HZ       6000  16110 0    
2019/07/18  19:10:00  BASE  12.6185  57   14.4295  49   1.1   79    -2.2  1     0     987.5    NA       0.0000   HZ       8000  15810 0    
2019/07/18  19:11:00  BASE  13.036   57   14.6412  58   1.1   79    -2.2  1     0     987.4    NA       0.0000   HZ       9000  15420 16010
2019/07/18  19:12:00  BASE  13.183   55   14.6412  58   1.1   78    -2.2  1     0     987.4    NA       0.0000   HZ       8000  15420 0    
2019/07/18  19:13:00  BASE  12.5714  55   14.6412  58   1.1   78    -2.3  1     0     987.4    NA       0.0000   HZ       8000  15290 0    
2019/07/18  19:14:00  BASE  12.6479  55   14.6412  58   1.1   78    -2.3  1     0     987.3    NA       0.0000   HZ       8000  15360 0    
2019/07/18  19:15:00  BASE  13.33    56   14.6412  58   1.1   78    -2.3  1     0     987.3    NA       0.0000   HZ       7000  15450 0    
2019/07/18  19:16:00  BASE  13.3946  56   14.6412  58   1.1   78    -2.4  1     0     987.3    NA       0.0000   HZ       5000  15390 0    
2019/07/18  19:17:00  BASE  13.1712  54   14.6706  49   1.1   77    -2.4  1     0     987.3    NA       0.0000   HZ       7000  15420 0    
2019/07/18  19:18:00  BASE  13.0948  55   14.6706  49   1.1   77    -2.4  1     0     987.3    NA       0.0000   HZ       7000  15420 0    
2019/07/18  19:19:00  BASE  13.2065  58   14.6706  49   1.1   77    -2.5  1     0     987.2    NA       0.0000   HZ       7000  15290 0    
2019/07/18  19:20:00  BASE  13.5534  58   14.8823  61   1.1   77    -2.5  1     0     987.2    NA       0.0000   HZ       8000  15360 0    
2019/07/18  19:21:00  BASE  13.3652  58   14.9705  59   1.1   77    -2.5  1     0     987.3    NA       0.0000   HZ       9999  15750 0    
2019/07/18  19:22:00  BASE  13.1594  59   14.9705  59   1.1   77    -2.4  1     0     987.2    NA       0.0000   HZ       9999  15780 0    
2019/07/18  19:23:00  BASE  13.2359  59   14.9705  59   1.2   77    -2.5  1     0     987.2    NA       0.0000   HZ       9999  15650 0    
2019/07/18  19:24:00  BASE  13.377   58   14.9705  59   1.2   77    -2.5  1     0     987.2    NA       0.0000   HZ       9000  15450 0    
2019/07/18  19:25:00  BASE  13.3476  57   14.9705  59   1.2   76    -2.5  0     0     987.2    NA       0.0000   HZ       9999  15290 0    
2019/07/18  19:26:00  BASE  13.0301  60   14.9705  59   1.2   76    -2.5  0     0     987.2    NA       0.0000   HZ       9999  15060 0    
2019/07/18  19:27:00  BASE  13.3417  61   14.9705  59   1.2   76    -2.6  0     0     987.2    NA       0.0000   HZ       9999  15130 0    
2019/07/18  19:28:00  BASE  13.918   59   15.8231  52   1.1   76    -2.6  0     0     987.1    NA       0.0000   HZ       9000  14400 0    
2019/07/18  19:29:00  BASE  14.012   59   15.8231  52   1.1   76    -2.6  0     0     987.0    NA       0.0000   HZ       8000  14830 0    
2019/07/18  19:30:00  BASE  14.2237  57   16.4228  54   1.1   76    -2.7  0     0     986.9    NA       0.0000   HZ       7000  14700 0    
2019/07/18  19:31:00  BASE  14.2943  55   16.4228  54   1.1   76    -2.7  0     0     986.9    NA       0.0000   HZ       5000  14500 0    
2019/07/18  19:32:00  BASE  14.0532  54   16.4228  54   1.1   76    -2.7  0     0     986.9    NA       0.0000   HZ       4400  14500 0    
2019/07/18  19:33:00  BASE  14.4707  53   16.4581  51   1.1   76    -2.7  0     0     986.9    NA       0.0000   UP       3500  14530 0    
2019/07/18  19:34:00  BASE  15.2821  53   16.758   54   1.0   76    -2.7  0     0     986.8    NA       0.0000   UP       3500  14630 0    
2019/07/18  19:35:00  BASE  15.3115  54   16.758   54   1.0   76    -2.6  0     0     986.8    NA       0.0000   UP       3700  14800 0    
2019/07/18  19:36:00  BASE  15.0587  52   16.758   54   1.0   77    -2.6  0     0     986.8    NA       0.0000   UP       4000  14670 0    
2019/07/18  19:37:00  BASE  15.4174  52   17.4224  54   1.0   77    -2.6  0     0     986.8    NA       0.0000   UP       3500  14800 0    
2019/07/18  19:38:00  BASE  15.5996  52   17.4224  54   1.0   77    -2.6  0     0     986.7    NA       0.0000   UP       2900  14860 0    
2019/07/18  19:39:00  BASE  15.482   53   17.4224  54   1.0   77    -2.6  0     0     986.7    NA       0.0000   UP       2300  14990 0    
2019/07/18  19:40:00  BASE  15.5702  53   17.4224  54   1.0   77    -2.6  0     0     986.7    NA       0.0000   UP       2700  14470 0    
2019/07/18  19:41:00  BASE  15.9113  53   17.5459  51   1.0   77    -2.6  0     0     986.7    NA       0.0000   UP       2700  14400 0    
2019/07/18  19:42:00  BASE  15.8878  52   17.5459  51   1.0   77    -2.6  0     0     986.6    NA       0.0000   UP       3100  14470 0    
2019/07/18  19:43:00  BASE  15.5114  53   17.5459  51   1.0   77    -2.6  0     0     986.6    NA       0.0000   UP       3300  14930 0    
2019/07/18  19:44:00  BASE  15.5056  55   17.5459  51   1.0   77    -2.6  0     0     986.5    NA       0.0000   UP       2800  14760 0    
2019/07/18  19:45:00  BASE  16.0583  55   17.8752  57   1.0   76    -2.7  0     0     986.5    NA       0.0000   UP       2300  14600 0    
2019/07/18  19:46:00  BASE  16.0112  54   17.8752  57   1.0   76    -2.7  0     0     986.5    NA       0.0000   UP       2400  14570 0    
2019/07/18  19:47:00  BASE  15.976   54   18.3632  47   1.0   76    -2.7  0     0     986.4    NA       0.0000   UP       2400  14700 0    
2019/07/18  19:48:00  BASE  16.2817  51   18.3632  47   1.0   76    -2.7  0     0     986.5    NA       0.0000   UP       2300  14400 14930
2019/07/18  19:49:00  BASE  16.1406  51   18.3632  47   1.0   76    -2.7  0     0     986.5    NA       0.0000   UP       2500  14240 0    
2019/07/18  19:50:00  BASE  16.2288  52   18.422   48   1.0   76    -2.7  0     0     986.4    NA       0.0000   UP       2800  14500 15060
2019/07/18  19:51:00  BASE  16.4228  51   18.422   48   1.0   77    -2.6  0     0     986.4    NA       0.0000   UP       2100  14570 15060
2019/07/18  19:52:00  BASE  16.9873  51   19.2688  54   1.0   77    -2.6  0     0     986.4    NA       0.0000   UP       1900  14570 0    
2019/07/18  19:53:00  BASE  17.9399  52   19.4216  56   1.0   77    -2.6  0     0     986.3    NA       0.0000   UP       1700  14800 0    
2019/07/18  19:54:00  BASE  17.4577  51   19.4216  56   0.9   77    -2.6  0     0     986.4    NA       0.0000   UP       1800  13810 0    
2019/07/18  19:55:00  BASE  16.858   51   19.4216  56   0.9   78    -2.6  0     0     986.3    NA       0.0000   UP       2100  14270 0    
2019/07/18  19:56:00  BASE  17.1637  52   19.4216  52   0.9   78    -2.6  0     0     986.3    NA       0.0000   UP       1900  14210 0    
2019/07/18  19:57:00  BASE  17.0344  51   19.4216  52   0.9   78    -2.5  0     0     986.3    NA       0.0000   UP       1800  14270 0    
2019/07/18  19:58:00  BASE  17.0402  50   19.4216  52   0.9   78    -2.5  0     0     986.3    NA       0.0000   UP       1900  14570 0    
2019/07/18  19:59:00  BASE  17.4695  49   19.8744  51   0.9   78    -2.5  0     0     986.3    NA       0.0000   UP       1700  14500 0    
2019/07/18  20:00:00  BASE  17.3754  48   19.8744  51   0.9   79    -2.4  0     0     986.3    NA       0.0000   UP       1700  13480 0    
2019/07/18  20:01:00  BASE  17.2696  49   19.8744  51   0.9   79    -2.4  0     0     986.3    NA       0.0000   UP       1900  13480 0    
2019/07/18  20:02:00  BASE  17.1931  50   19.8744  51   0.9   79    -2.3  0     0     986.4    NA       0.0000   UP       2000  14210 0    
2019/07/18  20:03:00  BASE  16.8932  49   19.8744  51   0.9   79    -2.3  0     0     986.4    NA       0.0000   UP       2400  14170 0    
2019/07/18  20:04:00  BASE  16.8344  49   19.8744  51   0.9   79    -2.3  0     0     986.4    NA       0.0000   UP       2600  13850 0    
2019/07/18  20:05:00  BASE  16.8932  48   19.8744  51   0.9   79    -2.3  0     0     986.4    NA       0.0000   UP       2200  13750 0    
2019/07/18  20:06:00  BASE  16.8462  48   19.8744  51   0.9   79    -2.3  0     0     986.4    NA       0.0000   UP       2100  13680 0    
2019/07/18  20:07:00  BASE  16.4934  50   19.8744  51   0.9   79    -2.4  0     0     986.4    NA       0.0000   UP       2600  13520 0    
2019/07/18  20:08:00  BASE  16.5404  51   19.8744  51   0.9   79    -2.4  0     0     986.4    NA       0.0000   UP       2300  13550 0    
2019/07/18  20:09:00  BASE  16.8286  52   19.357   52   0.9   78    -2.4  0     0     986.4    NA       0.0000   UP       2500  13450 0    
2019/07/18  20:10:00  BASE  16.905   52   19.357   52   0.9   78    -2.4  0     0     986.4    NA       0.0000   UP       2500  13420 0    
2019/07/18  20:11:00  BASE  16.3699  53   19.357   52   1.0   78    -2.4  0     0     986.4    NA       0.0000   UP       2500  13220 0    
2019/07/18  20:12:00  BASE  16.1759  53   19.357   52   1.0   78    -2.5  0     0     986.4    NA       0.0000   UP       2500  13160 0    
2019/07/18  20:13:00  BASE  16.5404  52   19.357   52   1.0   78    -2.5  0     0     986.4    NA       0.0000   UP       2500  13160 13750
2019/07/18  20:14:00  BASE  16.3817  52   19.357   52   1.0   78    -2.5  0     0     986.4    NA       0.0000   UP       2500  13030 13620
2019/07/18  20:15:00  BASE  16.2994  53   19.357   52   0.9   78    -2.5  0     0     986.4    NA       0.0000   UP       2500  12990 13550
2019/07/18  20:16:00  BASE  16.5992  52   19.357   52   0.9   78    -2.5  0     0     986.3    NA       0.0000   UP       2500  13090 13620
2019/07/18  20:17:00  BASE  17.1461  49   19.357   52   0.9   78    -2.5  0     0     986.3    NA       0.0000   UP       2400  13120 0    
2019/07/18  20:18:00  BASE  17.3872  49   19.4804  50   0.9   78    -2.5  0     0     986.3    NA       0.0000   UP       2400  13060 0    
2019/07/18  20:19:00  BASE  17.0285  50   19.4804  50   0.9   78    -2.5  0     0     986.3    NA       0.0000   UP       2400  12860 0    
2019/07/18  20:20:00  BASE  16.4581  50   19.4804  50   0.9   78    -2.5  0     0     986.3    NA       0.0000   UP       2100  12630 0    
2019/07/18  20:21:00  BASE  17.2108  50   19.9626  48   0.9   78    -2.6  0     0     986.2    NA       0.0000   UP       2200  12430 0    
2019/07/18  20:22:00  BASE  17.7223  48   19.9626  48   0.9   78    -2.6  0     0     986.2    NA       0.0000   UP       2000  12960 0    
2019/07/18  20:23:00  BASE  16.8638  47   19.9626  48   0.9   78    -2.6  0     0     986.3    NA       0.0000   UP       1800  13120 0    
2019/07/18  20:24:00  BASE  16.9285  48   19.9626  48   0.9   78    -2.5  0     0     986.3    NA       0.0000   UP       2400  13320 0    
2019/07/18  20:25:00  BASE  17.6518  48   19.9626  48   0.9   78    -2.5  0     0     986.2    NA       0.0000   UP       2400  13030 0    
2019/07/18  20:26:00  BASE  17.4695  48   19.9626  48   0.9   78    -2.4  0     0     986.2    NA       0.0000   UP       2300  12960 0    
2019/07/18  20:27:00  BASE  17.3695  48   19.9626  48   1.0   78    -2.4  0     0     986.2    NA       0.0000   UP       2200  12890 0    
2019/07/18  20:28:00  BASE  17.393   49   19.9626  48   1.0   78    -2.4  0     0     986.3    NA       0.0000   UP       2300  12730 0    
2019/07/18  20:29:00  BASE  17.152   48   19.9626  48   1.0   78    -2.5  0     0     986.3    NA       0.0000   UP       2500  12760 0    
2019/07/18  20:30:00  BASE  17.152   48   19.9626  48   1.0   77    -2.5  0     0     986.3    NA       0.0000   UP       2500  12800 0    
2019/07/18  20:31:00  BASE  17.0814  51   19.6627  49   1.0   77    -2.5  0     0     986.3    NA       0.0000   UP       2500  12430 0    
2019/07/18  20:32:00  BASE  16.5757  51   19.6627  49   1.1   77    -2.6  0     0     986.3    NA       0.0000   UP       2500  12340 12930
2019/07/18  20:33:00  BASE  16.8462  51   19.6627  49   1.1   76    -2.6  0     0     986.3    NA       0.0000   UP       2400  12170 12800
2019/07/18  20:34:00  BASE  17.4048  50   19.6627  49   1.1   76    -2.6  0     0     986.2    NA       0.0000   UP       2300  12040 12760
2019/07/18  20:35:00  BASE  17.0167  51   19.357   51   1.1   76    -2.6  0     0     986.2    NA       0.0000   UP       2300  11650 0    
2019/07/18  20:36:00  BASE  16.6228  52   19.357   51   1.2   76    -2.6  0     0     986.3    NA       0.0000   UP       2300  11550 0    
2019/07/18  20:37:00  BASE  16.4228  52   19.357   51   1.2   76    -2.6  0     0     986.3    NA       0.0000   UP       2300  11880 12600
2019/07/18  20:38:00  BASE  16.364   52   19.357   51   1.3   75    -2.6  0     0     986.3    NA       0.0000   UP       2300  11880 12530
2019/07/18  20:39:00  BASE  15.8878  52   19.357   51   1.3   75    -2.7  0     0     986.4    NA       0.0000   UP       2300  12070 0    
2019/07/18  20:40:00  BASE  15.8819  53   19.357   51   1.3   74    -2.7  0     0     986.4    NA       0.0000   UP       2300  12010 0    
2019/07/18  20:41:00  BASE  15.6114  53   18.8748  51   1.3   74    -2.8  0     0     986.4    NA       0.0000   UP       2300  11220 0    
2019/07/18  20:42:00  BASE  15.3056  52   18.8748  51   1.3   74    -2.8  0     0     986.5    NA       0.0000   UP       2300  11120 0    
2019/07/18  20:43:00  BASE  15.4703  52   18.8748  51   1.3   74    -2.9  0     0     986.5    NA       0.0000   HZ       2300  11090 0    
2019/07/18  20:44:00  BASE  15.2527  53   18.7866  52   1.3   74    -2.9  0     0     986.5    NA       0.0000   HZ       2300  11090 0    
2019/07/18  20:45:00  BASE  15.2527  52   18.7866  52   1.3   74    -2.9  0     0     986.5    NA       0.0000   HZ       2300  11020 0    
2019/07/18  20:46:00  BASE  15.1351  53   18.7866  52   1.3   73    -3.0  0     0     986.5    NA       0.0000   HZ       2300  10790 11320
2019/07/18  20:47:00  BASE  15.4232  55   17.6635  50   1.3   73    -3.0  0     0     986.5    NA       0.0000   HZ       2300  10960 0    
2019/07/18  20:48:00  BASE  15.8054  55   17.6047  56   1.3   73    -3.1  0     0     986.4    NA       0.0000   HZ       2300  11060 0    
2019/07/18  20:49:00  BASE  15.4115  53   17.5459  51   1.3   72    -3.1  0     0     986.5    NA       0.0000   HZ       2300  11190 0    
2019/07/18  20:50:00  BASE  15.0175  52   17.5459  51   1.3   72    -3.1  0     0     986.5    NA       0.0000   HZ       2300  11290 0    
2019/07/18  20:51:00  BASE  14.9411  52   17.5459  51   1.3   72    -3.2  0     0     986.5    NA       0.0000   HZ       2300  11320 0    
2019/07/18  20:52:00  BASE  15.0116  53   17.5459  51   1.3   72    -3.2  0     0     986.5    NA       0.0000   HZ       2300  11290 0    
2019/07/18  20:53:00  BASE  14.6941  54   17.5459  51   1.3   72    -3.2  0     0     986.5    NA       0.0000   HZ       3000  11320 0    
2019/07/18  20:54:00  BASE  14.4824  53   17.5459  51   1.3   72    -3.1  0     0     986.5    NA       0.0000   HZ       8000  11220 0    
2019/07/18  20:55:00  BASE  14.7235  54   17.5459  51   1.4   72    -3.1  0     0     986.5    NA       0.0000   HZ       9000  11320 0    
2019/07/18  20:56:00  BASE  14.306   53   17.5459  51   1.5   72    -3.1  0     0     986.5    NA       0.0000   HZ       9999  11250 0    
2019/07/18  20:57:00  BASE  13.9532  51   17.5459  51   1.5   71    -3.1  0     0     986.6    NA       0.0000   HZ       9999  11090 0    
2019/07/18  20:58:00  BASE  13.8121  52   17.5459  51   1.5   71    -3.1  0     0     986.6    NA       0.0000   HZ       9999  11390 0    
2019/07/18  20:59:00  BASE  13.5946  54   16.9109  46   1.5   71    -3.2  0     0     986.6    NA       0.0000   HZ       9999  11520 0    
2019/07/18  21:00:00  BASE  13.5358  54   16.9109  46   1.6   71    -3.2  0     0     986.7    NA       0.0000   HZ       9999  11520 0    
2019/07/18  21:01:00  BASE  13.4358  55   16.9109  46   1.6   70    -3.2  0     0     986.7    NA       0.0000   HZ       9999  11450 0    
2019/07/18  21:02:00  BASE  13.7004  55   15.9995  53   1.6   70    -3.3  0     0     986.7    NA       0.0000   HZ       9999  11290 0    
2019/07/18  21:03:00  BASE  13.6651  55   15.9995  53   1.6   70    -3.3  0     0     986.7    NA       0.0000   9999     11250 0     0    
2019/07/18  21:04:00  BASE  13.0654  55   15.4879  53   1.7   69    -3.4  0     0     986.7    NA       0.0000   9999     11120 0     0    
2019/07/18  21:05:00  BASE  12.9713  56   15.3997  47   1.7   69    -3.4  0     0     986.7    NA       0.0000   9999     11160 0     0    
2019/07/18  21:06:00  BASE  13.2476  54   15.3997  47   1.7   69    -3.4  0     0     986.7    NA       0.0000   9999     11120 0     0    
2019/07/18  21:07:00  BASE  13.4064  53   15.3056  51   1.7   69    -3.4  0     0     986.8    NA       0.0000   9999     11160 0     0    
2019/07/18  21:08:00  BASE  13.1124  55   15.3056  51   1.7   69    -3.3  0     0     986.8    NA       0.0000   9999     11060 0     0    
2019/07/18  21:09:00  BASE  12.9066  56   15.3056  51   1.6   70    -3.3  0     0     986.8    NA       0.0000   9999     11090 0     0    
2019/07/18  21:10:00  BASE  13.4946  56   15.3056  51   1.6   70    -3.3  0     0     986.7    NA       0.0000   9999     10560 0     0    
2019/07/18  21:11:00  BASE  13.818   56   15.3056  51   1.7   70    -3.2  0     0     986.8    NA       0.0000   9999     11160 0     0    
2019/07/18  21:12:00  BASE  13.7945  56   15.4291  53   1.7   70    -3.2  0     0     986.8    NA       0.0000   9999     11250 0     0    
2019/07/18  21:13:00  BASE  13.277   57   15.4291  53   1.7   70    -3.3  0     0     986.9    NA       0.0000   9999     11320 0     0    
2019/07/18  21:14:00  BASE  12.7949  58   15.4291  53   1.7   69    -3.3  0     0     986.9    NA       0.0000   9999     11350 0     0    
2019/07/18  21:15:00  BASE  12.5479  60   15.4291  53   1.7   69    -3.3  0     0     986.9    NA       0.0000   9999     11450 0     0    
2019/07/18  21:16:00  BASE  12.3304  61   15.4291  53   1.7   69    -3.3  0     0     986.9    NA       0.0000   9999     11450 0     0    
2019/07/18  21:17:00  BASE  12.0716  60   15.4291  53   1.6   70    -3.3  0     0     987.0    NA       0.0000   9999     11350 0     0    
2019/07/18  21:18:00  BASE  12.007   61   15.4291  53   1.6   70    -3.3  0     0     987.0    NA       0.0000   9999     11320 0     0    
2019/07/18  21:19:00  BASE  12.3304  63   15.4291  53   1.5   71    -3.2  0     0     987.0    NA       0.0000   9999     11250 0     0    
2019/07/18  21:20:00  BASE  12.5362  63   15.4291  53   1.5   71    -3.1  0     0     987.0    NA       0.0000   9999     11250 0     0    
2019/07/18  21:21:00  BASE  12.4009  63   15.4291  53   1.5   72    -3.1  0     0     987.1    NA       0.0000   9999     11350 0     0    
2019/07/18  21:22:00  BASE  12.3656  63   14.2766  59   1.5   72    -3.0  0     0     987.1    NA       0.0000   9999     11060 0     0    
2019/07/18  21:23:00  BASE  12.4891  64   14.2766  59   1.5   72    -2.9  0     0     987.1    NA       0.0000   9999     11390 0     0    
2019/07/18  21:24:00  BASE  12.6067  65   13.9474  66   1.5   72    -2.9  0     0     987.0    NA       0.0000   9999     7350  10400 11350
2019/07/18  21:25:00  BASE  12.5362  65   13.9474  66   1.5   72    -2.9  0     0     987.1    NA       0.0000   9999     7320  0     0    
2019/07/18  21:26:00  BASE  12.2892  65   13.9474  66   1.5   72    -2.9  0     0     987.1    NA       0.0000   9999     7940  9970  0    
2019/07/18  21:27:00  BASE  12.0658  67   13.9474  66   1.6   72    -2.9  0     0     987.1    NA       0.0000   9999     9880  0     0    
2019/07/18  21:28:00  BASE  11.76    66   13.9474  66   1.6   72    -2.9  0     0     987.1    NA       0.0000   9999     8170  9680  0    
2019/07/18  21:29:00  BASE  11.3896  65   13.7004  66   1.6   72    -2.9  0     0     987.1    NA       0.0000   9999     7450  8300  0    
2019/07/18  21:30:00  BASE  10.9603  66   13.6416  65   1.6   72    -2.9  0     0     987.2    NA       0.0000   9999     7050  0     0    
2019/07/18  21:31:00  BASE  10.3958  67   13.6416  65   1.6   72    -2.9  0     0     987.2    NA       0.0000   9999     7380  0     0    
2019/07/18  21:32:00  BASE  10.29    67   13.6416  65   1.6   72    -2.9  0     0     987.2    NA       0.0000   9999     7740  0     0    
2019/07/18  21:33:00  BASE  10.2724  68   13.2476  68   1.6   72    -2.9  0     0     987.3    NA       0.0000   9999     8010  0     0    
2019/07/18  21:34:00  BASE  9.93132  71   13.2476  68   1.7   72    -2.9  0     0     987.3    NA       0.0000   9999     8270  0     0    
2019/07/18  21:35:00  BASE  8.9082   72   13.2476  68   1.7   71    -2.9  0     0     987.3    NA       0.0000   9999     7380  8460  0    
2019/07/18  21:36:00  BASE  8.59068  72   12.5832  71   1.8   71    -3.0  0     0     987.3    NA       0.0000   9999     8730  0     0    
2019/07/18  21:37:00  BASE  9.49032  73   12.5832  71   1.8   70    -3.0  0     0     987.3    NA       0.0000   9999     7480  0     0    
2019/07/18  21:38:00  BASE  9.57264  74   12.3715  69   1.8   70    -3.0  0     0     987.3    NA       0.0000   9999     7550  0     0    
2019/07/18  21:39:00  BASE  9.3786   78   11.9482  63   1.8   70    -3.0  0     0     987.3    NA       0.0000   9999     8530  0     0    
2019/07/18  21:40:00  BASE  8.57892  87   11.2249  64   1.8   70    -3.1  0     0     987.3    NA       0.0000   9999     8240  0     0    
2019/07/18  21:41:00  BASE  7.46172  95   11.2249  64   1.7   70    -3.1  0     0     987.4    NA       0.0000   9999     8760  0     0    
2019/07/18  21:42:00  BASE  7.21476  96   10.8898  68   1.6   71    -3.2  0     0     987.4    NA       0.0000   9999     8860  0     0    
2019/07/18  21:43:00  BASE  7.38528  96   10.8604  70   1.4   71    -3.2  0     0     987.4    NA       0.0000   9999     8330  0     0    
2019/07/18  21:44:00  BASE  7.73808  103  10.6487  65   1.2   72    -3.3  0     0     987.4    NA       0.0000   9999     7510  8140  0    
2019/07/18  21:45:00  BASE  8.33784  110  10.6487  65   1.0   73    -3.3  0     0     987.4    NA       0.0000   9999     8240  9250  0    
2019/07/18  21:46:00  BASE  8.28492  114  10.6487  65   0.8   74    -3.3  0     0     987.4    NA       0.0000   9999     9290  0     0    
2019/07/18  21:47:00  BASE  8.1144   113  10.0136  79   0.7   74    -3.4  0     0     987.4    NA       0.0000   9999     9350  0     0    
2019/07/18  21:48:00  BASE  8.25552  119  10.0136  79   0.6   74    -3.4  0     0     987.4    NA       0.0000   9999     9120  0     0    
2019/07/18  21:49:00  BASE  8.25552  124  9.4962   100  0.6   74    -3.5  0     0     987.4    NA       0.0000   9999     8890  0     0    
2019/07/18  21:50:00  BASE  8.51424  119  9.4962   100  0.5   74    -3.6  0     0     987.4    NA       0.0000   9999     8830  0     0    
2019/07/18  21:51:00  BASE  8.77884  115  9.4962   100  0.5   74    -3.6  0     0     987.5    NA       0.0000   9999     8790  0     0    
2019/07/18  21:52:00  BASE  8.95524  112  10.1665  108  0.5   74    -3.6  0     0     987.5    NA       0.0000   9999     8690  0     0    
2019/07/18  21:53:00  BASE  9.32568  109  10.2547  112  0.4   74    -3.7  0     0     987.6    NA       0.0000   9999     8240  0     0    
2019/07/18  21:54:00  BASE  9.00228  111  10.2547  112  0.4   74    -3.7  0     0     987.6    NA       0.0000   9999     6730  0     0    
2019/07/18  21:55:00  BASE  8.78472  116  10.2547  112  0.3   75    -3.7  0     0     987.5    NA       0.0000   9999     3350  0     0    
2019/07/18  21:56:00  BASE  8.7318   117  10.2547  112  0.3   75    -3.6  0     0     987.6    NA       0.0000   9999     5280  0     0    
2019/07/18  21:57:00  BASE  8.03796  116  10.2547  112  0.4   75    -3.6  0     0     987.6    NA       0.0000   9999     3450  0     0    
2019/07/18  21:58:00  BASE  7.56756  116  10.2547  112  0.4   75    -3.5  0     0     987.6    NA       0.0000   9999     5120  0     0    
2019/07/18  21:59:00  BASE  7.30884  120  10.2547  112  0.5   74    -3.5  0     0     987.5    NA       0.0000   9999     5020  0     0    
2019/07/18  22:00:00  BASE  7.45584  127  10.2547  112  0.5   74    -3.6  0     0     987.5    NA       0.0000   9999     5250  0     0    
2019/07/18  22:01:00  BASE  7.83216  131  10.2547  112  0.6   73    -3.7  0     0     987.4    NA       0.0000   9999     5280  0     0    
2019/07/18  22:02:00  BASE  7.4382   131  10.2547  112  0.6   73    -3.7  0     0     987.5    NA       0.0000   9999     5320  0     0    
2019/07/18  22:03:00  BASE  6.25632  128  9.4668   128  0.6   73    -3.8  0     0     987.6    NA       0.0000   9999     5150  0     0    
2019/07/18  22:04:00  BASE  6.0858   120  9.4668   128  0.6   73    -3.8  0     0     987.7    NA       0.0000   9999     5050  0     0    
2019/07/18  22:05:00  BASE  5.78592  118  9.4668   128  0.6   72    -3.8  0     0     987.7    NA       0.0000   9999     5150  0     0    
2019/07/18  22:06:00  BASE  5.41548  119  9.4668   128  0.7   72    -3.8  0     0     987.8    NA       0.0000   9999     5410  0     0    
2019/07/18  22:07:00  BASE  5.10972  123  9.4668   128  0.7   72    -3.8  0     0     987.7    NA       0.0000   9999     5180  0     0    
2019/07/18  22:08:00  BASE  4.88628  144  9.4668   128  0.8   72    -3.7  0     0     987.4    NA       0.0000   9999     5090  0     0    
2019/07/18  22:09:00  BASE  6.25632  157  9.4668   128  0.9   72    -3.6  0     0     987.4    NA       0.0000   9999     4920  0     0    
2019/07/18  22:10:00  BASE  5.97996  155  9.4668   128  1.1   71    -3.5  0     0     987.6    NA       0.0000   9999     3900  4720  0    
2019/07/18  22:11:00  BASE  3.6162   138  8.4672   132  1.1   71    -3.6  0     0     987.8    NA       0.0000   9999     3710  0     0    
2019/07/18  22:12:00  BASE  3.86904  123  8.10852  155  1.2   70    -3.6  0     0     987.8    NA       0.0000   9999     3640  0     0    
2019/07/18  22:13:00  BASE  4.89216  127  8.10852  155  1.2   70    -3.8  0     0     987.8    NA       0.0000   9999     3740  0     0    
2019/07/18  22:14:00  BASE  3.7044   129  8.10852  155  1.2   69    -3.8  0     0     987.8    NA       0.0000   9999     3670  0     0    
2019/07/18  22:15:00  BASE  3.06936  142  8.10852  155  1.1   69    -3.9  0     0     987.7    NA       0.0000   9999     3540  0     0    
2019/07/18  22:16:00  BASE  3.09876  140  8.10852  155  1.0   70    -3.9  0     0     987.8    NA       0.0000   9999     3610  0     0    
2019/07/18  22:17:00  BASE  3.15168  111  8.10852  155  0.9   70    -3.8  0     0     987.9    NA       0.0000   9999     3740  0     0    
2019/07/18  22:18:00  BASE  3.65148  112  8.10852  155  0.9   71    -3.7  0     0     987.9    NA       0.0000   9999     3810  0     0    
2019/07/18  22:19:00  BASE  4.11012  134  6.44448  139  0.9   72    -3.7  0     0     987.9    NA       0.0000   9999     4690  0     0    
2019/07/18  22:20:00  BASE  3.96312  134  6.2328   127  0.9   72    -3.6  0     0     987.9    NA       0.0000   9999     3770  4790  0    
2019/07/18  22:21:00  BASE  3.8808   118  6.2328   127  0.9   72    -3.6  0     0     987.9    NA       0.0000   9999     3710  0     0    
2019/07/18  22:22:00  BASE  4.57464  119  5.80944  136  1.0   72    -3.6  0     0     987.9    NA       0.0000   9999     3670  0     0    
2019/07/18  22:23:00  BASE  5.48604  127  6.10932  123  0.9   71    -3.7  0     0     988.0    NA       0.0000   9999     3710  0     0    
2019/07/18  22:24:00  BASE  5.83884  127  6.71496  126  0.9   71    -3.7  0     0     988.0    NA       0.0000   9999     3710  0     0    
2019/07/18  22:25:00  BASE  4.81572  135  6.71496  126  0.8   72    -3.8  0     0     988.0    NA       0.0000   9999     3580  0     0    
2019/07/18  22:26:00  BASE  3.65736  141  6.71496  126  0.7   72    -3.8  0     0     988.1    NA       0.0000   9999     3640  0     0    
2019/07/18  22:27:00  BASE  3.30456  140  6.71496  126  0.6   72    -3.8  0     0     988.1    NA       0.0000   9999     3900  0     0    
2019/07/18  22:28:00  BASE  3.9396   154  6.71496  126  0.6   73    -3.8  0     0     987.8    NA       0.0000   9999     4790  0     0    
2019/07/18  22:29:00  BASE  5.12736  156  6.71496  126  0.5   73    -3.8  0     0     987.8    NA       0.0000   9999     3710  0     0    
2019/07/18  22:30:00  BASE  5.5566   129  6.71496  126  0.5   74    -3.7  0     0     988.1    NA       0.0000   9999     3670  0     0    
2019/07/18  22:31:01  BASE  5.4978   118  6.71496  126  0.5   74    -3.6  0     0     988.1    NA       0.0000   9999     3710  0     0    
2019/07/18  22:32:00  BASE  5.3508   130  6.71496  126  0.5   74    -3.6  0     0     988.0    NA       0.0000   9999     3770  0     0    
2019/07/18  22:33:00  BASE  5.10972  142  6.71496  126  0.5   74    -3.6  0     0     987.9    NA       0.0000   9999     3770  0     0    
2019/07/18  22:34:00  BASE  5.16264  146  6.2916   131  0.5   74    -3.6  0     0     987.9    NA       0.0000   9999     5220  0     0    
2019/07/18  22:35:00  BASE  6.0858   140  7.16772  128  0.4   75    -3.6  0     0     987.8    NA       0.0000   9999     5320  0     0    
2019/07/18  22:36:00  BASE  7.80276  139  9.56088  147  0.4   75    -3.5  0     0     987.5    NA       0.0000   9999     3640  8370  0    
2019/07/18  22:37:00  BASE  8.10852  147  9.56088  147  0.4   76    -3.4  0     0     987.6    NA       0.0000   9999     3640  5510  8460 
2019/07/18  22:38:00  BASE  6.74436  153  9.56088  147  0.4   76    -3.4  0     0     987.8    NA       0.0000   9999     5610  8200  0    
2019/07/18  22:39:00  BASE  6.3504   150  9.56088  147  0.4   76    -3.3  0     0     987.9    NA       0.0000   9999     3870  7780  0    
2019/07/18  22:40:00  BASE  7.15596  145  9.56088  147  0.4   76    -3.3  0     0     987.9    NA       0.0000   9999     8140  0     0    
2019/07/18  22:41:00  BASE  8.26728  152  10.6487  155  0.5   76    -3.3  0     0     987.6    NA       0.0000   9999     7610  0     0    
2019/07/18  22:42:00  BASE  9.74904  158  11.466   151  0.4   76    -3.4  0     0     987.4    NA       0.0000   9999     7350  0     0    
2019/07/18  22:43:00  BASE  9.62556  158  11.466   151  0.4   76    -3.4  0     0     987.6    NA       0.0000   9999     7840  0     0    
2019/07/18  22:44:00  BASE  8.1732   160  11.466   151  0.3   76    -3.4  0     0     987.8    NA       0.0000   9999     6070  8100  0    
2019/07/18  22:45:00  BASE  6.42096  166  11.466   151  0.3   76    -3.4  0     0     987.9    NA       0.0000   9999     5970  8100  0    
2019/07/18  22:46:00  BASE  3.87492  159  11.466   151  0.2   76    -3.4  0     0     988.1    NA       0.0000   9999     5970  0     0    
2019/07/18  22:47:00  BASE  3.41628  142  11.466   151  0.2   77    -3.4  0     0     988.0    NA       0.0000   9999     5970  0     0    
2019/07/18  22:48:00  BASE  4.66872  142  11.466   151  0.1   77    -3.3  0     0     988.0    NA       0.0000   9999     5840  0     0    
2019/07/18  22:49:00  BASE  5.3802   149  11.466   151  0.1   78    -3.3  0     0     987.9    NA       0.0000   9999     6040  7970  0    
2019/07/18  22:50:00  BASE  5.69772  147  11.466   151  0.1   78    -3.2  0     0     987.9    NA       0.0000   9999     7970  0     0    
2019/07/18  22:51:00  BASE  5.96232  143  11.466   151  0.1   79    -3.1  0     0     987.9    NA       0.0000   9999     7250  0     0    
2019/07/18  22:52:00  BASE  5.92116  141  9.83136  161  0.1   79    -3.1  0     0     987.9    NA       0.0000   9999     7810  0     0    
2019/07/18  22:53:00  BASE  6.22104  137  8.59068  154  0.1   79    -3.1  0     0     987.9    NA       0.0000   9999     7780  0     0    
2019/07/18  22:54:00  BASE  6.30924  134  7.53228  133  0.1   79    -3.1  0     0     987.9    NA       0.0000   9999     7550  0     0    
2019/07/18  22:55:00  BASE  5.83296  138  7.53228  133  0.1   79    -3.0  0     0     987.9    NA       0.0000   9999     7640  0     0    
2019/07/18  22:56:00  BASE  5.99172  139  7.53228  133  0.2   79    -3.0  0     0     987.9    NA       0.0000   9999     7550  0     0    
2019/07/18  22:57:00  BASE  6.40332  130  8.4672   113  0.2   79    -3.0  0     0     987.9    NA       0.0000   9999     7610  0     0    
2019/07/18  22:58:00  BASE  6.4386   125  8.4672   113  0.2   79    -3.0  0     0     987.9    NA       0.0000   9999     7510  0     0    
2019/07/18  22:59:00  BASE  6.1152   126  8.4672   113  0.2   79    -3.0  0     0     987.9    NA       0.0000   9999     7510  0     0    
2019/07/18  23:00:00  BASE  6.33864  126  8.4672   113  0.3   79    -3.0  0     0     987.8    NA       0.0000   9999     7550  0     0    
2019/07/18  23:01:00  BASE  6.5268   128  8.4672   113  0.3   79    -3.0  0     0     987.8    NA       0.0000   9999     7480  0     0    
2019/07/18  23:02:00  BASE  7.94388  115  12.3715  98   0.3   79    -2.9  0     0     987.7    NA       0.0000   UP       9999  7420  0    
2019/07/18  23:03:00  BASE  10.5546  100  12.6773  93   0.4   79    -2.8  0     0     987.6    NA       0.0000   UP       9999  7420  0    
2019/07/18  23:04:00  BASE  11.5954  93   13.7945  84   0.6   80    -2.5  0     0     987.6    NA       0.0000   UP       SQ    9999  7420 
2019/07/18  23:05:00  BASE  10.5311  97   13.7945  84   0.8   80    -2.3  0     0     987.7    NA       0.0000   UP       9999  7420  0    
2019/07/18  23:06:00  BASE  7.63812  105  13.7945  84   0.9   80    -2.1  0     0     987.8    NA       0.0000   UP       9999  7420  0    
2019/07/18  23:07:00  BASE  6.35628  114  13.7945  84   1.0   80    -2.1  0     0     987.7    NA       0.0000   UP       9999  7450  0    
2019/07/18  23:08:00  BASE  8.86116  114  13.7945  84   1.0   80    -2.2  0     0     987.5    NA       0.0000   UP       9999  7450  0    
2019/07/18  23:09:00  BASE  10.3018  109  13.7945  84   0.9   79    -2.3  0     0     987.4    NA       0.0000   UP       9999  7510  0    
2019/07/18  23:10:00  BASE  9.47856  112  13.7945  84   0.9   79    -2.3  0     0     987.5    NA       0.0000   UP       9999  7380  0    
2019/07/18  23:11:00  BASE  8.21436  110  13.7945  84   1.0   79    -2.3  0     0     987.6    NA       0.0000   UP       9999  7150  0    
2019/07/18  23:12:00  BASE  6.97956  115  13.7945  84   1.1   78    -2.3  0     0     987.8    NA       0.0000   UP       9999  6790  7280 
2019/07/18  23:13:00  BASE  7.28532  114  13.7945  84   1.2   77    -2.4  0     0     987.7    NA       0.0000   UP       9999  6630  0    
2019/07/18  23:14:00  BASE  7.92036  99   12.7067  101  1.3   76    -2.4  0     0     987.6    NA       0.0000   UP       9999  6990  0    
2019/07/18  23:15:00  BASE  8.01444  96   12.7067  101  1.4   75    -2.5  0     0     987.6    NA       0.0000   UP       9999  7350  0    
2019/07/18  23:16:00  BASE  7.938    95   12.7067  101  1.4   75    -2.6  0     0     987.6    NA       0.0000   UP       9999  6000  6690 
2019/07/18  23:17:00  BASE  7.4676   94   12.7067  101  1.4   75    -2.5  0     0     987.7    NA       0.0000   UP       9999  5970  7350 
2019/07/18  23:18:00  BASE  7.22064  97   12.7067  101  1.4   76    -2.4  0     0     987.7    NA       0.0000   9999     5770  7320  0    
2019/07/18  23:19:00  BASE  7.68516  100  11.466   106  1.4   76    -2.4  0     0     987.7    NA       0.0000   9999     5710  0     0    
2019/07/18  23:20:00  BASE  7.7616   117  9.86076  111  1.4   76    -2.3  0     0     987.6    NA       0.0000   9999     6460  7350  0    
2019/07/18  23:21:00  BASE  7.09128  122  9.86076  111  1.3   76    -2.4  0     0     987.9    NA       0.0000   9999     5610  7420  0    
2019/07/18  23:22:00  BASE  6.43272  118  9.86076  111  1.3   76    -2.5  0     0     987.9    NA       0.0000   9999     5940  7380  0    
2019/07/18  23:23:00  BASE  6.37392  125  9.86076  111  1.2   75    -2.7  0     0     987.9    NA       0.0000   9999     6270  7280  0    
2019/07/18  23:24:00  BASE  5.92704  128  9.86076  111  1.2   75    -2.8  0     0     987.9    NA       0.0000   9999     6690  0     0    
2019/07/18  23:25:00  BASE  4.47468  129  9.86076  111  1.1   74    -3.0  0     0     987.9    NA       0.0000   9999     7320  0     0    
2019/07/18  23:26:00  BASE  3.94548  120  9.86076  111  1.0   74    -3.1  0     0     987.9    NA       0.0000   9999     7320  0     0    
2019/07/18  23:27:00  BASE  4.1454   117  9.86076  111  1.0   75    -3.0  0     0     987.9    NA       0.0000   9999     7320  0     0    
2019/07/18  23:28:00  BASE  4.31004  125  9.86076  111  0.9   75    -3.0  0     0     987.9    NA       0.0000   9999     7320  0     0    
2019/07/18  23:29:00  BASE  5.12736  131  9.86076  111  0.9   75    -3.0  0     0     987.8    NA       0.0000   9999     7250  0     0    
2019/07/18  23:30:00  BASE  5.39196  129  8.4378   103  1.0   75    -2.9  0     0     987.8    NA       0.0000   9999     6560  7550  0    
2019/07/18  23:31:00  BASE  5.36844  121  8.4378   103  1.0   75    -2.9  0     0     987.8    NA       0.0000   9999     6330  7550  0    
2019/07/18  23:32:00  BASE  5.39784  118  8.4378   103  1.0   75    -2.9  0     0     987.8    NA       0.0000   9999     6560  7510  0    
2019/07/18  23:33:00  BASE  5.83296  123  7.65576  119  1.1   75    -2.9  0     0     987.7    NA       0.0000   9999     6040  7580  0    
2019/07/18  23:34:00  BASE  7.00896  125  7.98504  115  1.1   74    -3.0  0     0     987.7    NA       0.0000   9999     6100  7610  0    
2019/07/18  23:35:00  BASE  7.48524  124  8.64948  124  1.2   74    -2.9  0     0     987.6    NA       0.0000   9999     7550  0     0    
2019/07/18  23:36:00  BASE  6.88548  126  8.64948  124  1.2   74    -2.9  0     0     987.7    NA       0.0000   9999     7090  0     0    
2019/07/18  23:37:00  BASE  6.04464  129  8.64948  124  1.2   74    -3.0  0     0     987.8    NA       0.0000   9999     7510  0     0    
2019/07/18  23:38:00  BASE  5.0568   134  8.64948  124  1.2   74    -3.0  0     0     987.8    NA       0.0000   9999     7580  0     0    
2019/07/18  23:39:00  BASE  4.51584  140  8.64948  124  1.1   74    -3.0  0     0     987.8    NA       0.0000   9999     7550  0     0    
2019/07/18  23:40:00  BASE  4.44528  146  8.64948  124  1.0   74    -3.1  0     0     987.8    NA       0.0000   9999     7550  0     0    
2019/07/18  23:41:00  BASE  3.81612  145  8.64948  124  0.9   74    -3.2  0     0     987.9    NA       0.0000   9999     7510  0     0    
2019/07/18  23:42:00  BASE  3.48096  137  8.64948  124  0.8   75    -3.1  0     0     987.9    NA       0.0000   9999     7510  0     0    
2019/07/18  23:43:00  BASE  3.59856  142  8.64948  124  0.7   76    -3.1  0     0     987.9    NA       0.0000   9999     7550  0     0    
2019/07/18  23:44:00  BASE  3.58092  159  8.64948  124  0.6   76    -3.1  0     0     987.9    NA       0.0000   9999     7640  0     0    
2019/07/18  23:45:00  BASE  2.88708  163  7.16772  128  0.6   77    -3.0  0     0     987.9    NA       0.0000   9999     7640  0     0    
2019/07/18  23:46:00  BASE  1.9992   147  6.68556  125  0.6   77    -3.0  0     0     987.9    NA       0.0000   9999     7580  0     0    
2019/07/18  23:47:00  BASE  2.40492  143  5.35668  140  0.5   77    -3.0  0     0     987.9    NA       0.0000   9999     7680  0     0    
2019/07/18  23:48:00  BASE  3.65148  148  5.08032  138  0.5   77    -3.0  0     0     987.9    NA       0.0000   9999     7640  0     0    
2019/07/18  23:49:00  BASE  4.75104  145  6.2622   143  0.5   78    -3.0  0     0     987.9    NA       0.0000   9999     7610  0     0    
2019/07/18  23:50:00  BASE  5.04504  153  6.2622   143  0.4   78    -3.0  0     0     988.0    NA       0.0000   9999     7610  0     0    
2019/07/18  23:51:00  BASE  5.55072  159  7.53228  161  0.3   78    -3.0  0     0     988.0    NA       0.0000   9999     7640  0     0    
2019/07/18  23:52:00  BASE  6.85608  156  8.4672   154  0.3   79    -2.9  0     0     987.9    NA       0.0000   9999     7680  0     0    
2019/07/18  23:53:00  BASE  7.18536  147  8.4672   154  0.2   80    -2.9  0     0     988.1    NA       0.0000   9999     7680  0     0    
2019/07/18  23:54:00  BASE  5.62128  142  8.4672   154  0.2   80    -2.8  0     0     988.2    NA       0.0000   9999     7680  0     0    
2019/07/18  23:55:00  BASE  4.57464  148  8.4672   154  0.1   81    -2.8  0     0     988.2    NA       0.0000   9999     7680  0     0    
2019/07/18  23:56:00  BASE  5.41548  158  8.4672   154  0.1   81    -2.8  0     0     988.2    NA       0.0000   9999     7710  0     0    
2019/07/18  23:57:00  BASE  6.20928  168  8.4672   154  0.1   82    -2.7  0     0     988.2    NA       0.0000   9999     7740  0     0    
2019/07/18  23:58:00  BASE  6.59148  177  8.4672   154  0.1   82    -2.7  0     0     988.2    NA       0.0000   9999     8010  0     0    
2019/07/18  23:59:00  BASE  7.056    173  8.4672   154  0.0   82    -2.7  0     0     988.1    NA       0.0000   9999     8140  0     0